     2              OBSERVATION DATA    GPS                 RINEX VERSION / TYPE
teqc 2000Feb29 Daniel Johnson 20010928 19:13:04UTC          PGM / RUN BY / DATE
                                                            COMMENT
L2: 1 -> 1; 5 -> 5; 60 -> 9                                 COMMENT
L2: 1 -> 1; 5 -> 5; 60 -> 9                                 COMMENT
L2: 1 -> 1; 5 -> 5; 60 -> 9                                 COMMENT
L2: 1 -> 1; 5 -> 5; 60 -> 9                                 COMMENT
L2: 1 -> 1; 5 -> 5; 60 -> 9                                 COMMENT
L2: 1 -> 1; 5 -> 5; 60 -> 9                                 COMMENT
L2: 1 -> 1; 5 -> 5; 60 -> 9                                 COMMENT
L2: 1 -> 1; 5 -> 5; 60 -> 9                                 COMMENT
L2: 1 -> 1; 5 -> 5; 60 -> 9                                 COMMENT
L2: 1 -> 1; 5 -> 5; 60 -> 9                                 COMMENT
L2: 1 -> 1; 5 -> 5; 60 -> 9                                 COMMENT
L2: 1 -> 1; 5 -> 5; 60 -> 9                                 COMMENT
L2: 1 -> 1; 5 -> 5; 60 -> 9                                 COMMENT
L2: 1 -> 1; 5 -> 5; 60 -> 9                                 COMMENT
Original Marker Name: 1200184                               COMMENT
Campaign Name: CWU ECSZ 2001                                COMMENT
4-Character Station Name: RAIN                              COMMENT
6-Character Antenna Code: DMRCHT                            COMMENT
Vertical Measurement Point: BCR                             COMMENT
Vertical Offset to Rinex Ref. Point: 0.0348                 COMMENT
Radial Measurement Point: ECF                               COMMENT
Radial Offset to Rinex Ref. Point: 0.1897                   COMMENT
Antenna Height from Field Measurement: 1.4065 m             COMMENT
Additional Antenna Identification Info.:                    COMMENT
Turborogue and Ashtech Choke Ring                           COMMENT
Original XYZ: -2392432.3039 -4653671.0091 3636002.3616      COMMENT
New XYZ position is based on association with SCEC monument COMMENT
E1F2P3R5+0011. Position of that monument is believed to be  COMMENT
valid to within 1 m horizontally; vertical accuracy         COMMENT
should be no worse than 3-times this value.                 COMMENT
                                                            COMMENT
Revised Rinex header created by UCSD GPS archive for        COMMENT
GSAC on 09-Nov-2004 (2004:314) 22:55:33 GMT                 COMMENT
For assistance contact dagnew@ucsd.edu                      COMMENT
or anderson@python.ucsd.edu                                 COMMENT
                                                            COMMENT
1969 RAINBOW SURV                                           MARKER NAME
RAIN                                                        MARKER NUMBER
DJ CENTRAL WASHINGTON UNIVERSITY                            OBSERVER / AGENCY
220211200 TRIMBLE 4700 NP 1.30; SP 0.00                     REC # / TYPE / VERS
8199 DORNE-MARGOL. TYPE T                                   ANT # / TYPE
 -2392435.0000 -4653676.0000  3636004.0000                  APPROX POSITION XYZ
        1.3588        0.0000        0.0000                  ANTENNA: DELTA H/E/N
     1     1     0                                          WAVELENGTH FACT L1/2
     9    L1    L2    C1    P2    P1    D1    D2    S1    S2# / TYPES OF OBSERV
    30                                                      INTERVAL
  2001     7     3     0    31    0.000000                  TIME OF FIRST OBS
  2001     7     3    22    16   30.000000                  TIME OF LAST OBS
                                                            END OF HEADER
 01  7  3  0 31  0.0000000  0  5G 1G11G20G25G29
   -127056.70159    -91907.83457  23007501.0234   23007499.1374
      2202.8754       1716.5264         46.5004         31.5004
     66416.76559     40663.61258  21639883.0474   21639878.7384
     -1119.6724       -872.4724         52.2504         40.0004
   -148803.20859   -107558.35858  21666184.6884   21666180.0784
      2633.6884       2052.2244         51.5004         39.5004
     60068.04559     34809.37558  20887010.5234   20887005.6484
      -974.3594       -759.2414         54.0004         45.5004
    102634.97559     65596.49957  22397166.6804   22397163.6524
     -1743.8754      -1358.8644         47.7504         34.7504
 01  7  3  0 31 30.0000000  0  9G 1G11G14G20G21G22G25G29G30
   -193585.28649   -143748.19947  22994840.7034   22994838.8794
      2232.0784       1739.2824         46.0004         31.2504
     99744.80549     66633.46248  21646225.2974   21646221.4024
     -1102.4064       -859.0184         50.5004         40.0004
    113246.40159     76840.78757  23659813.6804   23659810.8244
     -2228.1564      -1736.2264         44.2504         28.0004
   -228214.02449   -169436.89048  21651073.0864   21651068.5314
      2660.1254       2072.8254         52.0004         40.0004
    144023.00659     98031.28256  24242530.1724   24242532.8714
     -2846.9224      -2218.3814         41.2504         22.2504
   -177020.56759   -131311.29356  23679393.3284   23679393.5784
      3554.0314       2769.3754         44.0004         25.0004
     89004.62349     57357.34848  20892517.0394   20892512.2934
      -955.0314       -744.1804         53.5004         45.2504
    154473.42249    105990.04147  22407031.7034   22407028.2504
     -1712.2504      -1334.2214         48.0004         35.2504
     46429.38259     28962.97756  24706303.2734   24706301.0124
      -910.7974       -709.7124         43.2504         20.5004
 01  7  3  0 32  0.0000000  0  9G 1G11G14G20G21G22G25G29G30
   -260958.43849   -196246.70147  22982020.6334   22982017.8244
      2258.9534       1760.2234         45.5004         32.7504
    132584.31349     92222.65148  21652474.5084   21652470.6134
     -1087.2504       -847.2084         52.5004         39.7504
    179617.62149    128558.55947  23672444.2894   23672441.3984
     -2197.0474      -1711.9854         44.5004         27.5004
   -308385.30549   -231907.97548  21635816.8834   21635812.5944
      2684.2814       2091.6484         51.2504         40.0004
    229066.38749    164298.67446  24258713.8674   24258716.1134
     -2822.8914      -2199.6554         41.7504         21.7504
   -284106.10349   -214754.28846  23659016.2814   23659015.7584
      3584.7194       2793.2874         45.0004         24.7504
    117394.35949     79479.21648  20897919.5004   20897914.7814
      -937.9694       -730.8854         54.0004         45.2504
    205393.99949    145668.36247  22416722.2194   22416718.1214
     -1682.8444      -1311.3074         47.7504         35.5004
     73528.96149     50079.47646  24711458.0084   24711458.2704
      -896.2814       -698.4014         40.5004         19.7504
 01  7  3  0 32 30.0000000  0  9G 1G11G14G20G21G22G25G29G30
   -329100.14749   -249344.05147  22969053.1884   22969050.9964
      2283.3754       1779.2534         45.5004         32.0004
    165009.82449    117489.25447  21658644.7894   21658640.8094
     -1074.8124       -837.5164         52.0004         39.2504
    245098.23049    179582.30747  23684904.2274   23684902.1134
     -2168.6094      -1689.8254         45.0004         27.7504
   -389238.51249   -294910.43448  21620431.0314   21620426.4454
      2705.5004       2108.1824         52.0004         39.7504
    313427.89349    230034.74746  24274768.8204   24274770.1094
     -2801.5944      -2183.0604         42.5004         22.7504
   -392069.90849   -298881.69246  23638470.9224   23638471.3054
      3612.5784       2814.9964         44.2504         25.5004
    145312.11849    101233.31948  20903232.0314   20903227.4454
      -923.5474       -719.6474         54.0004         45.2504
    255472.54249    184690.53747  22426251.6254   22426247.9654
     -1656.1254      -1290.4874         47.7504         36.0004
    100230.78649     70886.09046  24716539.4064   24716539.8874
      -884.4534       -689.1844         36.0004         20.2504
 01  7  3  0 33  0.0000000  0  9G 1G11G14G20G21G22G25G29G30
   -397935.69049   -302982.05547  22955954.0164   22955951.4104
      2305.5474       1796.5304         46.0004         32.2504
    197094.48249    142490.24248  21664750.3204   21664746.5704
     -1064.3444       -829.3594         51.5004         39.5004
    309762.75049    229970.12447  23697209.5864   23697206.8404
     -2142.3914      -1669.3954         44.0004         27.0004
   -470696.46449   -358384.11648  21604930.2894   21604925.1724
      2724.7504       2123.1824         51.7504         40.2504
    397181.25249    295296.82346  24290705.5004   24290708.3484
     -2782.2194      -2167.9634         40.7504         22.2504
   -500834.52049   -383633.05947  23617773.5634   23617772.9224
      3638.2034       2834.9634         43.7504         26.5004
    172830.99349    122676.58048  20908468.7664   20908464.1414
      -911.2034       -710.0284         53.0004         45.0004
    304783.95549    223114.96647  22435634.8674   22435631.5514
     -1631.4224      -1271.2384         48.0004         35.0004
    126608.82849     91440.37546  24721560.1484   24721559.7704
      -874.3594       -681.3194         36.2504         20.2504
 01  7  3  0 33 30.0000000  0  9G 1G11G14G20G21G22G25G29G30
   -467407.84449   -357116.11947  22942733.8054   22942731.5904
      2325.5474       1812.1144         46.5004         33.0004
    228893.93049    167268.99547  21670801.4924   21670797.9264
     -1056.0164       -822.8694         51.2504         39.0004
    373668.21649    279766.52547  23709371.2424   23709367.6564
     -2118.2814      -1650.6094         43.5004         28.2504
   -552699.73749   -422282.72648  21589325.2424   21589320.5394
      2741.6724       2136.3684         51.5004         40.7504
    480382.79449    360129.06546  24306539.4064   24306541.5634
     -2764.9844      -2154.5334         41.5004         22.5004
   -610339.30149   -468961.21046  23596934.5634   23596934.8524
      3661.6884       2853.2634         43.5004         25.5004
    200006.62149    143852.39548  20913640.4454   20913635.3954
      -900.9534       -702.0414         54.2504         45.0004
    353385.38849    260986.17547  22444883.2974   22444879.7814
     -1609.0474      -1253.8034         47.7504         34.5004
    152719.96249    111786.70146  24726527.8204   24726527.8754
      -866.6724       -675.3294         40.5004         18.5004
 01  7  3  0 34  0.0000000  0  9G 1G11G14G20G21G22G25G29G30
   -537452.97349   -411696.66147  22929405.1724   22929402.8484
      2343.7974       1826.3354         46.7504         33.0004
    260470.23349    191873.87848  21676810.5634   21676806.6214
     -1049.3594       -817.6834         51.2504         39.5004
    436878.45949    329021.16847  23721399.5864   23721397.5394
     -2095.8914      -1633.1624         41.5004         27.0004
   -635182.15449   -486554.70048  21573629.2664   21573624.9694
      2756.8444       2148.1904         52.0004         40.7504
    563095.29549    424580.14946  24322279.0234   24322281.3364
     -2749.5314      -2142.4924         42.5004         21.7504
   -720516.86849   -554813.61247  23575968.8364   23575968.4614
      3683.1724       2870.0044         44.5004         26.0004
    226901.24849    164809.25148  20918757.8914   20918753.1724
      -892.3124       -695.3084         54.0004         45.0004
    401340.47149    298353.74747  22454009.3444   22454005.8914
     -1588.2664      -1237.6104         47.5004         35.5004
    178627.24949    131974.15646  24731460.7424   24731456.8674
      -860.7814       -670.7394         43.0004         16.2504
 01  7  3  0 34 30.0000000  0  9G 1G11G14G20G21G22G25G29G30
   -608019.62949   -466683.57847  22915976.6024   22915974.2814
      2360.4064       1839.2784         47.0004         32.2504
    291872.76149    216343.33848  21682786.1174   21682782.2814
     -1044.3444       -813.7744         51.0004         39.5004
    499444.55749    377773.86047  23733305.1564   23733302.8204
     -2075.2034      -1617.0414         42.7504         27.2504
   -718090.23649   -551158.35548  21557852.7894   21557847.8484
      2770.1414       2158.5514         51.2504         41.0004
    645368.64049    488689.09746  24337936.4064   24337936.9844
     -2735.7034      -2131.7174         41.7504         20.2504
   -831312.11749   -641147.32747  23554885.0474   23554884.6994
      3703.0164       2885.4674         43.0004         26.5004
    253564.61349    185585.88948  20923831.6644   20923826.9494
      -885.3754       -689.9034         54.2504         45.2504
    448700.34149    335257.48847  22463021.8134   22463017.7854
     -1569.2814      -1222.8174         48.2504         35.5004
    204381.36049    152042.29646  24736359.5944   24736358.4064
      -856.3914       -667.3174         40.0004         19.5004
 01  7  3  0 35  0.0000000  0  9G 1G11G14G20G21G22G25G29G30
   -679053.83249   -522034.82647  22902459.3754   22902457.0044
      2375.1564       1850.7714         47.2504         33.0004
    323154.21149    240718.45647  21688738.8054   21688734.6454
     -1041.0944       -811.2424         51.5004         39.0004
    561420.86849    426067.02447  23745099.2734   23745096.2344
     -2056.4844      -1602.4554         41.5004         26.7504
   -801367.17249   -616049.43448  21542005.4614   21542000.6414
      2781.5944       2167.4764         51.2504         41.0004
    727256.26849    552497.41246  24353519.3674   24353520.5164
     -2723.4844      -2122.1964         41.5004         20.0004
   -942667.84349   -727917.79446  23533693.6804   23533694.2504
      3720.7814       2899.3104         42.7504         25.5004
    280049.45649    206223.42248  20928871.5944   20928866.6454
      -880.2194       -685.8854         54.5004         44.7504
    495519.37149    371739.79947  22471930.9454   22471927.3524
     -1551.9694      -1209.3264         48.2504         34.7504
    230036.00749    172032.89246  24741241.1564   24741241.6094
      -853.9534       -665.4184         42.0004         21.0004
 01  7  3  0 35 30.0000000  0  9G 1G11G14G20G21G22G25G29G30
   -750518.58049   -577721.59447  22888859.6804   22888857.3094
      2388.9384       1861.5104         47.0004         32.2504
    354349.85449    265026.72048  21694675.2584   21694671.3284
     -1038.7504       -809.4164         51.7504         39.7504
    622844.12449    473929.23247  23756787.3204   23756785.5124
     -2038.7344      -1588.6244         42.0004         26.5004
   -884973.57549   -681197.23748  21526095.8054   21526090.8364
      2791.9064       2175.5114         51.2504         40.2504
    808794.62349    616033.62146  24369034.1564   24369036.2384
     -2712.6874      -2113.7824         38.5004         20.0004
  -1054544.23349   -815093.94447  23512404.8754   23512404.6844
      3737.3444       2912.2164         40.7504         26.7504
    306391.32849    226749.55748  20933884.4694   20933879.2814
      -876.0624       -682.6464         54.0004         45.0004
    541834.35149    407829.34247  22480744.5314   22480741.2774
     -1535.9534      -1196.8474         48.2504         34.5004
    255627.40149    191974.18046  24746111.6334   24746110.9734
      -852.4374       -664.2374         39.7504         19.0004
 01  7  3  0 36  0.0000000  0  9G 1G11G14G20G21G22G25G29G30
   -822375.93249   -633714.23947  22875185.2274   22875183.4454
      2401.3444       1871.1774         47.2504         33.0004
    385495.71249    289296.19748  21700601.7504   21700597.8054
     -1037.7974       -808.6734         50.7504         39.5004
    683752.12449    521389.93047  23768378.7034   23768375.4654
     -2022.2034      -1575.7434         43.0004         27.5004
   -968869.38349   -746570.54648  21510130.8834   21510126.1134
      2800.8284       2182.4634         51.0004         40.0004
    890020.46149    679326.26846  24384490.9144   24384493.5904
     -2702.7194      -2106.0154         40.7504         20.0004
  -1166899.83149   -902643.55147  23491024.1564   23491024.0474
      3752.6884       2924.1724         43.0004         26.7504
    332626.41049    247192.46348  20938876.7734   20938871.5944
      -873.1564       -680.3814         54.7504         45.0004
    587683.21849    443555.70347  22489469.2664   22489465.6954
     -1521.0004      -1185.1954         48.5004         34.7504
    281192.67749    211895.19146  24750975.2274   24750975.1884
      -852.1874       -664.0424         39.7504         15.5004
 01  7  3  0 36 30.0000000  0  9G 1G11G14G20G21G22G25G29G30
   -894588.91749   -689984.04247  22861443.8914   22861441.6174
      2412.6724       1880.0044         47.5004         33.0004
    416627.02749    313554.32747  21706526.2194   21706522.4264
     -1037.7814       -808.6614         50.7504         39.2504
    744182.04549    568478.14346  23779877.3984   23779874.7854
     -2006.6874      -1563.6534         40.5004         25.2504
  -1053015.05949   -812138.57248  21494118.5234   21494113.8204
      2808.6724       2188.5754         51.5004         40.2504
    970969.94149    742403.58046  24399895.8444   24399897.3794
     -2694.0004      -2099.2214         42.0004         19.0004
  -1279693.52449   -990534.52547  23469559.5784   23469559.6524
      3766.7344       2935.1184         41.2504         26.0004
    358790.52649    267580.07448  20943855.7344   20943850.5164
      -871.2034       -678.8604         54.5004         44.7504
    633103.07149    478947.74547  22498111.9224   22498109.4494
     -1507.2194      -1174.4564         48.0004         34.7504
    306768.35749    231824.31446  24755844.3134   24755841.5664
      -853.0944       -664.7484         42.2504         19.5004
 01  7  3  0 37  0.0000000  0  9G 1G11G14G20G21G22G25G29G30
   -967127.15849   -746507.28147  22847640.5234   22847637.7814
      2423.2504       1888.2474         47.7504         32.5004
    447772.39549    337823.41147  21712452.6174   21712448.7934
     -1038.4694       -809.1964         51.0004         38.7504
    804164.12449    615217.34347  23791291.9224   23791289.8484
     -1992.0624      -1552.2564         43.0004         28.7504
  -1137377.76749   -877875.70948  21478064.9534   21478059.5704
      2815.5944       2193.9694         51.7504         41.2504
   1051671.96949    805288.08446  24415254.7034   24415254.8204
     -2686.0164      -2092.9994         42.7504         18.2504
  -1392891.48549  -1078740.48047  23448019.1254   23448018.9104
      3779.7664       2945.2724         41.7504         26.7504
    384912.14049    287934.57448  20948826.5394   20948821.6994
      -870.0944       -677.9954         54.0004         45.2504
    678124.03049    514028.97647  22506679.3914   22506676.0784
     -1494.1724      -1164.2904         48.2504         34.0004
    332383.93449    251784.41646  24760717.4534   24760717.3134
      -854.6414       -665.9544         42.7504         20.5004
 01  7  3  0 37 30.0000000  0  9G 1G11G14G20G21G22G25G29G30
  -1039969.55349   -803267.51447  22833778.7894   22833776.2304
      2432.8914       1895.7594         48.0004         33.0004
    478951.24949    362118.58248  21718385.9304   21718382.5274
     -1040.1254       -810.4874         51.2504         39.5004
    863719.65349    661624.14247  23802625.8364   23802622.9064
     -1978.3124      -1541.5424         42.2504         27.7504
  -1221933.90049   -943763.57448  21461974.1884   21461969.0784
      2821.4534       2198.5354         52.2504         41.2504
   1132147.05049    867995.84046  24430566.5704   24430568.7934
     -2679.0004      -2087.5324         40.0004         18.2504
  -1506469.80849  -1167242.83447  23426405.1724   23426405.0554
      3791.9844       2954.7934         42.0004         26.7504
    411010.99749    308271.33348  20953792.7894   20953788.0514
      -869.9064       -677.8494         55.0004         44.7504
    722767.59649    548816.13647  22515174.8914   22515171.7424
     -1482.1094      -1154.8904         48.2504         34.2504
    358060.04549    271791.79346  24765604.2814   24765603.6024
      -857.1724       -667.9264         41.5004         19.7504
 01  7  3  0 38  0.0000000  0  9G 1G11G14G20G21G22G25G29G30
  -1113089.08649   -860243.70247  22819864.5554   22819862.3014
      2441.7034       1902.6264         48.0004         32.7504
    510188.77449    386459.47947  21724330.5784   21724326.7504
     -1042.4844       -812.3254         50.2504         39.0004
    922875.35549    707719.41247  23813881.0864   23813879.2194
     -1965.5474      -1531.5954         43.2504         27.5004
  -1306653.90349  -1009779.12848  21445852.4304   21445847.6094
      2826.4534       2202.4314         51.2504         41.2504
   1212421.22449    930546.89546  24445842.4224   24445844.4264
     -2672.7504      -2082.6624         41.7504         20.2504
  -1620398.10349  -1256017.87947  23404725.8204   23404725.2934
      3803.1564       2963.4984         42.0004         27.2504
    437112.83549    328610.41948  20958759.8674   20958754.8754
      -870.4064       -678.2394         54.0004         44.7504
    767060.48649    583330.02847  22523603.4844   22523600.6884
     -1470.8754      -1146.1364         48.7504         34.2504
    383822.98449    291866.81646  24770506.1724   24770505.8094
      -860.4224       -670.4594         41.5004         19.2504
 01  7  3  0 38 30.0000000  0  9G 1G11G14G20G21G22G25G29G30
  -1186458.38149   -917414.52147  22805902.8834   22805900.5594
      2449.6254       1908.7994         47.7504         33.7504
    541510.36349    410865.87247  21730290.6254   21730286.6564
     -1045.6564       -814.7974         51.7504         38.5004
    981658.70249    753524.54847  23825067.8284   23825065.4614
     -1953.4374      -1522.1594         42.0004         26.2504
  -1391508.18349  -1075899.30548  21429705.0004   21429700.0904
      2830.5004       2205.5844         52.5004         41.0004
   1292520.46449    992961.71146  24461084.8134   24461087.2774
     -2667.1724      -2078.3164         39.0004         17.2504
  -1734645.32549  -1345041.49547  23382984.1024   23382984.1994
      3813.2664       2971.3764         41.2504         27.5004
    463243.10249    348971.65948  20963732.5004   20963727.3484
      -871.6564       -679.2134         54.2504         44.7504
    811030.11749    617592.04747  22531970.9384   22531967.3204
     -1460.5004      -1138.0524         48.0004         34.0004
    409699.09349    312030.08846  24775432.0554   24775429.3284
      -864.5784       -673.6974         41.5004         19.7504
 01  7  3  0 39  0.0000000  0  9G 1G11G14G20G21G22G25G29G30
  -1260055.77949   -974763.07047  22791897.7894   22791894.8364
      2456.8444       1914.4244         48.5004         33.5004
    572935.93149    435353.28447  21736270.9144   21736267.3364
     -1049.4064       -817.7194         50.5004         38.7504
   1040091.59949    799056.63647  23836187.8284   23836184.8094
     -1942.1414      -1513.3564         43.0004         26.0004
  -1476472.46349  -1142105.20548  21413537.0314   21413532.1844
      2833.7504       2208.1174         51.2504         41.2504
   1372465.63749   1055256.50846  24476298.1024   24476300.3054
     -2662.4844      -2074.6634         41.2504         17.7504
  -1849185.86649  -1434293.64247  23361188.3594   23361187.4924
      3822.7034       2978.7304         42.5004         26.0004
    489421.67849    369370.54348  20968713.8914   20968709.0514
      -873.5784       -680.7104         54.5004         45.2504
    854698.42449    651619.24947  22540280.3284   22540277.1804
     -1450.6564      -1130.3814         48.5004         33.7504
    435709.50349    332297.79046  24780380.0314   24780380.7504
      -869.4844       -677.5204         38.5004         21.7504
 01  7  3  0 39 30.0000000  0  9G 1G11G14G20G21G22G25G29G30
  -1333862.40849  -1032274.65247  22777852.4844   22777850.3714
      2463.6254       1919.7084         48.0004         33.7504
    604482.62249    459935.09447  21742273.8674   21742270.4264
     -1053.7034       -821.0674         51.7504         38.7504
   1098192.80049    844330.20247  23847243.3524   23847241.6134
     -1931.2974      -1504.9074         41.0004         26.7504
  -1561525.66649  -1208380.39648  21397351.8524   21397346.9774
      2836.3594       2210.1504         52.5004         41.5004
   1452274.42549   1117444.85246  24491485.7734   24491488.4024
     -2658.2814      -2071.3884         39.7504         17.2504
  -1963997.61849  -1523757.09847  23339339.8054   23339339.6374
      3831.3914       2985.4994         42.2504         27.7504
    515666.27449    389820.86848  20973708.0634   20973703.3914
      -876.0944       -682.6704         54.5004         44.7504
    898084.16849    685426.28647  22548536.4614   22548533.1254
     -1441.6564      -1123.3694         48.0004         33.5004
    461872.23549    352684.19146  24785359.4224   24785358.3244
      -874.7814       -681.6484         38.2504         19.7504
 01  7  3  0 40  0.0000000  0  9G 1G11G14G20G21G22G25G29G30
  -1407862.83449  -1089937.26447  22763770.6414   22763768.3284
      2469.5784       1924.3474         48.0004         33.2504
    636163.80449    484621.68647  21748302.7734   21748298.9224
     -1058.5474       -824.8424         52.0004         38.5004
   1155977.79249    889357.36047  23858240.0944   23858237.0354
     -1921.2344      -1497.0664         41.2504         26.7504
  -1646649.72449  -1274710.80048  21381153.2734   21381148.6804
      2838.3444       2211.6964         52.0004         41.5004
   1531961.59149   1179538.56046  24506649.9844   24506652.3244
     -2654.5624      -2068.4904         39.7504         18.2504
  -2079062.25349  -1613417.66947  23317443.9924   23317442.9774
      3839.3134       2991.6724         43.0004         28.5004
    541990.62049    410333.34248  20978717.2734   20978712.3164
      -879.0944       -685.0084         54.2504         44.7504
    941202.80649    719025.18947  22556741.3984   22556738.5904
     -1433.0784      -1116.6844         48.0004         33.7504
    488201.92049    373200.99056  24790367.4694   24790364.6604
      -880.7344       -686.2874         37.0004         21.5004
 01  7  3  0 40 30.0000000  0  9G 1G11G14G20G21G22G25G29G30
  -1482037.82649  -1147735.88947  22749656.0944   22749653.4734
      2475.3914       1928.8764         47.5004         33.5004
    667996.80449    509426.58647  21754360.3444   21754356.9774
     -1063.6414       -828.8114         51.7504         38.2504
   1213465.61449    934153.03947  23869179.1094   23869177.2894
     -1911.3754      -1489.3834         40.7504         26.0004
  -1731823.14349  -1341079.67248  21364944.9064   21364940.6254
      2839.8444       2212.8654         51.0004         41.5004
   1611544.78949   1241551.32746  24521793.4224   24521796.6174
     -2651.0474      -2065.7514         39.0004         20.2504
  -2194356.99849  -1703257.49747  23295503.6414   23295503.5824
      3846.9534       2997.6264         40.0004         27.5004
    568411.92949    430921.35448  20983745.4454   20983740.4494
      -882.2974       -687.5044         54.2504         44.5004
    984073.52749    752430.90447  22564900.0314   22564896.6484
     -1424.9064      -1110.3174         47.2504         33.7504
    514716.64149    393861.77746  24795414.3054   24795412.4574
      -886.9064       -691.0964         39.0004         20.5004
 01  7  3  0 41  0.0000000  0  9G 1G11G14G20G21G22G25G29G30
  -1556372.84249  -1205659.20847  22735510.6884   22735507.9264
      2480.1564       1932.5894         48.2504         34.0004
    699994.06549    534359.47947  21760449.0784   21760445.6724
     -1069.6254       -833.4744         51.0004         38.2504
   1270670.83849    978728.42047  23880066.0234   23880063.9304
     -1902.3284      -1482.3344         38.7504         25.7504
  -1817028.99449  -1407473.81048  21348731.1484   21348726.1954
      2840.3444       2213.2554         51.5004         41.2504
   1691037.81449   1303493.65646  24536921.4454   24536923.3984
     -2648.4694      -2063.7424         40.0004         16.2504
  -2309863.43349  -1793262.25947  23273523.6804   23273523.0904
      3853.3444       3002.6064         41.2504         29.0004
    594943.41349    451595.23148  20988794.1414   20988788.9534
      -886.5474       -690.8164         53.0004         45.0004
   1026710.84449    785654.74847  22573013.5784   22573010.1484
     -1417.7194      -1104.7164         47.5004         33.7504
    541430.25149    414677.56046  24800498.1334   24800497.0904
      -894.0624       -696.6724         38.0004         19.5004
 01  7  3  0 41 30.0000000  0  9G 1G11G14G20G21G22G25G29G30
  -1630853.44849  -1263695.98147  22721337.1414   22721334.5744
      2485.1884       1936.5104         48.2504         33.2504
    732168.40149    559430.35347  21766571.7034   21766567.9844
     -1075.3914       -837.9674         51.0004         38.7504
   1327608.12249   1023095.06747  23890899.8754   23890897.8554
     -1893.4224      -1475.3944         40.0004         25.7504
  -1902250.35649  -1473880.02748  21332513.9454   21332509.2734
      2840.9844       2213.7544         51.2504         41.7504
   1770454.46149   1365376.60446  24552035.4064   24552037.5634
     -2645.8444      -2061.6964         41.2504         19.5004
  -2425563.49049  -1883417.98647  23251506.5474   23251505.1414
      3859.8754       3007.6954         41.5004         27.0004
    621597.85949    472364.92248  20993866.4064   20993861.7114
      -890.4534       -693.8604         53.7504         45.0004
   1069129.41249    818708.14847  22581085.1644   22581082.4144
     -1410.3124      -1098.9454         48.0004         34.0004
    568356.39249    435658.95146  24805623.5864   24805619.8484
      -901.0004       -702.0784         43.5004         19.2504
 01  7  3  0 42  0.0000000  0  9G 1G11G14G20G21G22G25G29G30
  -1705471.31449  -1321839.70347  22707137.3914   22707135.1054
      2489.2814       1939.7004         48.2504         33.7504
    764526.15049    584644.14747  21772729.4144   21772725.7704
     -1081.8124       -842.9714         51.0004         38.5004
   1384285.80849   1067259.40546  23901686.9224   23901683.6374
     -1885.0784      -1468.8924         40.2504         25.5004
  -1987476.20349  -1540289.74448  21316295.8984   21316291.1024
      2840.7344       2213.5594         51.7504         41.2504
   1849801.78949   1427205.44646  24567132.7734   24567136.1254
     -2644.0004      -2060.2604         40.0004         20.0004
  -2541445.68349  -1973715.58047  23229454.6804   23229454.4734
      3865.6414       3012.1884         40.5004         28.0004
    648382.34749    493235.93848  20998963.1484   20998958.3524
      -895.1414       -697.5124         53.5004         44.5004
   1111337.75849    851597.72347  22589117.6484   22589114.4924
     -1403.6254      -1093.7344         48.0004         33.7504
    595502.52949    456811.86046  24810788.6724   24810787.1914
      -908.7504       -708.1174         42.7504         21.7504
 01  7  3  0 42 30.0000000  0  8G 1G11G14G20G22G25G29G30
  -1780215.17249  -1380081.61647  22692913.7034   22692911.9384
      2493.4224       1942.9264         48.7504         35.0004
    797076.92149    610008.34247  21778924.1484   21778919.8754
     -1088.4224       -848.1214         50.0004         38.0004
   1440715.43249   1111230.49147  23912424.5314   23912421.9844
     -1877.0164      -1462.6104         39.5004         26.7504
  -2072692.54049  -1606692.05548  21300079.6804   21300074.8634
      2840.1724       2213.1214         51.2504         42.0004
  -2657495.40249  -2064143.74147  23207370.8054   23207369.6724
      3871.0004       3016.3644         41.5004         29.0004
    675306.36449    514215.67848  21004086.4534   21004081.8324
      -899.9844       -701.2874         53.5004         44.5004
   1153347.21849    884332.33647  22597111.5004   22597108.3524
     -1397.1414      -1088.6814         48.5004         34.0004
    622879.24449    478144.40146  24815998.1094   24815997.6524
      -916.5314       -714.1804         39.7504         18.2504
 01  7  3  0 43  0.0000000  0  8G 1G11G14G20G22G25G29G30
  -1855068.44949  -1438408.77047  22678669.9224   22678667.0204
      2496.7814       1945.5444         48.5004         33.5004
    829835.03949    635534.09947  21785157.4304   21785154.1644
     -1095.5004       -853.6364         50.0004         38.0004
   1496913.51849   1155021.10746  23923118.8754   23923116.4804
     -1869.5784      -1456.8144         40.0004         25.5004
  -2157880.55249  -1673072.29148  21283869.0634   21283864.2384
      2838.9384       2212.1594         51.0004         41.0004
  -2773692.13949  -2154686.47247  23185259.2504   23185257.8834
      3875.5164       3019.8824         41.2504         28.5004
    702384.55449    535315.54948  21009239.4144   21009234.9344
      -905.3284       -705.4504         54.0004         44.7504
   1195174.47849    916924.96847  22605071.5004   22605067.5314
     -1391.3754      -1084.1884         48.0004         33.5004
    650502.22149    499668.69046  24821254.3914   24821253.0164
      -925.0314       -720.8044         41.0004         19.2504
 01  7  3  0 43 30.0000000  0  8G 1G11G14G20G22G25G29G30
  -1930022.98549  -1496814.84847  22664406.5704   22664403.8054
      2500.0634       1948.1014         47.7504         34.0004
    862806.59049    661226.17147  21791431.7504   21791428.0394
     -1102.7194       -859.2614         50.0004         38.2504
   1552888.28649   1198637.71847  23933770.4454   23933766.7974
     -1862.2344      -1451.0924         41.5004         26.0004
  -2243029.82549  -1739422.34148  21267665.7894   21267660.8874
      2837.5164       2211.0514         51.0004         42.0004
  -2890024.04549  -2245334.50747  23163122.9924   23163121.0784
      3879.8284       3023.2434         42.2504         29.2504
    729623.64449    556540.80648  21014423.0784   21014418.1454
      -910.7814       -709.7004         54.2504         44.7504
   1236827.82149    949382.07747  22612998.0234   22612994.3204
     -1385.7194      -1079.7814         48.2504         33.2504
    678378.46849    521390.41046  24826559.0784   24826558.6764
      -933.5474       -727.4394         43.0004         20.7504
 01  7  3  0 44  0.0000000  0  8G 1G11G14G20G22G25G29G30
  -2005069.70649  -1555292.74547  22650125.8204   22650123.0594
      2502.9224       1950.3294         48.2504         33.5004
    895998.72649    687090.12347  21797748.1484   21797744.1994
     -1110.2504       -865.1304         49.7504         38.5004
   1608648.83449   1242087.40347  23944381.8984   23944379.7384
     -1855.3754      -1445.7474         43.2504         26.0004
  -2328128.69549  -1805733.11148  21251472.1884   21251467.4384
      2835.6414       2209.5904         50.5004         42.0004
  -3006478.70049  -2336078.18947  23140960.7734   23140959.6684
      3883.6254       3026.2014         43.0004         28.5004
    757031.11249    577897.26548  21019638.4774   21019633.4924
      -916.5784       -714.2174         54.5004         44.7504
   1278316.34849    981710.75947  22620892.6254   22620889.2704
     -1380.4064      -1075.6414         47.7504         33.7504
    706516.04749    543315.72646  24831915.0864   24831912.3284
      -942.4224       -734.3554         44.2504         20.0004
 01  7  3  0 44 30.0000000  0  8G 1G11G14G20G22G25G29G30
  -2080202.44549  -1613837.67547  22635827.8914   22635825.4304
      2505.8134       1952.5814         48.5004         34.0004
    929415.63449    713129.23747  21804107.1954   21804103.5274
     -1117.7814       -870.9984         48.5004         38.2504
   1664201.47349   1285375.06047  23954952.9694   23954950.1254
     -1848.3914      -1440.3044         43.7504         26.0004
  -2413168.49449  -1871997.84148  21235289.4534   21235284.5274
      2833.6254       2208.0194         49.2504         41.7504
  -3123046.90649  -2426910.39947  23118779.9454   23118777.5084
      3887.4534       3029.1844         43.0004         29.2504
    784611.41049    599388.40048  21024886.8284   21024881.9964
      -922.2344       -718.6244         53.5004         44.2504
   1319646.20849   1013915.80547  22628757.5314   22628754.4344
     -1375.1094      -1071.5144         47.2504         33.5004
    734920.27349    565448.92446  24837316.1804   24837316.8834
      -951.2344       -741.2224         39.7504         18.2504
 01  7  3  0 45  0.0000000  0  8G 1G11G14G20G22G25G29G30
  -2155412.94849  -1672443.19347  22621516.3284   22621513.5514
      2508.2504       1954.4814         48.5004         34.2504
    963063.41949    739348.23947  21810510.2344   21810506.2894
     -1125.5784       -877.0744         48.0004         37.5004
   1719554.18549   1328506.99446  23965485.9614   23965483.1454
     -1841.8754      -1435.2274         43.7504         25.5004
  -2498138.64149  -1938208.31248  21219120.0944   21219115.3444
      2831.0944       2206.0474         50.0004         42.0004
  -3239716.90449  -2517821.88747  23096577.3134   23096575.5554
      3890.5164       3031.5714         42.5004         27.7504
    812371.05949    621019.27148  21030169.3754   21030164.8554
      -928.4224       -723.4464         54.5004         44.5004
   1360825.75649   1046003.72247  22636593.9614   22636590.7114
     -1370.3124      -1067.7764         47.5004         32.7504
    763597.91849    587795.17846  24842774.1484   24842774.7894
      -960.5784       -748.5024         42.2504         19.7504
 01  7  3  0 45 30.0000000  0  8G 1G11G14G20G22G25G29G30
  -2230697.63749  -1731106.52747  22607189.5784   22607187.1844
      2510.6254       1956.3314         48.0004         33.7504
    996943.72849    765748.42647  21816957.3834   21816953.2734
     -1133.3284       -883.1134         48.2504         38.0004
   1774710.87249   1371486.10647  23975983.0634   23975980.0984
     -1835.3444      -1430.1384         45.5004         26.0004
  -2583033.09849  -2004359.78848  21202965.0084   21202960.2624
      2828.4064       2203.9534         50.0004         42.7504
  -3356481.12449  -2608806.81547  23074357.4384   23074356.7974
      3893.5634       3033.9454         42.2504         29.5004
    840312.14449    642791.53848  21035486.3524   21035481.6254
      -934.5004       -728.1824         54.5004         44.5004
   1401858.63849   1077977.35447  22644402.0704   22644398.6214
     -1365.4224      -1063.9654         47.5004         33.0004
    792551.73849    610356.58546  24848287.0394   24848283.0784
      -969.8754       -755.7474         43.0004         20.2504
 01  7  3  0 46  0.0000000  0  8G 1G11G14G20G22G25G29G30
  -2306048.94449  -1789821.77847  22592851.5394   22592848.4064
      2512.6414       1957.9024         48.5004         33.7504
   1031061.97749    792334.02647  21823449.9384   21823446.4694
     -1141.3914       -889.3954         48.7504         38.0004
   1829679.28349   1414318.58646  23986441.5164   23986439.9264
     -1829.3124      -1425.4384         44.2504         25.0004
  -2667841.55049  -2070444.25948  21186826.6334   21186821.5904
      2825.2664       2201.5064         50.7504         42.2504
  -3473328.30049  -2699856.39147  23052122.6174   23052121.1294
      3896.0784       3035.9054         43.0004         28.0004
    868440.20649    664709.49648  21040839.0004   21040834.0274
      -940.8914       -733.1624         54.0004         44.2504
   1442752.66949   1109842.78947  22652184.3984   22652180.8094
     -1361.0164      -1060.5324         47.7504         32.7504
    821788.29149    633138.31346  24853849.8204   24853848.8984
      -979.4694       -763.2224         38.7504         21.5004
 01  7  3  0 46 30.0000000  0  7G 1G11G14G20G22G25G29
  -2381461.04149  -1848584.39447  22578500.3444   22578498.2234
      2514.9384       1959.6924         48.5004         34.5004
   1065422.02749    819108.04147  21829988.2894   21829984.4304
     -1149.1414       -895.4344         47.7504         38.0004
   1884465.45449   1457009.01846  23996868.0004   23996864.7854
     -1822.9694      -1420.4954         43.5004         24.5004
  -2752555.72449  -2136455.26048  21170705.9144   21170701.1174
      2822.3594       2199.2414         50.0004         42.5004
  -3590249.19449  -2790963.40447  23029873.3284   23029871.5784
      3898.7664       3037.9994         43.2504         28.5004
    896759.46549    686776.43548  21046227.7734   21046222.9924
      -946.9844       -737.9104         53.5004         44.5004
   1483513.99049   1141604.80147  22659940.1804   22659937.2384
     -1356.2344      -1056.8064         48.0004         33.5004
 01  7  3  0 47  0.0000000  0  7G 1G11G14G20G22G25G29
  -2456933.89049  -1907394.33747  22564138.6254   22564135.7544
      2516.4384       1960.8604         48.2504         35.0004
   1100022.07149    846069.06747  21836572.7274   21836568.7854
     -1157.6874       -902.0944         48.5004         38.0004
   1939069.41149   1499557.46347  24007258.6414   24007256.8874
     -1817.4224      -1416.1734         44.5004         26.0004
  -2837173.20349  -2202390.91848  21154603.6884   21154598.9344
      2818.5944       2196.3074         50.5004         42.0004
  -3707240.83049  -2882125.54347  23007610.2814   23007608.2544
      3900.5004       3039.3514         43.7504         28.5004
    925268.46849    708991.23748  21051653.2584   21051648.3484
      -953.7814       -743.2064         54.0004         44.0004
   1524142.59949   1173263.43047  22667671.7194   22667669.0554
     -1352.5624      -1053.9454         47.5004         32.7504
 01  7  3  0 47 30.0000000  0  7G 1G11G14G20G22G25G29
  -2532452.02049  -1966239.56147  22549767.6884   22549764.9804
      2518.1414       1962.1884         48.7504         34.5004
   1134874.88849    873227.05847  21843204.8054   21843201.0004
     -1165.8754       -908.4744         48.7504         37.5004
   1993506.49249   1541975.87846  24017617.5944   24017615.1644
     -1811.6874      -1411.7054         44.5004         24.0004
  -2921676.11849  -2268237.29148  21138523.3594   21138518.3324
      2814.9534       2193.4704         50.7504         42.7504
  -3824283.95649  -2973327.79447  22985337.4304   22985335.0824
      3902.4064       3040.8364         43.2504         29.0004
    953980.73949    731364.41248  21057116.6954   21057111.9304
      -960.3754       -748.3444         53.5004         44.2504
   1564653.89249   1204830.63947  22675381.1954   22675377.9144
     -1348.3284      -1050.6454         47.0004         33.5004
 01  7  3  0 48  0.0000000  0  7G 1G11G14G20G22G25G29
  -2608009.80249  -2025115.69747  22535389.2814   22535386.7154
      2519.0944       1962.9304         49.2504         34.0004
   1169984.24549    900584.94147  21849886.0394   21849882.0164
     -1174.7974       -915.4264         49.0004         37.5004
   2047782.63149   1584268.88546  24027946.9924   24027943.9574
     -1806.7974      -1407.8944         44.0004         24.2504
  -3006056.38049  -2333988.10748  21122466.2504   21122461.1844
      2810.4064       2189.9274         51.0004         42.7504
  -3941368.95149  -3064562.67847  22963056.7894   22963055.3714
      3903.2194       3041.4694         43.5004         29.5004
    982900.23449    753899.07548  21062620.0164   21062615.4264
      -967.6414       -754.0064         53.7504         44.0004
   1605053.79549   1236311.01947  22683069.0084   22683066.0314
     -1344.9844      -1048.0404         47.0004         32.7504
 01  7  3  0 48 30.0000000  0  7G 1G11G14G20G22G25G29
  -2683603.49149  -2084019.81147  22521004.3834   22521001.9534
      2520.2814       1963.8564         49.0004         34.7504
   1205351.80749    928144.03547  21856616.1334   21856612.4694
     -1183.2664       -922.0254         49.5004         37.5004
   2101901.64549   1626439.48446  24038244.3444   24038242.0634
     -1801.5004      -1403.7664         44.5004         24.2504
  -3090307.59049  -2399638.35848  21106433.7814   21106428.9104
      2806.1094       2186.5794         51.2504         42.5004
  -4058488.63449  -3155824.58947  22940768.7194   22940767.4454
      3904.4844       3042.4554         44.0004         29.5004
   1012028.99949    776596.79848  21068162.9454   21068158.2894
      -974.4844       -759.3384         53.7504         44.0004
   1645346.17049   1267707.64047  22690735.5554   22690732.8984
     -1341.3594      -1045.2154         46.2504         33.0004
 01  7  3  0 49  0.0000000  0  7G 1G11G14G20G22G25G29
  -2759233.79549  -2142952.44447  22506612.4144   22506609.7074
      2521.6254       1964.9034         48.5004         35.5004
   1240974.52949    955901.94447  21863395.0554   21863391.5314
     -1191.7504       -928.6364         50.0004         37.5004
   2155863.08849   1668487.25047  24048513.2344   24048511.9304
     -1796.0944      -1399.5544         44.7504         25.7504
  -3174428.12549  -2465186.78348  21090425.7584   21090420.9414
      2801.7974       2183.2184         52.0004         43.0004
  -4175640.53749  -3247111.63147  22918474.7274   22918474.3714
      3905.4534       3043.2104         44.7504         29.7504
   1041364.58149    799455.67448  21073745.2734   21073740.6054
      -981.2974       -764.6474         54.2504         44.0004
   1685530.43749   1299020.00747  22698383.2344   22698380.4264
     -1337.6874      -1042.3544         47.0004         32.5004
 01  7  3  0 49 30.0000000  0  7G 1G11G14G20G22G25G29
  -2834897.38749  -2201911.02747  22492214.0704   22492211.2974
      2522.5474       1965.6214         48.5004         35.2504
   1276853.78549    983859.76447  21870222.7814   21870219.2704
     -1200.3594       -935.3454         50.5004         37.5004
   2209670.40849   1710415.00846  24058753.6644   24058749.6374
     -1791.1414      -1395.6944         45.0004         25.0004
  -3258412.03849  -2530628.76348  21074444.9304   21074439.4104
      2796.9844       2179.4684         52.5004         42.5004
  -4292817.79349  -3338418.41047  22896177.3524   22896176.1214
      3906.1724       3043.7704         45.0004         30.2504
   1070908.74249    822477.08448  21079367.3364   21079362.4224
      -988.4694       -770.2354         54.2504         44.0004
   1725610.17049   1330250.90047  22706010.6334   22706006.8594
     -1334.4064      -1039.7974         46.2504         31.7504
 01  7  3  0 50  0.0000000  0  7G 1G11G14G20G22G25G29
  -2910587.08849  -2260889.95747  22477810.9224   22477807.8754
      2523.3754       1966.2664         49.0004         34.7504
   1312994.50549   1012021.31547  21877100.1254   21877096.6644
     -1209.0944       -942.1514         50.2504         37.0004
   2263330.74649   1752228.17146  24068963.0164   24068961.9884
     -1786.2664      -1391.8954         44.0004         25.5004
  -3342249.63249  -2595956.72348  21058490.5554   21058485.6214
      2792.1094       2175.6704         52.7504         43.0004
  -4410009.17249  -3429736.20047  22873875.4304   22873875.2624
      3906.5474       3044.0634         44.0004         30.0004
   1100666.66849    845665.06948  21085030.3204   21085025.5784
      -995.5784       -775.7754         54.0004         44.5004
   1765592.75449   1361406.11547  22713619.1024   22713615.8014
     -1331.2034      -1037.3014         46.5004         32.0004
 01  7  3  0 50 30.0000000  0  7G 1G11G14G20G22G25G29
  -2986299.21149  -2319886.34547  22463403.1644   22463400.2854
      2524.1884       1966.8994         49.0004         35.0004
   1349398.19849   1040387.76847  21884027.5944   21884023.9924
     -1217.7034       -948.8604         51.0004         37.0004
   2316848.11049   1793929.86446  24079147.9224   24079145.3594
     -1781.4374      -1388.1334         43.2504         22.7504
  -3425934.96249  -2661166.04148  21042565.8284   21042560.9774
      2787.0164       2171.7004         52.5004         43.0004
  -4527207.41949  -3521059.35047  22851574.1414   22851573.0664
      3906.8134       3044.2694         43.5004         30.0004
   1130640.39649    869021.19748  21090733.9304   21090729.3244
     -1002.6564       -781.2914         53.7504         44.0004
   1805481.83249   1392488.44847  22721209.2894   22721206.5044
     -1327.9694      -1034.7814         46.5004         32.5004
 01  7  3  0 51  0.0000000  0  7G 1G11G14G20G22G25G29
  -3062036.53549  -2378902.37547  22448991.0474   22448988.0164
      2525.1564       1967.6544         49.2504         34.5004
   1386059.79349   1068955.20147  21891004.1414   21891000.2544
     -1226.1414       -955.4344         49.5004         37.5004
   2370219.63549   1835518.09346  24089303.6414   24089301.7854
     -1776.5314      -1384.3104         43.0004         22.7504
  -3509468.01849  -2726256.69248  21026670.0004   21026664.8914
      2781.9694       2167.7684         51.5004         42.7504
  -4644411.94149  -3612387.38847  22829270.1024   22829269.0984
      3907.0784       3044.4764         42.7504         29.7504
   1160825.06249    892541.71348  21096477.8834   21096473.0044
     -1009.5004       -786.6234         53.5004         43.5004
   1845274.86149   1423495.94947  22728782.2894   22728778.6804
     -1324.6414      -1032.1874         46.5004         32.0004
 01  7  3  0 51 30.0000000  0  7G 1G11G14G20G22G25G29
  -3137795.65849  -2437935.39147  22434574.6254   22434571.5944
      2525.6094       1968.0074         49.0004         35.2504
   1422980.47349   1097724.50247  21898029.7734   21898026.3484
     -1235.0004       -962.3384         50.0004         37.7504
   2423448.99049   1876995.39246  24099433.3444   24099431.6334
     -1772.0314      -1380.8044         44.5004         25.5004
  -3592843.23249  -2791224.36648  21010804.3284   21010799.1994
      2776.4224       2163.4464         52.7504         42.7504
  -4761616.29349  -3703715.30147  22806967.5634   22806965.7194
      3906.6884       3044.1724         44.0004         29.5004
   1191222.67449    916228.15248  21102262.3674   21102257.6564
     -1016.8444       -792.3464         54.0004         44.0004
   1884975.54649   1454431.50647  22736336.8444   22736333.7194
     -1321.8594      -1030.0204         47.5004         32.5004
 01  7  3  0 52  0.0000000  0  7G 1G11G14G20G22G25G29
  -3213566.26549  -2496977.35747  22420155.6954   22420152.6644
      2525.8134       1968.1664         48.2504         34.2504
   1460168.10649   1126701.83747  21905106.5164   21905103.2504
     -1244.0784       -969.4124         49.2504         37.0004
   2476546.41949   1918369.92146  24109538.3444   24109535.4614
     -1767.7504      -1377.4684         44.0004         24.0004
  -3676047.67249  -2856058.96948  20994970.8204   20994965.9454
      2770.5474       2158.8684         52.2504         42.5004
  -4878806.21949  -3795031.97247  22784667.5864   22784665.7934
      3906.0634       3043.6854         44.2504         29.5004
   1221841.76249    940087.16848  21108089.1174   21108084.2274
     -1024.3754       -798.2144         53.5004         43.7504
   1924594.19349   1485303.12247  22743875.8984   22743872.8874
     -1319.3284      -1028.0484         46.5004         31.7504
 01  7  3  0 52 30.0000000  0  7G 1G11G14G20G22G25G29
  -3289346.65249  -2556026.93947  22405734.8524   22405731.8914
      2526.4534       1968.6654         49.2504         35.2504
   1497622.24949   1155886.84347  21912233.7584   21912230.2664
     -1252.5784       -976.0354         48.7504         37.0004
   2529513.93449   1959643.23646  24119616.2814   24119615.1684
     -1763.1874      -1373.9124         42.5004         22.7504
  -3759076.97849  -2920757.09348  20979171.1334   20979166.4964
      2764.9534       2154.5094         51.0004         43.0004
  -4995975.95649  -3886332.92647  22762371.3834   22762369.1804
      3905.6414       3043.3564         44.0004         30.2504
   1252682.47649    964118.88348  21113957.9064   21113953.3204
     -1031.3444       -803.6444         54.2504         44.0004
   1964132.81149   1516112.37947  22751399.9144   22751396.6334
     -1316.3594      -1025.7354         45.5004         32.2504
 01  7  3  0 53  0.0000000  0  7G 1G11G14G20G22G25G29
  -3365148.41949  -2615093.18247  22391310.4224   22391307.4694
      2526.8754       1968.9944         49.0004         35.0004
   1535329.36249   1185268.95047  21919409.2734   21919405.4734
     -1261.2344       -982.7804         48.5004         37.2504
   2582340.22249   2000806.45246  24129670.7274   24129667.2734
     -1758.7194      -1370.4304         44.7504         24.5004
  -3841940.25049  -2985325.85648  20963402.6024   20963397.4964
      2759.1564       2149.9924         51.2504         43.0004
  -5113133.63349  -3977624.48047  22740076.1334   22740074.5474
      3904.9064       3042.7844         44.0004         30.7504
   1283731.25349    988312.72348  21119866.2814   21119861.8244
     -1038.6094       -809.3064         54.0004         43.5004
   2003579.98249   1546850.38447  22758905.8284   22758903.1914
     -1313.6414      -1023.6164         44.2504         31.7504
 01  7  3  0 53 30.0000000  0  7G 1G11G14G20G22G25G29
  -3440959.14949  -2674166.40847  22376883.9304   22376880.6134
      2527.1254       1969.1884         49.2504         34.7504
   1573299.63549   1214856.12947  21926634.8284   21926630.7464
     -1270.0314       -989.6354         47.7504         37.0004
   2635037.97449   2041869.59246  24139697.8054   24139695.8794
     -1754.5164      -1367.1554         43.0004         23.2504
  -3924622.69749  -3049753.72148  20947668.4224   20947663.5204
      2753.0004       2145.1954         51.5004         42.7504
  -5230263.52149  -4068894.35747  22717786.3054   22717785.2624
      3903.7814       3041.9074         43.5004         30.5004
   1314998.39849   1012676.71948  21125816.3444   21125811.5704
     -1045.8594       -814.9554         54.0004         43.5004
   2042948.38949   1577527.00247  22766398.3594   22766395.7504
     -1311.0314      -1021.5834         44.5004         31.7504
 01  7  3  0 54  0.0000000  0  7G 1G11G14G20G22G25G29
  -3516774.97349  -2733243.59947  22362456.7894   22362453.7344
      2527.1414       1969.2004         49.0004         34.7504
   1611534.41249   1244649.41347  21933910.5944   21933906.8524
     -1279.0004       -996.6234         48.2504         36.5004
   2687611.13049   2082835.56546  24149703.2194   24149700.0004
     -1750.5314      -1364.0504         44.0004         22.7504
  -4007118.07049  -3114035.80148  20931970.2344   20931965.1724
      2746.6094       2140.2154         51.0004         43.2504
  -5347358.58749  -4160137.12847  22695503.7114   22695502.0634
      3902.5314       3040.9334         42.0004         30.0004
   1346486.25349   1037212.69448  21131808.1254   21131803.6294
     -1053.4374       -820.8604         53.2504         43.7504
   2082242.05249   1608145.39747  22773874.9694   22773871.8404
     -1308.7504      -1019.8054         44.5004         32.0004
 01  7  3  0 54 30.0000000  0  7G 1G11G14G20G22G25G29
  -3592595.05349  -2792324.13247  22348028.6024   22348025.6334
      2527.5004       1969.4814         49.5004         35.2504
   1650031.79449   1274647.33147  21941236.6414   21941232.9534
     -1287.4844      -1003.2354         48.2504         37.2504
   2740060.36149   2123705.06046  24159683.6174   24159679.8404
     -1746.0624      -1360.5684         45.0004         22.2504
  -4089423.19749  -3178169.64048  20916308.0634   20916303.0274
      2740.4384       2135.4064         52.2504         43.5004
  -5464413.99549  -4251348.98947  22673229.0084   22673226.9574
      3901.2504       3039.9354         42.7504         30.5004
   1378193.61749   1061919.72548  21137841.9534   21137837.4694
     -1060.4694       -826.3394         53.5004         44.0004
   2121461.71849   1638706.12247  22781339.0784   22781335.7734
     -1306.0164      -1017.6754         45.0004         31.5004
 01  7  3  0 55  0.0000000  0  7G 1G11G14G20G22G25G29
  -3668421.02049  -2851409.21347  22333599.2974   22333596.5514
      2527.5474       1969.5174         49.2504         35.2504
   1688788.21149   1304847.07547  21948611.7974   21948608.0944
     -1296.2664      -1010.0774         46.5004         36.5004
   2792384.39249   2164476.92846  24169639.9534   24169638.1564
     -1742.1414      -1357.5124         44.0004         24.5004
  -4171537.00549  -3242154.40648  20900682.3594   20900677.3054
      2733.8134       2130.2444         51.0004         43.2504
  -5581427.46449  -4342528.15247  22650961.3284   22650960.1604
      3899.5784       3038.6324         42.2504         30.5004
   1410117.49649   1086795.45948  21143916.8204   21143912.1334
     -1067.7814       -832.0374         53.7504         43.0004
   2160606.21349   1669208.25347  22788787.7894   22788784.8634
     -1303.6254      -1015.8124         42.5004         31.5004
 01  7  3  0 55 30.0000000  0  7G 1G11G14G20G22G25G29
  -3744246.09349  -2910493.62547  22319170.1954   22319166.9574
      2527.3914       1969.3954         48.7504         35.0004
   1727808.21149   1335252.22347  21956037.1724   21956033.7664
     -1305.0944      -1016.9564         47.2504         36.7504
   2844590.20649   2205156.65446  24179574.0864   24179573.0864
     -1738.3914      -1354.5904         42.5004         24.0004
  -4253450.24549  -3305982.87148  20885094.7274   20885089.9064
      2726.9534       2124.8994         52.0004         43.7504
  -5698388.74649  -4433666.69347  22628705.2034   22628703.2584
      3897.6564       3037.1354         43.7504         31.0004
   1442262.51949   1111843.52848  21150033.7274   21150029.0274
     -1075.2814       -837.8814         54.0004         43.5004
   2199682.45749   1699657.23347  22796223.5554   22796220.5004
     -1301.5944      -1014.2294         44.0004         31.0004
 01  7  3  0 56  0.0000000  0  7G 1G11G14G20G22G25G29
  -3820066.92149  -2969574.72847  22304741.8134   22304738.9454
      2527.2344       1969.2744         49.2504         35.7504
   1767092.59849   1365863.37747  21963512.3834   21963509.0744
     -1313.8754      -1023.7994         47.5004         36.5004
   2896681.11749   2245746.90746  24189488.2034   24189484.6214
     -1734.5474      -1351.5954         43.0004         22.7504
  -4335157.21949  -3369650.62048  20869546.4304   20869541.3244
      2720.1254       2119.5784         52.2504         43.2504
  -5815291.68749  -4524759.74247  22606458.5394   22606456.8754
      3895.8284       3035.7104         44.2504         30.7504
   1474630.29549   1137065.15248  21156193.0554   21156188.1254
     -1082.6414       -843.6164         53.2504         43.5004
   2238693.90349   1730055.70447  22803647.3914   22803644.1374
     -1299.3444      -1012.4764         44.0004         30.2504
 01  7  3  0 56 30.0000000  0  7G 1G11G14G20G22G25G29
  -3895883.79549  -3028652.73947  22290314.4384   22290311.4224
      2527.2194       1969.2614         49.5004         35.2504
   1806638.64449   1396678.42147  21971038.1804   21971034.5634
     -1322.4844      -1030.5074         47.0004         36.7504
   2948657.06949   2286247.53046  24199377.1334   24199375.7934
     -1730.5784      -1348.5024         42.0004         22.5004
  -4416655.63349  -3433155.85748  20854037.9064   20854033.2074
      2713.1254       2114.1234         52.5004         43.2504
  -5932132.58849  -4615804.46647  22584225.2814   22584222.4694
      3893.6414       3034.0064         44.5004         31.0004
   1507218.87149   1162458.82548  21162394.5864   21162389.4454
     -1089.8914       -849.2654         52.5004         43.5004
   2277640.69549   1760403.79547  22811058.5944   22811056.0824
     -1297.1564      -1010.7714         43.7504         30.7504
 01  7  3  0 57  0.0000000  0  7G 1G11G14G20G22G25G29
  -3971695.00349  -3087726.35947  22275888.2894   22275885.4654
      2526.9064       1969.0184         49.0004         35.2504
   1846445.86949   1427696.98047  21978613.2274   21978609.5234
     -1331.2504      -1037.3384         48.2504         36.0004
   3000520.07749   2326660.19046  24209247.2894   24209245.4344
     -1726.9844      -1345.7024         42.7504         22.7504
  -4497941.30449  -3496495.31948  20838569.6024   20838564.7304
      2705.9224       2108.5114         52.7504         43.5004
  -6048905.80949  -4706796.45447  22562003.5634   22562001.4384
      3891.1724       3032.0824         46.0004         31.2504
   1540027.77349   1188024.18248  21168638.0704   21168633.3444
     -1097.3594       -855.0854         53.2504         43.2504
   2316524.48049   1790702.80447  22818459.3834   22818455.2854
     -1295.2194      -1009.2614         43.7504         30.5004
 01  7  3  0 57 30.0000000  0  7G 1G11G14G20G22G25G29
  -4047499.14749  -3146794.46747  22261462.9454   22261459.9104
      2526.6724       1968.8354         48.5004         35.2504
   1886513.17349   1458918.20547  21986238.1414   21986234.3484
     -1339.9224      -1044.0954         46.0004         36.2504
   3052271.61349   2366985.97246  24219095.1024   24219093.0314
     -1723.2194      -1342.7684         42.2504         22.5004
  -4579010.60649  -3559666.17848  20823142.6254   20823137.7664
      2698.6884       2102.8734         52.0004         43.5004
  -6165606.34349  -4797731.79247  22539795.1414   22539793.8714
      3888.7194       3030.1704         44.7504         31.0004
   1573056.75249   1213761.02548  21174923.1174   21174918.5634
     -1104.6414       -860.7594         53.5004         43.2504
   2355346.89249   1820953.98247  22825845.8914   22825842.6724
     -1293.0944      -1007.6064         44.2504         30.5004
 01  7  3  0 58  0.0000000  0  7G 1G11G14G20G22G25G29
  -4123296.35249  -3205857.16847  22247039.2194   22247036.1454
      2526.4844       1968.6894         49.5004         35.2504
   1926838.07349   1490340.13247  21993911.6334   21993907.7934
     -1348.4844      -1050.7674         47.7504         36.0004
   3103911.65149   2407224.86246  24228921.9694   24228919.6414
     -1719.4064      -1339.7974         41.7504         22.0004
  -4659861.04149  -3622666.48648  20807757.1884   20807752.0514
      2691.3444       2097.1514         53.0004         43.5004
  -6282231.19149  -4888608.18147  22517602.8444   22517600.9414
      3886.2194       3028.2224         45.2504         31.5004
   1606303.75649   1239667.76148  21181249.6024   21181245.1294
     -1111.7344       -866.2874         53.5004         42.7504
   2394108.07649   1851157.44047  22833221.7274   22833219.0234
     -1291.0314      -1005.9984         44.0004         29.7504
 01  7  3  0 58 30.0000000  0  7G 1G11G14G20G22G25G29
  -4199084.48549  -3264912.78847  22232617.1884   22232613.9694
      2526.1724       1968.4464         49.0004         35.5004
   1967420.27249   1521962.56047  22001633.7814   22001630.2384
     -1356.9224      -1057.3424         48.5004         37.0004
   3155442.72049   2447378.87346  24238729.0394   24238726.4494
     -1715.7974      -1336.9854         42.0004         22.5004
  -4740487.83649  -3685492.53048  20792414.2734   20792409.1484
      2683.8914       2091.3434         52.2504         43.7504
  -6398774.74349  -4979421.18447  22495425.0394   22495423.7504
      3883.3594       3025.9944         46.0004         31.0004
   1639769.17649   1265744.68948  21187618.0084   21187613.3134
     -1119.0624       -871.9974         53.0004         43.0004
   2432810.48749   1881315.10147  22840586.0554   22840583.7154
     -1289.0944      -1004.4894         43.0004         30.0004
 01  7  3  0 59  0.0000000  0  7G 1G11G14G20G22G25G29
  -4274862.18049  -3323960.28247  22218196.8674   22218194.1844
      2525.7194       1968.0934         48.2504         34.7504
   2008258.86249   1553784.77547  22009405.2734   22009401.6294
     -1365.5164      -1064.0384         47.5004         36.0004
   3206866.47049   2487449.18046  24248513.1564   24248512.0434
     -1712.4534      -1334.3794         42.0004         22.7504
  -4820887.37849  -3748141.49948  20777115.1024   20777109.6294
      2676.1564       2085.3174         52.7504         43.7504
  -6515231.52749  -5070166.61947  22473264.3444   22473262.5004
      3880.4224       3023.7054         45.5004         32.2504
   1673452.82149   1291991.66348  21194027.7344   21194023.2544
     -1126.3914       -877.7074         53.0004         43.0004
   2471455.75349   1911428.25347  22847940.6414   22847937.5594
     -1287.2194      -1003.0284         43.7504         30.5004
 01  7  3  0 59 30.0000000  0  7G 1G11G14G20G22G25G29
  -4350626.48549  -3382997.33947  22203779.3284   22203776.5204
      2525.2344       1967.7154         49.2504         35.5004
   2049354.35049   1585807.17347  22017225.8364   22017221.9774
     -1374.1094      -1070.7354         46.5004         36.5004
   3258185.93849   2527438.25146  24258278.6804   24258277.9144
     -1708.9374      -1331.6404         40.5004         21.7504
  -4901054.14649  -3810609.08448  20761859.9144   20761854.7234
      2668.2974       2079.1924         52.5004         44.0004
  -6631594.71349  -5160839.11247  22451121.4384   22451118.6294
      3877.1414       3021.1494         45.5004         31.7504
   1707355.63449   1318409.42248  21200479.5164   21200474.9454
     -1133.7194       -883.4174         53.2504         43.0004
   2510047.05349   1941499.33547  22855284.1804   22855281.8014
     -1285.4694      -1001.6644         42.2504         29.7504
 01  7  3  1  0  0.0000000  0  7G 1G11G14G20G22G25G29
  -4426376.06149  -3442022.93547  22189365.2504   22189361.7934
      2524.7194       1967.3134         50.0004         36.0004
   2090705.44349   1618028.74347  22025094.4454   22025090.8794
     -1382.6414      -1077.3824         47.5004         36.0004
   3309402.57549   2567347.26246  24268026.9534   24268024.2424
     -1705.5004      -1328.9614         42.2504         22.2504
  -4980984.53749  -3872892.48848  20746649.5314   20746643.8794
      2660.3754       2073.0194         52.2504         43.7504
  -6747859.84149  -5251435.20347  22428996.0164   22428993.3754
      3873.8134       3018.5554         45.7504         31.5004
   1741476.61349   1344997.16248  21206972.5474   21206967.8284
     -1141.0314       -889.1154         52.2504         43.0004
   2548585.69049   1971529.37947  22862618.1564   22862614.9344
     -1283.8754      -1000.4224         43.0004         30.0004
 01  7  3  1  0 29.9990000  0  7G 1G11G14G20G22G25G29
  -4502109.82349  -3501036.18347  22174952.9954   22174949.7614
      2524.4224       1967.0824         49.0004         35.5004
   2132306.81649   1650445.33047  22033010.8234   22033007.4334
     -1390.7664      -1083.7134         48.0004         36.0004
   3360513.59549   2607173.99146  24277753.0114   24277749.9524
     -1701.8284      -1326.1004         43.0004         22.7504
  -5060674.72149  -3934988.70548  20731484.7614   20731479.9254
      2652.5474       2066.9204         52.7504         44.0004
  -6864021.21249  -5341950.42847  22406891.1754   22406888.7924
      3870.5784       3016.0354         45.5004         31.0004
   1775811.41249   1371751.53348  21213506.2694   21213501.5694
     -1147.9844       -894.5334         53.5004         43.0004
   2587069.44049   2001516.65447  22869941.8784   22869938.5624
     -1281.7504       -998.7664         43.7504         29.7504
 01  7  3  1  0 59.9990000  0  7G 1G11G14G20G22G25G29
  -4577833.79549  -3560041.81747  22160543.2224   22160539.7724
      2523.9064       1966.6804         49.5004         35.5004
   2174157.67049   1683056.32547  22040974.8554   22040971.8704
     -1399.1564      -1090.2524         48.2504         36.0004
   3411521.29749   2646920.16446  24287459.1984   24287457.8314
     -1698.5474      -1323.5434         43.0004         25.0004
  -5140128.66149  -3996900.84548  20716365.2064   20716360.0504
      2644.3914       2060.5644         53.0004         44.0004
  -6980083.99949  -5432388.83147  22384805.0814   22384802.9294
      3867.0004       3013.2474         44.5004         31.7504
   1810359.50049   1398672.10948  21220080.6124   21220075.7374
     -1155.1254       -900.0974         53.5004         43.0004
   2625499.94849   2031462.45647  22877254.4644   22877252.2574
     -1280.1724       -997.5374         45.7504         30.5004
 01  7  3  1  1 29.9990000  0  7G 1G11G14G20G22G25G29
  -4653538.48949  -3619032.43047  22146137.1674   22146134.3514
      2523.1564       1966.0964         49.2504         36.0004
   2216261.27149   1715864.26647  22048987.0584   22048983.7374
     -1407.6874      -1096.8994         45.5004         36.0004
   3462431.28149   2686590.21846  24297147.3864   24297144.8514
     -1695.3594      -1321.0594         43.2504         21.7504
  -5219334.42449  -4058619.59448  20701292.9094   20701288.0814
      2636.0784       2054.0874         53.0004         44.0004
  -7096033.23149  -5522738.75047  22362740.6834   22362738.6244
      3863.0944       3010.2034         44.0004         31.5004
   1845124.94449   1425762.03848  21226696.2764   21226691.4804
     -1162.4064       -905.7714         53.0004         42.5004
   2663883.06749   2061371.31147  22884558.5194   22884555.7694
     -1278.6254       -996.3314         44.0004         28.0004
 01  7  3  1  1 59.9990000  0  7G 1G11G14G20G22G25G29
  -4729226.74649  -3678010.25247  22131733.7614   22131730.7534
      2522.7974       1965.8164         48.2504         36.0004
   2258612.21349   1748864.92647  22057046.3394   22057042.9994
     -1415.7194      -1103.1574         46.2504         35.7504
   3513240.89749   2726182.04846  24306816.6284   24306813.4334
     -1691.9064      -1318.3694         44.2504         22.5004
  -5298292.31049  -4120145.20648  20686267.8154   20686262.8554
      2627.7664       2047.6104         52.5004         44.2504
  -7211868.12849  -5612999.58547  22340698.6514   22340696.4954
      3859.2194       3007.1834         45.0004         32.5004
   1880103.23049   1453017.82248  21233352.2304   21233347.5114
     -1169.4374       -911.2504         52.5004         42.7504
   2702216.27049   2091241.28347  22891852.8554   22891850.5304
     -1276.8444       -994.9434         45.5004         29.5004
 01  7  3  1  2 29.9990000  0  7G 1G11G14G20G22G25G29
  -4804894.84849  -3736972.35847  22117334.8624   22117331.4254
      2521.8754       1965.0974         47.0004         35.2504
   2301211.78949   1782059.33047  22065152.5034   22065149.4994
     -1424.1254      -1109.7084         47.0004         35.7504
   3563954.06549   2765698.70346  24316465.6904   24316464.6284
     -1688.8124      -1315.9584         43.0004         24.0004
  -5376995.94849  -4181472.69748  20671290.8154   20671285.6674
      2619.1724       2040.9134         52.0004         44.0004
  -7327581.69349  -5703165.86247  22318678.7374   22318676.9214
      3855.0004       3003.8964         44.5004         33.2504
   1915296.27749   1480440.95748  21240049.4804   21240044.4484
     -1176.6564       -916.8754         52.2504         42.5004
   2740503.63949   2121075.53347  22899139.0974   22899136.7064
     -1275.5474       -993.9334         46.0004         29.7504
 01  7  3  1  2 59.9990000  0  7G 1G11G14G20G22G25G29
  -4880540.57149  -3795917.03247  22102939.9254   22102936.7574
      2521.0164       1964.4284         46.0004         36.0004
   2344059.67549   1815447.21947  22073306.5194   22073303.0384
     -1432.4534      -1116.1974         46.2504         35.7504
   3614573.39349   2805142.19346  24326098.0974   24326097.5074
     -1685.8594      -1313.6574         41.2504         22.0004
  -5455440.94349  -4242598.64948  20656363.1834   20656357.5814
      2610.3444       2034.0344         51.7504         44.2504
  -7443168.50449  -5793233.41347  22296683.0114   22296681.1754
      3850.5944       3000.4634         44.2504         33.5004
   1950704.10949   1508031.44348  21246787.6984   21246782.8944
     -1183.9534       -922.5614         52.5004         42.5004
   2778747.64949   2150876.00347  22906416.7764   22906413.8234
     -1274.2034       -992.8864         46.2504         30.5004
 01  7  3  1  3 29.9990000  0  7G 1G11G14G20G22G25G29
  -4956163.91649  -3854844.25647  22088549.3784   22088545.8554
      2520.4384       1963.9774         48.2504         35.7504
   2387153.44649   1849026.72047  22081506.7694   22081503.5544
     -1440.5004      -1122.4684         47.2504         35.5004
   3665098.85449   2844512.63446  24335713.7304   24335711.4374
     -1682.6254      -1311.1364         43.0004         21.5004
  -5533624.96149  -4303521.23748  20641485.0814   20641480.1284
      2601.7814       2027.3624         54.2504         44.0004
  -7558624.57949  -5883199.07347  22274712.8314   22274710.6944
      3846.3594       2997.1634         46.0004         33.0004
   1986324.69849   1535787.73548  21253565.8474   21253561.4334
     -1190.8914       -927.9674         52.0004         42.7504
   2816948.51249   2180642.83947  22913686.3704   22913683.3314
     -1272.6724       -991.6924         45.2504         29.2504
 01  7  3  1  3 59.9990000  0  7G 1G11G14G20G22G25G29
  -5031762.54449  -3913752.24347  22074163.2534   22074159.6164
      2519.6724       1963.3814         47.0004         36.7504
   2430492.86149   1882797.62447  22089754.1364   22089750.1164
     -1448.6094      -1128.7874         45.2504         35.5004
   3715533.15549   2883811.98546  24345310.2844   24345309.2104
     -1679.5004      -1308.7014         41.5004         21.5004
  -5611542.98349  -4364236.56748  20626658.0344   20626652.9644
      2592.8914       2020.4344         51.5004         44.2504
  -7673943.73249  -5973058.02647  22252767.3474   22252765.5894
      3841.7194       2993.5474         44.2504         33.2504
   2022158.70749   1563710.30748  21260384.7454   21260380.4134
     -1197.9224       -933.4464         52.5004         42.2504
   2855108.62149   2210377.95347  22920948.0814   22920945.4684
     -1271.2034       -990.5484         45.2504         30.2504
 01  7  3  1  4 29.9990000  0  7G 1G11G14G20G22G25G29
  -5107338.61649  -3972642.64647  22059781.5734   22059778.5934
      2518.7664       1962.6754         48.5004         36.2504
   2474072.86149   1916756.00847  22098047.4644   22098043.9294
     -1456.6564      -1135.0574         46.5004         34.7504
   3765874.04049   2923038.55046  24354890.4804   24354889.0304
     -1676.4374      -1306.3154         42.2504         22.5004
  -5689195.00949  -4424744.61648  20611881.4254   20611876.0424
      2583.9534       2013.4704         53.5004         44.7504
  -7789124.68249  -6062809.30247  22230849.6204   22230847.1324
      3836.9534       2989.8344         44.7504         33.0004
   2058201.83449   1591795.84148  21267243.6204   21267238.7184
     -1204.9534       -938.9254         50.5004         42.0004
   2893226.21449   2240079.91047  22928201.7144   22928198.1364
     -1269.8754       -989.5134         42.0004         30.0004
 01  7  3  1  4 59.9990000  0  7G 1G11G14G20G22G25G29
  -5182885.29249  -4031510.13547  22045405.8394   22045402.4994
      2517.7034       1961.8474         48.0004         36.5004
   2517897.95649   1950905.35947  22106387.1204   22106383.4684
     -1464.8914      -1141.4734         46.7504         35.5004
   3816128.44149   2962197.75146  24364455.3234   24364452.7334
     -1673.6564      -1304.1484         44.5004         22.7504
  -5766571.82249  -4485038.22348  20597156.9484   20597151.8624
      2574.5784       2006.1654         53.2504         44.0004
  -7904157.61449  -6152445.24747  22208959.5194   22208956.9014
      3831.9694       2985.9504         44.2504         33.5004
   2094459.47749   1620048.53648  21274143.1754   21274138.7574
     -1212.1874       -944.5624         50.7504         42.5004
   2931308.23649   2269754.15547  22935448.5734   22935445.7924
     -1268.7974       -988.6734         44.5004         30.7504
 01  7  3  1  5 29.9990000  0  7G 1G11G14G20G22G25G29
  -5258404.95349  -4090356.60547  22031034.6674   22031031.1324
      2516.6254       1961.0064         44.7504         37.0004
   2561962.91849   1985241.63047  22114772.7454   22114769.4404
     -1473.0004      -1147.7924         47.0004         35.0004
   3866294.47849   3001288.02846  24374000.7304   24373998.1444
     -1670.8594      -1301.9684         42.7504         21.5004
  -5843673.26449  -4545117.24148  20582484.9564   20582479.7534
      2565.2814       1998.9204         50.7504         44.7504
  -8019041.30249  -6241964.88047  22187096.7144   22187094.6014
      3826.7194       2981.8594         45.0004         33.7504
   2130926.96849   1648464.73748  21281082.7304   21281078.1244
     -1219.1724       -950.0044         51.5004         42.5004
   2969352.43849   2299398.94547  22942688.2454   22942684.6714
     -1267.7664       -987.8694         45.5004         29.7504
 01  7  3  1  5 59.9990000  0  7G 1G11G14G20G22G25G29
  -5333892.13549  -4149177.72947  22016670.0734   22016666.2764
      2515.7344       1960.3134         49.0004         36.5004
   2606270.83549   2019767.20547  22123203.7764   22123200.9954
     -1480.9064      -1153.9534         46.0004         35.0004
   3916377.76649   3040313.86046  24383531.8554   24383528.3274
     -1667.9224      -1299.6794         43.0004         21.2504
  -5920491.65249  -4604975.71048  20567867.1444   20567862.0734
      2555.9844       1991.6764         52.0004         44.5004
  -8133766.16049  -6331360.77547  22165266.0424   22165262.9564
      3821.5314       2977.8174         45.0004         33.0004
   2167607.50749   1677046.95448  21288062.6124   21288058.1084
     -1226.1414       -955.4344         51.5004         42.0004
   3007364.69249   2329018.82147  22949921.5344   22949919.7064
     -1266.4374       -986.8344         45.7504         30.0004
 01  7  3  1  6 29.9990000  0  7G 1G11G14G20G22G25G29
  -5409351.23549  -4207976.98147  22002310.5034   22002306.9604
      2514.7974       1959.5824         50.0004         36.5004
   2650814.79249   2054476.70747  22131680.5504   22131676.9644
     -1488.6094      -1159.9554         47.2504         34.5004
   3966374.24149   3079272.07346  24393044.1594   24393042.9954
     -1665.1724      -1297.5374         42.2504         23.0004
  -5997028.78749  -4664615.01548  20553302.4724   20553296.7494
      2546.5164       1984.2984         53.7504         44.5004
  -8248332.85749  -6420633.41447  22143464.0424   22143461.4094
      3816.2034       2973.6654         44.2504         33.0004
   2204495.19849   1705790.58348  21295082.0654   21295077.6754
     -1233.0474       -960.8164         51.0004         42.0004
   3045341.15749   2358610.81247  22957147.9724   22957145.0734
     -1265.2504       -985.9094         44.7504         30.2504
 01  7  3  1  6 59.9990000  0  7G 1G11G14G20G22G25G29
  -5484779.37149  -4266752.11647  21987956.9874   21987953.2494
      2513.7664       1958.7784         48.7504         36.7504
   2695594.97549   2089370.28647  22140201.7844   22140198.5624
     -1496.5784      -1166.1654         46.7504         34.0004
   4016286.97549   3118165.01346  24402543.1834   24402541.2614
     -1662.3914      -1295.3694         42.5004         21.2504
  -6073279.59049  -4724031.20948  20538792.0654   20538786.8704
      2536.8914       1976.7984         52.5004         44.2504
  -8362735.38749  -6509778.14047  22121694.0654   22121691.1124
      3810.5634       2969.2694         44.0004         32.5004
   2241591.29649   1734696.60748  21302141.5034   21302136.5774
     -1239.9694       -966.2094         51.0004         42.2504
   3083284.51649   2388177.00947  22964368.2694   22964366.0424
     -1264.2664       -985.1424         44.5004         29.5004
 01  7  3  1  7 29.9990000  0  7G 1G11G14G20G22G25G29
  -5560176.48149  -4325503.06847  21973609.3234   21973606.1444
      2512.6414       1957.9024         49.7504         36.5004
   2740608.75249   2124445.88247  22148768.0194   22148764.2654
     -1504.4534      -1172.3014         46.7504         34.2504
   4066115.95549   3156992.73746  24412024.1514   24412023.4014
     -1659.5164      -1293.1294         40.5004         20.2504
  -6149241.75449  -4783222.47248  20524337.2764   20524332.0894
      2527.1884       1969.2374         53.0004         44.5004
  -8476970.63049  -6598792.53047  22099956.4014   22099952.9484
      3804.9064       2964.8624         46.5004         33.5004
   2278893.94849   1763763.59248  21309239.7614   21309235.4804
     -1246.9224       -971.6274         51.5004         42.5004
   3121195.16849   2417717.70147  22971583.3154   22971580.1794
     -1263.2344       -984.3384         45.2504         30.5004
 01  7  3  1  7 59.9990000  0  7G 1G11G14G20G22G25G29
  -5635539.99849  -4384227.84047  21959268.0034   21959264.7224
      2511.6094       1957.0984         48.5004         37.0004
   2785856.11149   2159703.50047  22157378.6204   22157375.0464
     -1512.0624      -1178.2314         45.5004         34.7504
   4115864.26049   3195757.50246  24421490.6754   24421491.1634
     -1656.8284      -1291.0354         41.2504         20.5004
  -6224910.36349  -4842185.00948  20509937.9014   20509932.9254
      2517.4534       1961.6524         52.5004         44.5004
  -8591032.11049  -6687671.48447  22078250.7454   22078248.1204
      3799.1094       2960.3454         45.7504         34.0004
   2316403.29049   1792991.62148  21316377.5974   21316373.2574
     -1253.6724       -976.8874         52.0004         42.5004
   3159075.90049   2447235.10947  22978790.8944   22978789.2264
     -1262.1254       -983.4744         44.5004         29.0004
 01  7  3  1  8 29.9990000  0  7G 1G11G14G20G22G25G29
  -5710868.26149  -4442925.16847  21944933.1904   21944930.1474
      2510.3444       1956.1124         48.5004         37.7504
   2831336.06449   2195142.35547  22166033.0424   22166029.3584
     -1519.8444      -1184.2944         45.7504         34.7504
   4165533.58249   3234460.81546  24430943.3314   24430942.0854
     -1654.3594      -1289.1114         42.0004         21.7504
  -6300281.20249  -4900915.51448  20495595.1124   20495590.3704
      2507.3754       1953.7994         52.5004         45.2504
  -8704914.14249  -6776410.64647  22056578.7064   22056577.5584
      3793.0164       2955.5974         44.2504         33.7504
   2354119.22549   1822380.64748  21323554.9404   21323549.9524
     -1260.5624       -982.2564         51.7504         42.0004
   3196928.69349   2476730.72147  22985994.6444   22985991.7924
     -1261.3444       -982.8654         45.5004         29.7504
 01  7  3  1  8 59.9990000  0  7G 1G11G14G20G22G25G29
  -5786161.09549  -4501594.86847  21930605.4404   21930602.1404
      2509.3594       1955.3454         47.7504         37.0004
   2877046.25149   2230760.60447  22174731.1444   22174727.8044
     -1527.3444      -1190.1384         45.5004         34.0004
   4215124.30649   3273102.82246  24440379.8474   24440378.4764
     -1651.5624      -1286.9324         41.0004         20.5004
  -6375351.76649  -4959412.02748  20481310.0504   20481304.5114
      2497.4224       1946.0434         53.5004         44.7504
  -8818613.08649  -6865007.12247  22034943.3554   22034940.6054
      3787.0164       2950.9214         44.0004         33.5004
   2392040.34849   1851929.54948  21330771.1754   21330766.7374
     -1267.3124       -987.5164         51.0004         42.0004
   3234754.03449   2506204.94647  22993192.3944   22993190.6554
     -1260.2814       -982.0374         43.7504         29.5004
 01  7  3  1  9 29.9990000  0  7G 1G11G14G20G22G25G29
  -5861418.44949  -4560236.91347  21916284.3624   21916280.6834
      2508.0784       1954.3474         48.0004         37.0004
   2922983.90149   2266556.10347  22183472.9954   22183468.9484
     -1534.9374      -1196.0554         46.2504         34.2504
   4264636.77649   3311683.89346  24449801.8784   24449801.5654
     -1649.0004      -1284.9354         40.7504         22.7504
  -6450119.53349  -5017672.61748  20467082.3314   20467076.6404
      2487.2194       1938.0934         52.5004         45.5004
  -8932125.87849  -6953458.56047  22013342.9014   22013340.1324
      3780.6884       2945.9904         46.0004         34.5004
   2430164.36149   1881636.54648  21338025.9724   21338021.5624
     -1274.0624       -992.7764         51.5004         42.2504
   3272552.33349   2535658.10747  23000384.9644   23000382.7884
     -1259.4694       -981.4044         43.7504         28.5004
 01  7  3  1  9 59.9990000  0  7G 1G11G14G20G22G25G29
  -5936640.23649  -4618851.24047  21901970.0264   21901967.3944
      2506.7194       1953.2874         48.2504         37.2504
   2969146.47749   2302526.86447  22192257.5344   22192254.3664
     -1542.5314      -1201.9724         45.5004         34.0004
   4314071.43149   3350204.22546  24459210.0894   24459208.8624
     -1646.6254      -1283.0844         42.0004         21.5004
  -6524582.29849  -5075695.52648  20452912.2534   20452906.8194
      2476.8914       1930.0454         53.2504         44.7504
  -9045448.88849  -7041762.08447  21991778.0734   21991775.3554
      3774.1414       2940.8894         46.5004         33.7504
   2468489.34449   1911500.14248  21345318.7454   21345314.1594
     -1280.9224       -998.1214         51.2504         42.0004
   3310323.91149   2565090.44847  23007573.1284   23007570.7184
     -1258.7974       -980.8814         44.2504         29.2504
 01  7  3  1 10 29.9990000  0  7G 1G11G14G20G22G25G29
  -6011822.24949  -4677434.58347  21887663.4094   21887660.6054
      2505.3134       1952.1924         48.5004         37.5004
   3015535.40549   2338674.00747  22201084.9724   22201081.8354
     -1550.1564      -1207.9144         46.0004         34.5004
   4363432.44349   3388667.25246  24468603.2144   24468601.1714
     -1644.2344      -1281.2224         41.5004         21.0004
  -6598733.65449  -5133475.79548  20438801.7924   20438796.4524
      2466.3594       1921.8384         52.7504         44.7504
  -9158574.20049  -7129911.58847  21970251.0654   21970248.7104
      3767.3914       2935.6294         46.2504         34.5004
   2507017.70849   1941522.21748  21352650.5584   21352645.7454
     -1287.7814      -1003.4664         52.0004         41.7504
   3348073.01549   2594505.27447  23014756.1674   23014754.0194
     -1258.0164       -980.2724         43.7504         29.0004
 01  7  3  1 10 59.9990000  0  7G 1G11G14G20G22G25G29
  -6086959.03149  -4735982.65847  21873365.4564   21873362.2064
      2503.8754       1951.0714         45.2504         38.2504
   3062153.49049   2374999.72147  22209956.4014   22209953.2724
     -1557.6094      -1213.7224         47.7504         34.7504
   4412725.37949   3427077.20146  24477982.7144   24477982.3474
     -1641.8284      -1279.3474         42.2504         21.7504
  -6672565.98749  -5191007.45448  20424751.8084   20424746.5584
      2455.8134       1913.6204         50.5004         44.7504
  -9271492.52349  -7217899.79447  21948762.7534   21948760.5624
      3760.5314       2930.2844         44.5004         34.0004
   2545752.70649   1971705.32348  21360021.4724   21360016.5264
     -1294.5164      -1008.7134         51.2504         41.7504
   3385805.14549   2623906.84947  23021935.4334   23021934.5384
     -1257.3754       -979.7734         44.5004         28.7504
 01  7  3  1 11 29.9990000  0  7G 1G11G14G20G22G25G29
  -6162056.02149  -4794499.73147  21859075.3084   21859071.9214
      2502.5944       1950.0734         47.7504         38.0004
   3108992.44449   2411497.52347  22218869.7534   22218866.0774
     -1564.9844      -1219.4684         47.0004         33.5004
   4461945.15849   3465430.20446  24487349.9724   24487347.4874
     -1639.3754      -1277.4354         42.0004         19.7504
  -6746082.11949  -5248292.73848  20410762.0114   20410757.0504
      2445.2664       1905.4024         53.2504         44.7504
  -9384206.21249  -7305728.55647  21927314.9724   21927312.2574
      3753.6884       2924.9514         45.2504         34.5004
   2584687.34849   2002043.97248  21367430.1984   21367425.9954
     -1301.1094      -1013.8514         52.0004         42.0004
   3423515.41449   2653291.41147  23029112.6204   23029110.4014
     -1256.6414       -979.2004         45.0004         28.2504
 01  7  3  1 11 59.9990000  0  7G 1G11G14G20G22G25G29
  -6237111.85949  -4852984.73947  21844792.4334   21844789.1904
      2501.1414       1948.9414         48.7504         38.2504
   3156051.13549   2448166.56147  22227824.1364   22227821.3434
     -1572.2504      -1225.1304         46.0004         34.0004
   4511093.29249   3503727.30746  24496700.4564   24496700.2414
     -1637.1094      -1275.6704         37.5004         19.0004
  -6819278.56849  -5305328.92148  20396833.6754   20396828.4834
      2434.5474       1897.0504         53.0004         44.7504
  -9496710.77449  -7393394.36947  21905905.6054   21905902.9804
      3746.6414       2919.4604         46.0004         34.2504
   2623820.64049   2032537.42548  21374877.5584   21374873.2804
     -1307.7504      -1019.0264         51.2504         41.2504
   3461205.38649   2682660.13747  23036285.1904   23036282.3784
     -1256.0624       -978.7504         45.7504         28.0004
 01  7  3  1 12 29.9990000  0  7G 1G11G14G20G22G25G29
  -6312127.09149  -4911438.10647  21830517.4724   21830514.1754
      2499.5784       1947.7234         49.7504         38.0004
   3203326.22949   2485004.21647  22236820.5504   22236817.3554
     -1579.6094      -1230.8644         46.0004         33.5004
   4560169.31349   3541968.25446  24506042.1904   24506041.1244
     -1634.8124      -1273.8804         39.5004         21.5004
  -6892153.46749  -5362114.54648  20382965.3864   20382960.3704
      2423.5944       1888.5154         53.2504         44.7504
  -9609002.97249  -7480894.68947  21884536.4404   21884534.6164
      3739.2664       2913.7134         45.5004         34.0004
   2663150.35749   2063183.94648  21382361.4484   21382357.0384
     -1314.3914      -1024.2004         50.2504         41.2504
   3498874.71649   2712012.77747  23043453.0424   23043451.2494
     -1255.5624       -978.3604         40.5004         29.2504
 01  7  3  1 12 59.9990000  0  7G 1G11G14G20G22G25G29
  -6387095.48449  -4969854.98247  21816250.8154   21816248.1084
      2498.2504       1946.6884         50.0004         37.7504
   3250821.36549   2522013.32247  22245858.8704   22245855.5384
     -1586.7194      -1236.4044         48.0004         33.0004
   4609179.83349   3580158.23146  24515368.3704   24515365.8584
     -1632.5474      -1272.1144         41.5004         21.5004
  -6964698.45949  -5418643.09548  20369160.5894   20369155.6794
      2412.7034       1880.0284         52.7504         45.0004
  -9721072.57949  -7568221.57547  21863210.5654   21863208.2104
      3732.0314       2908.0764         45.0004         34.7504
   2702680.41449   2093986.56148  21389883.9174   21389879.4524
     -1320.8754      -1029.2534         51.2504         40.7504
   3536530.08149   2741354.54647  23050619.3944   23050617.0894
     -1254.8754       -977.8254         45.0004         28.2504
 01  7  3  1 13 29.9990000  0  7G 1G11G14G20G22G25G29
  -6462020.78449  -5028238.26147  21801993.6904   21801990.5114
      2496.6884       1945.4714         48.7504         37.5004
   3298529.78649   2559188.64047  22254937.1284   22254933.9444
     -1593.9224      -1242.0174         46.0004         33.7504
   4658121.36249   3618294.40946  24524681.0114   24524678.4764
     -1630.3914      -1270.4344         37.0004         18.5004
  -7036915.17649  -5474915.85148  20355418.4334   20355413.2884
      2401.6094       1871.3844         53.0004         44.7504
  -9832920.05849  -7655375.37247  21841926.8784   21841924.6714
      3724.3914       2902.1234         46.0004         34.5004
   2742405.10449   2124940.83848  21397443.5034   21397438.7414
     -1327.5164      -1034.4284         51.0004         41.0004
   3574167.77849   2770682.53347  23057781.2304   23057778.3004
     -1254.4374       -977.4844         45.0004         29.0004
 01  7  3  1 13 59.9990000  0  7G 1G11G14G20G22G25G29
  -6536905.60349  -5086590.01147  21787743.4484   21787740.0114
      2495.5784       1944.6064         50.0004         37.7504
   3346446.27949   2596526.07347  22264055.4724   22264052.6754
     -1600.5944      -1247.2164         47.5004         34.2504
   4706991.39149   3656374.74146  24533982.7224   24533980.0264
     -1627.6874      -1268.3284         40.5004         21.5004
  -7108803.76849  -5530932.92648  20341738.4404   20341733.3004
      2390.8754       1863.0194         52.7504         44.7504
  -9944544.91349  -7742355.67447  21820685.1834   21820682.7534
      3717.2034       2896.5224         46.0004         34.5004
   2782319.93549   2156043.27948  21405038.6444   21405034.2764
     -1333.5474      -1039.1274         51.0004         41.2504
   3611785.55949   2799995.01547  23064939.7764   23064937.4444
     -1253.4844       -976.7414         44.7504         27.0004
 01  7  3  1 14 29.9990000  0  7G 1G11G14G20G22G25G29
  -6611744.98349  -5144906.35247  21773501.8554   21773498.0934
      2493.8444       1943.2554         49.7504         37.2504
   3394573.25949   2634027.54547  22273213.8704   22273211.0624
     -1607.7504      -1252.7924         47.0004         33.0004
   4755794.97849   3694403.51246  24543266.8394   24543266.1594
     -1625.8124      -1266.8674         37.5004         19.0004
  -7180356.88449  -5586688.59048  20328122.2614   20328117.2104
      2379.3594       1854.0464         53.0004         45.0004
 -10055938.88849  -7829156.09147  21799487.1284   21799484.9054
      3709.1414       2890.2394         45.5004         35.0004
   2822428.12349   2187296.38048  21412671.1834   21412666.5074
     -1340.1724      -1044.2904         51.0004         41.7504
   3649388.70149   2829296.08647  23072095.4174   23072093.4564
     -1253.1874       -976.5104         44.0004         29.5004
 01  7  3  1 14 59.9990000  0  7G 1G11G14G20G22G25G29
  -6686536.49749  -5203185.39547  21759269.5584   21759266.0424
      2492.3444       1942.0864         50.2504         37.5004
   3442909.99749   2671692.44447  22282412.1284   22282408.7764
     -1614.5944      -1258.1254         45.5004         32.5004
   4804534.59549   3732382.29146  24552541.5894   24552542.6444
     -1623.5164      -1265.0774         38.2504         18.5004
  -7251570.12249  -5642179.40448  20314571.0344   20314565.5424
      2368.2034       1845.3534         52.7504         45.0004
 -10167095.72249  -7915771.73047  21778335.3154   21778332.7454
      3701.3134       2884.1404         46.0004         35.2504
   2862729.96749   2218700.38748  21420340.5264   21420335.8044
     -1346.4844      -1049.2094         51.0004         40.7504
   3686979.75649   2858587.71647  23079248.4724   23079247.2454
     -1252.7344       -976.1574         44.5004         28.7504
 01  7  3  1 15 29.9990000  0  7G 1G11G14G20G22G25G29
  -6761275.60349  -5261423.60947  21745046.9874   21745043.9954
      2490.4694       1940.6254         49.7504         37.2504
   3491458.24549   2709522.16947  22291650.7924   22291647.5224
     -1621.7344      -1263.6894         45.2504         33.5004
   4853215.45449   3770315.35346  24561806.2454   24561805.4294
     -1621.7344      -1263.6894         40.2504         20.5004
  -7322436.77949  -5697400.16448  20301085.3394   20301080.2494
      2356.4384       1836.1854         52.2504         45.0004
 -10278007.19349  -8002196.15847  21757229.1834   21757226.8154
      3692.9064       2877.5894         45.5004         35.5004
   2903228.10349   2250257.35148  21428047.0194   21428042.7104
     -1353.1874      -1054.4324         50.2504         40.5004
   3724563.48149   2887873.67947  23086401.4954   23086397.8514
     -1252.6254       -976.0714         44.5004         29.0004
 01  7  3  1 15 59.9990000  0  7G 1G11G14G20G22G25G29
  -6835969.67249  -5319626.72947  21730833.1364   21730829.5974
      2489.0164       1939.4934         50.7504         37.7504
   3540207.96249   2747508.87747  22300927.6124   22300924.7104
     -1628.3754      -1268.8644         47.0004         33.2504
   4901830.34249   3808196.97946  24571058.3554   24571056.9874
     -1619.3594      -1261.8384         39.7504         18.2504
  -7392961.87149  -5752354.76948  20287664.9954   20287659.8354
      2345.1884       1827.4194         53.7504         45.2504
 -10388677.32149  -8088432.54947  21736169.5114   21736166.5344
      3684.8594       2871.3194         46.0004         35.7504
   2943913.11249   2281959.92248  21435789.0974   21435784.3314
     -1359.2814      -1059.1804         50.7504         40.7504
   3762132.79749   2917148.34147  23093550.3944   23093547.9054
     -1252.1564       -975.7064         43.2504         26.5004
 01  7  3  1 16 29.9990000  0  7G 1G11G14G20G22G25G29
  -6910612.27749  -5377789.74547  21716628.8554   21716625.3474
      2487.2194       1938.0934         50.2504         37.2504
   3589162.60449   2785655.27347  22310243.3784   22310240.1554
     -1635.2814      -1274.2454         45.7504         33.0004
   4950385.74549   3846032.25546  24580297.4564   24580296.7304
     -1617.6094      -1260.4754         38.0004         19.0004
  -7463136.74649  -5807036.47848  20274311.1284   20274306.0224
      2333.3134       1818.1664         53.5004         45.2504
 -10499096.91949  -8174473.70147  21715157.2064   21715154.2104
      3676.4694       2864.7814         46.5004         35.7504
   2984789.54649   2313811.65348  21443567.8474   21443563.2804
     -1365.7034      -1064.1844         51.0004         41.0004
   3799694.42249   2946417.05247  23100698.3474   23100695.4444
     -1251.8914       -975.4994         44.0004         27.0004
 01  7  3  1 16 59.9990000  0  7G 1G11G14G20G22G25G29
  -6985205.95749  -5435914.65147  21702434.0814   21702430.5974
      2485.5784       1936.8144         50.5004         38.0004
   3638316.89149   2823957.22647  22319596.6444   22319594.4724
     -1641.8444      -1279.3594         46.5004         32.7504
   4998879.07149   3883819.19746  24589525.4564   24589524.2104
     -1615.3284      -1258.6974         40.0004         18.2504
  -7532961.86849  -5861445.64548  20261023.6594   20261018.4954
      2321.6254       1809.0584         53.7504         45.2504
 -10609264.87349  -8260318.78547  21694192.7454   21694189.8864
      3667.9694       2858.1574         45.5004         35.2504
   3025852.74149   2345808.91948  21451381.9564   21451377.5034
     -1371.9064      -1069.0184         49.5004         40.5004
   3837245.90349   2975677.87947  23107843.9334   23107842.2494
     -1251.5624       -975.2444         43.7504         27.0004
 01  7  3  1 17 29.9990000  0  7G 1G11G14G20G22G25G29
  -7059750.45449  -5494001.23347  21688248.9174   21688245.7024
      2483.8284       1935.4504         51.0004         37.5004
   3687668.34749   2862412.81847  22328988.4254   22328985.1834
     -1648.3594      -1284.4364         47.0004         32.5004
   5047310.98049   3921558.22746  24598741.9644   24598740.6054
     -1613.4224      -1257.2124         39.7504         18.5004
  -7602434.87549  -5915580.43648  20247803.4174   20247798.3584
      2309.7664       1799.8174         53.0004         45.2504
 -10719176.93849  -8345964.45047  21673276.7224   21673274.3124
      3659.2814       2851.3884         45.7504         36.2504
   3067101.09249   2377950.46248  21459231.2064   21459226.8514
     -1378.1564      -1073.8884         50.0004         40.7504
   3874787.94049   3004931.29847  23114986.8314   23114984.7494
     -1251.3284       -975.0614         44.0004         26.5004
 01  7  3  1 17 59.9990000  0  7G 1G11G14G20G22G25G29
  -7134242.53349  -5552046.97447  21674073.5194   21674070.0424
      2482.0634       1934.0754         50.5004         37.5004
   3737217.46849   2901022.43747  22338417.5034   22338414.4604
     -1654.8914      -1289.5254         48.0004         33.5004
   5095685.06749   3959252.25046  24607948.1514   24607945.3474
     -1611.5164      -1255.7264         40.7504         17.7504
  -7671550.24649  -5969436.54048  20234651.2614   20234646.4254
      2297.8134       1790.5034         54.0004         45.5004
 -10828826.51649  -8431405.62047  21652411.3474   21652408.5974
      3650.5004       2844.5454         45.7504         35.7504
   3108535.48049   2410236.96748  21467115.8704   21467111.6124
     -1384.2814      -1078.6614         50.0004         40.5004
   3912324.12149   3034180.17447  23122131.0504   23122129.4444
     -1251.1094       -974.8904         43.7504         27.0004
 01  7  3  1 18 29.9990000  0  7G 1G11G14G20G22G25G29
  -7208677.21049  -5610047.98247  21659909.0264   21659905.3234
      2480.4064       1932.7844         50.7504         38.5004
   3786966.39049   2939787.73447  22347884.6124   22347881.4054
     -1661.4224      -1294.6144         46.0004         32.2504
   5144006.38449   3996905.16046  24617141.7844   24617141.2764
     -1609.6874      -1254.3024         38.7504         17.2504
  -7740301.01449  -6023008.55348  20221568.6284   20221562.7414
      2285.7974       1781.1404         53.2504         46.0004
 -10938205.54249  -8516635.95947  21631597.4254   21631594.5034
      3641.5634       2837.5814         46.2504         35.5004
   3150159.45049   2442671.19748  21475036.7924   21475032.5464
     -1390.3594      -1083.3974         49.5004         40.5004
   3949859.44449   3063428.40947  23129273.2694   23129271.2374
     -1251.0164       -974.8174         43.7504         27.5004
 01  7  3  1 18 59.9990000  0  7G 1G11G14G20G22G25G29
  -7283057.68149  -5668006.75547  21645755.1364   21645751.5464
      2478.3914       1931.2134         51.0004         38.0004
   3836909.08649   2978704.03647  22357387.9954   22357384.9994
     -1668.0474      -1299.7774         46.0004         32.5004
   5192271.66549   4034514.38246  24626328.7454   24626326.6284
     -1607.9224      -1252.9264         42.2504         21.0004
  -7808687.94449  -6076297.04348  20208554.7694   20208549.7104
      2273.3754       1771.4614         53.7504         45.5004
 -11047314.25649  -8601655.66047  21610834.5584   21610831.7804
      3632.3134       2830.3734         46.5004         36.2504
   3191967.47349   2475248.83748  21482992.8394   21482988.3944
     -1396.7504      -1088.3774         50.0004         41.0004
   3987390.96449   3092673.66547  23136415.7694   23136412.8824
     -1251.0474       -974.8424         43.0004         27.2504
 01  7  3  1 19 29.9990000  0  7G 1G11G14G20G22G25G29
  -7357386.39149  -5725925.18547  21631610.7304   21631607.3584
      2476.6414       1929.8504         50.7504         38.2504
   3887039.91249   3017766.94347  22366927.9644   22366924.9644
     -1674.2504      -1304.6104         46.5004         32.5004
   5240478.94349   4072078.37746  24635498.8004   24635500.1834
     -1606.2194      -1251.5994         38.5004         18.2504
  -7876711.80649  -6129302.63548  20195610.1984   20195604.9014
      2261.2814       1762.0374         54.0004         46.5004
 -11156151.37949  -8686463.74347  21590123.7224   21590120.9834
      3623.2194       2823.2874         46.5004         36.0004
   3233955.08349   2507966.42148  21490982.6514   21490977.9174
     -1402.7194      -1093.0284         50.0004         40.7504
   4024916.53349   3121914.30047  23143557.4484   23143554.2264
     -1250.9064       -974.7324         44.5004         27.0004
 01  7  3  1 19 59.9990000  0  7G 1G11G14G20G22G25G29
  -7431658.58549  -5783799.58747  21617477.2764   21617473.6834
      2474.7504       1928.3774         50.7504         38.2504
   3937361.00249   3056978.07647  22376503.2614   22376500.8004
     -1680.6094      -1309.5664         46.7504         31.5004
   5288633.10349   4109601.02746  24644663.6754   24644663.1874
     -1604.1254      -1249.9684         39.5004         17.7504
  -7944365.41249  -6182019.71348  20182736.2614   20182730.8154
      2248.9844       1752.4554         54.2504         45.5004
 -11264708.35149  -8771053.52847  21569465.5194   21569462.4094
      3613.8754       2816.0064         47.5004         36.5004
   3276125.20449   2540826.22048  21499007.0734   21499002.7804
     -1408.6724      -1097.6664         50.0004         40.7504
   4062440.96849   3151154.01447  23150697.1594   23150695.3944
     -1250.7664       -974.6234         43.7504         26.0004
 01  7  3  1 20 29.9990000  0  7G 1G11G14G20G22G25G29
  -7505872.58549  -5841628.63747  21603354.6054   21603350.9724
      2472.9224       1926.9524         50.5004         38.5004
   3987870.81249   3096336.29647  22386114.8234   22386112.3084
     -1686.6564      -1314.2784         47.2504         32.2504
   5336735.88149   4147083.67546  24653819.2454   24653817.1554
     -1602.4064      -1248.6284         40.7504         18.5004
  -8011645.14749  -6234445.44848  20169933.2534   20169928.0694
      2236.5474       1742.7644         53.7504         45.5004
 -11372980.37749  -8855421.25947  21548861.7304   21548858.9684
      3604.3444       2808.5804         46.5004         36.2504
   3318477.04049   2573827.61748  21507066.3474   21507061.8314
     -1414.6414      -1102.3174         49.5004         40.2504
   4099966.32049   3180394.48147  23157837.4644   23157836.4484
     -1250.8754       -974.7084         43.5004         27.0004
 01  7  3  1 20 59.9990000  0  8G 1G11G14G20G13G22G25G29
  -7580026.70349  -5899411.03147  21589243.6444   21589240.0584
      2470.8284       1925.3214         51.0004         38.0004
   4038568.69249   3135841.03047  22395762.7454   22395760.0544
     -1692.9694      -1319.1964         46.7504         32.2504
   5384789.13049   4184527.64246  24662962.8704   24662961.9094
     -1600.7664      -1247.3504         40.2504         21.2504
  -8078547.18649  -6286576.89948  20157202.0814   20157197.0464
      2223.7814       1732.8174         54.5004         45.5004
   -115828.35659    -72881.62556  24597247.2534   24597246.2184
      3403.0474       2651.7254         39.7504         17.7504
 -11480962.79849  -8939563.34447  21528313.4404   21528310.4254
      3594.6254       2801.0064         47.5004         36.5004
   3361010.56249   2606970.58848  21515160.3234   21515156.1944
     -1420.7344      -1107.0664         51.0004         40.5004
   4137494.61949   3209637.25147  23164980.5894   23164977.3904
     -1250.8914       -974.7204         45.5004         26.5004
 01  7  3  1 21 29.9990000  0  8G 1G11G14G20G13G22G25G29
  -7654124.47749  -5957149.52047  21575143.3154   21575139.4724
      2468.8754       1923.7994         51.2504         38.5004
   4089448.09049   3175487.21447  22405445.0034   22405441.8824
     -1699.0944      -1323.9694         47.2504         31.7504
   5432789.50249   4221930.44146  24672096.2614   24672096.5114
     -1599.3444      -1246.2424         38.0004         14.7504
  -8145073.06049  -6338415.22548  20144542.6204   20144537.5544
      2211.1724       1722.9914         55.0004         45.5004
   -217937.77749   -152447.20546  24577818.1514   24577815.5974
      3404.1884       2652.6144         42.5004         19.5004
 -11588655.83749  -9023479.93647  21507820.3624   21507816.8474
      3584.9064       2793.4334         48.2504         36.5004
   3403720.17249   2640250.77348  21523287.7844   21523283.4094
     -1426.6414      -1111.6684         51.2504         39.7504
   4175022.69749   3238879.82447  23172120.8234   23172118.8394
     -1251.0474       -974.8424         43.7504         26.0004
 01  7  3  1 21 59.9990000  0  8G 1G11G14G20G13G22G25G29
  -7728169.42549  -6014846.84247  21561053.2924   21561049.0114
      2467.2504       1922.5324         51.2504         39.0004
   4140502.43149   3215269.72647  22415160.0734   22415158.0034
     -1704.8124      -1328.4254         47.7504         31.7504
   5480733.86249   4259289.61046  24681218.8554   24681218.4524
     -1597.2344      -1244.5984         39.2504         20.0004
  -8211224.09949  -6389961.47248  20131954.5344   20131949.1244
      2198.7194       1713.2874         53.7504         45.5004
   -320089.94249   -232046.14146  24558379.0814   24558376.1164
      3405.6414       2653.7464         41.5004         17.7504
 -11696059.23349  -9107170.82347  21487382.2064   21487379.2654
      3575.1724       2785.8484         49.0004         36.5004
   3446600.52549   2673663.99848  21531447.8394   21531443.0114
     -1432.2664      -1116.0514         51.7504         40.2504
   4212546.88549   3268119.40147  23179261.6284   23179259.9764
     -1250.8444       -974.6834         44.7504         27.5004
 01  7  3  1 22 29.9990000  0  8G 1G11G14G20G13G22G25G29
  -7802158.38249  -6072500.53247  21546973.1054   21546969.2654
      2465.4534       1921.1324         50.7504         39.2504
   4191732.02749   3255188.77747  22424908.9334   22424906.7884
     -1710.4694      -1332.8334         47.7504         31.2504
   5528625.37749   4296607.56946  24690334.0734   24690332.7374
     -1595.4224      -1243.1864         40.2504         21.2504
  -8276995.29649  -6441211.73848  20119438.8554   20119433.4254
      2186.0944       1703.4504         54.0004         46.0004
   -422281.74349   -311675.93446  24538931.9094   24538930.3664
      3407.0944       2654.8784         40.5004         19.2504
 -11803166.36949  -9190630.86147  21466999.9954   21466997.1674
      3565.3594       2778.2024         49.7504         36.5004
   3489652.74249   2707211.13448  21539639.9644   21539635.7654
     -1437.8124      -1120.3734         52.0004         40.5004
   4250070.77049   3297358.73447  23186401.4174   23186400.3154
     -1250.6414       -974.5254         43.2504         27.0004
 01  7  3  1 22 59.9990000  0  8G 1G11G14G20G13G22G25G29
  -7876093.55149  -6130112.31047  21532903.4404   21532900.0774
      2463.7194       1919.7814         51.7504         38.2504
   4243131.86349   3295240.49247  22434690.5584   22434687.3314
     -1716.0004      -1337.1434         48.0004         31.5004
   5576461.92049   4333882.60846  24699438.0194   24699436.4644
     -1593.5624      -1241.7374         40.0004         19.5004
  -8342386.75049  -6492166.10848  20106995.3084   20106989.8944
      2173.4694       1693.6124         53.7504         45.7504
   -524514.87549   -391337.92246  24519477.8624   24519475.7454
      3408.6094       2656.0594         42.0004         20.0004
 -11909976.60149  -9273859.54047  21446674.7144   21446671.6834
      3555.4534       2770.4834         49.5004         36.7504
   3532872.74549   2740889.03248  21547864.7224   21547860.5544
     -1443.3754      -1124.7084         52.0004         39.5004
   4287592.21649   3326596.15947  23193542.1834   23193540.2804
     -1250.5624       -974.4644         44.0004         26.0004
 01  7  3  1 23 29.9990000  0  8G 1G11G14G20G13G22G25G29
  -7949970.46649  -6187678.70647  21518845.5344   21518841.7924
      2461.7664       1918.2594         50.7504         38.5004
   4294703.50349   3335426.09147  22444504.0504   22444500.9834
     -1721.7344      -1341.6114         47.5004         32.0004
   5624248.45248   4371118.79146  24708527.8004   24708529.5194
     -1592.0004      -1240.5194         35.0004         18.5004
  -8407391.97049  -6542819.51648  20094625.2764   20094619.6984
      2160.5634       1683.5554         54.5004         45.7504
   -626785.25149   -471028.86546  24500015.3624   24500013.9094
      3409.9064       2657.0704         39.5004         18.2504
 -12016482.40649  -9356851.00747  21426407.1444   21426404.1244
      3545.2344       2762.5204         49.0004         36.5004
   3576262.89749   2774699.50048  21556121.5974   21556117.3194
     -1448.9844      -1129.0794         51.2504         39.7504
   4325116.09749   3355835.50147  23200683.6054   23200681.5194
     -1250.7504       -974.6104         44.7504         26.0004
 01  7  3  1 23 59.9990000  0  8G 1G11G14G20G13G22G25G29
  -8023786.05049  -6245197.29647  21504798.5894   21504795.1244
      2459.4844       1916.4814         50.2504         38.5004
   4346447.23149   3375745.79147  22454350.5974   22454348.3624
     -1727.6564      -1346.2264         47.5004         31.5004
   5671988.15349   4408318.50946  24717615.0194   24717612.9914
     -1590.5314      -1239.3754         40.5004         19.0004
  -8472005.67349  -6593167.84948  20082329.7304   20082324.2454
      2147.2344       1673.1704         54.2504         45.7504
   -729089.79549   -550746.63446  24480547.7064   24480545.3354
      3410.6724       2657.6664         40.7504         19.0004
 -12122676.84649  -9439599.84947  21406199.2764   21406195.9564
      3534.5634       2754.2054         49.0004         37.2504
   3619824.10949   2808643.26148  21564411.1594   21564406.5154
     -1454.8754      -1133.6694         51.0004         39.7504
   4362645.88549   3385079.40247  23207825.6594   23207822.8584
     -1251.0624       -974.8544         44.5004         27.0004
 01  7  3  1 24 29.9990000  0  8G 1G11G14G20G13G22G25G29
  -8097544.95249  -6302671.73947  21490762.7374   21490758.9564
      2457.7034       1915.0934         50.0004         39.0004
   4398355.27549   3416193.53147  22464228.4804   22464225.7654
     -1733.0164      -1350.4024         47.7504         32.2504
   5719676.36549   4445478.05546  24726688.9254   24726688.7184
     -1588.9534      -1238.1454         37.5004         19.5004
  -8536230.69249  -6643213.32348  20070107.8554   20070102.7804
      2134.2814       1663.0764         53.7504         46.0004
   -831433.36649   -630494.60446  24461072.6904   24461070.1514
      3412.1254       2658.7994         41.5004         19.5004
 -12228561.16949  -9522107.05547  21386050.2764   21386046.7184
      3524.1724       2746.1084         47.5004         36.5004
   3663549.85449   2842715.24248  21572731.7374   21572727.6014
     -1460.2814      -1137.8814         50.5004         40.0004
   4400176.90949   3414324.26647  23214966.9334   23214965.3514
     -1251.0314       -974.8304         45.5004         26.5004
 01  7  3  1 24 59.9990000  0  8G 1G11G14G20G13G22G25G29
  -8171244.80949  -6360100.16647  21476738.2454   21476734.4724
      2455.7034       1913.5354         50.5004         39.0004
   4450427.02349   3456768.83247  22474137.9254   22474135.5074
     -1738.3914      -1354.5904         47.7504         31.5004
   5767315.67649   4482599.33446  24735753.1674   24735754.5854
     -1587.1254      -1236.7214         37.5004         19.2504
  -8600062.82349  -6692952.63348  20057961.0504   20057955.6164
      2121.1564       1652.8494         53.7504         45.7504
   -933813.86049   -710271.46946  24441588.5894   24441588.6084
      3413.1724       2659.6144         39.0004         20.0004
 -12334130.01149  -9604368.42447  21365961.4874   21365957.5224
      3513.6094       2737.8774         47.0004         36.5004
   3707440.26949   2876915.53448  21581084.1514   21581079.7614
     -1465.7194      -1142.1194         49.7504         39.7504
   4437711.74249   3443572.11947  23222110.3314   23222107.6714
     -1251.2344       -974.9884         45.2504         25.7504
 01  7  3  1 25 29.9990000  0  7G 1G11G20G13G22G25G29
  -8244881.41449  -6417479.29248  21462726.0654   21462722.1634
      2453.5004       1911.8184         49.2504         39.5004
   4502663.62749   3497472.57847  22484078.0814   22484075.1124
     -1743.8914      -1358.8764         46.7504         31.2504
  -8663495.84549  -6742380.95448  20045890.0584   20045884.9564
      2107.8134       1642.4514         54.0004         45.7504
  -1036226.98949   -790073.79846  24422098.8624   24422098.9804
      3414.2974       2660.4914         39.0004         19.5004
 -12439376.36449  -9686378.49447  21345933.3394   21345929.8904
      3502.7974       2729.4524         45.5004         37.0004
   3751497.44149   2911245.75948  21589468.0654   21589463.5034
     -1471.3444      -1146.5024         50.0004         40.2504
   4475254.68349   3472826.27147  23229253.4254   23229251.1634
     -1251.5784       -975.2564         44.5004         26.7504
 01  7  3  1 25 59.9990000  0  7G 1G11G20G13G22G25G29
  -8318454.04349  -6474808.58048  21448725.0894   21448721.5304
      2451.3134       1910.1144         48.0004         39.5004
   4555063.02749   3538303.17347  22494049.7224   22494046.9374
     -1749.4224      -1363.1864         47.5004         31.2504
  -8726527.27549  -6791496.35548  20033895.8004   20033890.5424
      2094.2974       1631.9204         54.0004         45.7504
  -1138672.11749   -869900.96046  24402607.1984   24402603.7844
      3415.2814       2661.2584         37.7504         18.5004
 -12544296.38249  -9768134.29247  21325967.5654   21325964.0344
      3491.7974       2720.8814         45.7504         37.2504
   3795720.08749   2945704.91548  21597883.0894   21597878.9764
     -1476.8914      -1150.8244         49.7504         39.7504
   4512806.85449   3502087.61547  23236399.4564   23236398.3584
     -1251.8444       -975.4634         43.0004         26.2504
 01  7  3  1 26 29.9990000  0  7G 1G11G20G13G22G25G29
  -8391955.55349  -6532082.45248  21434738.1754   21434734.4294
      2448.9224       1908.2514         48.0004         39.7504
   4607629.57249   3579264.01147  22504052.1754   22504050.1404
     -1754.8914      -1367.4474         47.5004         31.0004
  -8789147.82749  -6840291.59148  20021979.4174   20021973.5344
      2080.5474       1621.2054         53.5004         46.0004
  -1241142.11449   -949747.47546  24383105.5424   24383105.2574
      3416.1724       2661.9524         40.2504         19.5004
 -12648879.05649  -9849627.21147  21306065.9174   21306062.2374
      3480.5474       2712.1144         45.0004         37.5004
   3840113.52349   2980297.18348  21606331.1674   21606326.9214
     -1482.4694      -1155.1704         49.2504         39.5004
   4550375.49749   3531361.77847  23243548.8474   23243547.3154
     -1252.5314       -975.9984         44.7504         26.2504
 01  7  3  1 26 59.9990000  0  7G 1G11G20G13G22G25G29
  -8465391.07849  -6589304.90348  21420764.2694   21420760.2374
      2446.7034       1906.5224         49.0004         39.5004
   4660354.99949   3620348.66147  22514085.9564   22514083.4804
     -1760.2034      -1371.5874         47.5004         31.5004
  -8851360.74349  -6888769.18648  20010140.6284   20010135.2064
      2066.8594       1610.5404         54.0004         46.0004
  -1343642.22649  -1029617.48346  24363599.1674   24363599.5854
      3417.2814       2662.8174         36.5004         19.5004
 -12753126.15949  -9930858.66047  21286228.3394   21286225.3474
      3469.2034       2703.2754         47.2504         36.7504
   3884670.74849   3015017.07147  21614809.9564   21614805.4874
     -1488.0164      -1159.4934         49.0004         39.2504
   4587955.73249   3560645.01547  23250700.2924   23250697.5734
     -1252.8754       -976.2664         45.2504         27.0004
 01  7  3  1 27 29.9990000  0  7G 1G11G20G13G22G25G29
  -8538754.06849  -6646470.83048  21406803.9014   21406799.6874
      2444.1884       1904.5624         48.7504         39.7504
   4713242.65849   3661559.72647  22524150.2924   22524147.9294
     -1765.6254      -1375.8124         47.5004         31.0004
  -8913157.66049  -6936922.62948  19998381.1984   19998375.6904
      2052.9224       1599.6794         53.7504         46.0004
  -1446166.07249  -1109506.03246  24344090.9334   24344089.2924
      3417.9534       2663.3404         39.5004         19.2504
 -12857028.45749 -10011821.42747  21266456.5734   21266453.2144
      3457.6254       2694.2534         46.0004         37.2504
   3929396.05749   3049867.91448  21623320.8554   21623316.8004
     -1493.6414      -1163.8764         48.5004         39.5004
   4625554.33649   3589942.51347  23257855.9804   23257853.6674
     -1253.6724       -976.8874         45.0004         26.7504
 01  7  3  1 27 59.9990000  0  7G 1G11G20G13G22G25G29
  -8612041.00849  -6703577.50948  21392857.4874   21392853.5194
      2441.5784       1902.5284         49.0004         39.5004
   4766293.29649   3702897.79247  22534245.4334   22534243.0384
     -1771.1564      -1380.1224         47.5004         30.5004
  -8974533.21749  -6984747.73548  19986701.8704   19986696.5304
      2038.7034       1588.6004         53.7504         46.0004
  -1548710.31449  -1189410.49546  24324577.0504   24324575.2104
      3418.2974       2663.6084         37.0004         19.0004
 -12960579.57149 -10092510.53647  21246750.8314   21246747.7724
      3445.6884       2684.9514         47.5004         37.0004
   3974291.01349   3084850.96647  21631864.3234   21631859.9604
     -1499.3754      -1168.3444         49.0004         39.2504
   4663174.81349   3619257.05747  23265013.4564   23265013.2494
     -1254.5474       -977.5694         44.0004         27.0004
 01  7  3  1 28 29.9990000  0  7G 1G11G20G13G22G25G29
  -8685251.32849  -6760624.46847  21378925.9804   21378922.0734
      2439.0784       1900.5804         49.2504         39.2504
   4819504.55749   3744361.03047  22544371.2694   22544369.5224
     -1776.3594      -1384.1764         48.0004         31.5004
  -9035484.93949  -7032242.58948  19975103.2454   19975097.8154
      2024.6254       1577.6304         54.2504         46.0004
  -1651274.12949  -1269330.22246  24305059.4724   24305057.7184
      3419.0314       2664.1804         36.0004         19.2504
 -13063775.46649 -10172922.85347  21227114.0034   21227110.4294
      3433.8914       2675.7594         45.5004         37.5004
   4019354.05649   3119964.97348  21640439.3704   21640434.5814
     -1504.8284      -1172.5934         49.0004         39.7504
   4700818.16449   3648589.45146  23272177.7764   23272175.2654
     -1255.1874       -978.0684         43.0004         25.2504
 01  7  3  1 28 59.9990000  0  7G 1G11G20G13G22G25G29
  -8758385.99449  -6817612.48548  21365008.4404   21365004.5854
      2436.7344       1898.7544         48.5004         40.2504
   4872872.62949   3785946.42347  22554527.0194   22554524.7024
     -1781.3754      -1388.0844         47.2504         31.0004
  -9096011.87749  -7079406.43948  19963585.2614   19963579.6204
      2010.6254       1566.7214         53.7504         46.0004
  -1753858.77248  -1349266.09946  24285538.5424   24285536.8864
      3419.9534       2664.8994         35.2504         19.5004
 -13166613.46749 -10253056.29347  21207544.3234   21207540.4994
      3422.1564       2666.6154         47.5004         37.0004
   4064582.13549   3155207.61247  21649045.9954   21649041.8904
     -1510.1254      -1176.7214         48.0004         38.5004
   4738483.77849   3677939.19547  23279345.0034   23279343.4094
     -1255.7664       -978.5194         43.7504         26.2504
 01  7  3  1 29 29.9990000  0  7G 1G11G20G13G22G25G29
  -8831447.73649  -6874543.67548  21351105.5424   21351101.8784
      2434.1254       1896.7214         47.2504         40.0004
   4926391.58549   3827649.41247  22564711.5114   22564709.3904
     -1786.4694      -1392.0544         48.0004         30.5004
  -9156115.19749  -7126240.20248  19952147.7694   19952142.4094
      1996.3284       1555.5804         53.5004         46.2504
  -1856466.94149  -1429220.33946  24266012.7454   24266011.0384
      3420.6254       2665.4224         36.0004         19.0004
 -13269093.45249 -10332910.75747  21188042.7924   21188039.1444
      3409.9534       2657.1064         46.2504         38.0004
   4109970.52349   3190575.14347  21657682.9804   21657678.9444
     -1515.6254      -1181.0064         48.2504         39.0004
   4776168.77749   3707304.06547  23286517.5974   23286515.0264
     -1256.5314       -979.1154         45.7504         26.7504
 01  7  3  1 29 59.9990000  0  7G 1G11G20G13G22G25G29
  -8904426.67449  -6931410.34048  21337217.8394   21337214.0264
      2430.9534       1894.2494         47.5004         40.0004
   4980068.35249   3869475.37147  22574925.6514   22574923.6514
     -1792.0474      -1396.4004         47.5004         30.5004
  -9215782.95949  -7172734.55648  19940793.5894   19940788.1284
      1981.4064       1543.9534         54.0004         46.0004
  -1959089.05248  -1509185.53946  24246482.3084   24246481.9834
      3421.1254       2665.8124         31.7504         16.7504
 -13371202.69049 -10412476.33347  21168612.2694   21168608.4564
      3397.2344       2647.1964         46.5004         37.7504
   4155527.04949   3226073.68747  21666352.3944   21666348.2694
     -1521.6414      -1185.6944         48.0004         38.7504
   4813883.39049   3736691.92047  23293693.2534   23293691.8824
     -1257.8284       -980.1264         43.0004         25.7504
 01  7  3  1 30 29.9990000  0  7G 1G11G20G13G22G25G29
  -8977327.22949  -6988215.93148  21323345.4484   21323341.4604
      2428.6094       1892.4234         46.7504         40.5004
   5033895.56549   3911418.54547  22585169.1594   22585166.3274
     -1796.8124      -1400.1144         47.7504         30.7504
  -9275018.00649  -7218891.74548  19929521.4724   19929516.2844
      1967.2504       1532.9224         53.2504         46.2504
  -2061729.64849  -1589165.00046  24226951.5034   24226950.0424
      3421.7034       2666.2624         37.2504         17.7504
 -13472942.81049 -10491754.27647  21149251.8314   21149248.0584
      3385.1414       2637.7724         47.2504         38.0004
   4201245.29549   3261698.25647  21675051.9804   21675047.8354
     -1526.7034      -1189.6394         48.0004         38.7504
   4851623.25449   3766099.54047  23300875.0734   23300872.7724
     -1258.4374       -980.6014         43.0004         25.7504
 01  7  3  1 30 59.9980000  0  7G 1G11G20G13G22G25G29
  -9050145.51349  -7044957.40448  21309488.5454   21309484.7444
      2426.0634       1890.4384         47.5004         40.0004
   5087869.63149   3953476.13847  22595439.5454   22595437.6664
     -1801.5944      -1403.8394         47.0004         30.5004
  -9333814.93949  -7264707.54648  19918332.6864   19918327.2214
      1952.6254       1521.5264         53.0004         46.0004
  -2164383.98448  -1669155.32346  24207415.8504   24207415.4474
      3422.4224       2666.8224         34.2504         19.0004
 -13574305.31249 -10570737.97647  21129962.7874   21129959.4864
      3372.5164       2627.9344         48.0004         38.2504
   4247123.05049   3297447.12347  21683782.3114   21683778.2294
     -1531.9224      -1193.7054         47.0004         38.5004
   4889388.96949   3795527.28946  23308061.7094   23308059.3184
     -1259.3754       -981.3314         44.0004         25.0004
 01  7  3  1 31 29.9980000  0  7G 1G11G20G13G22G25G29
  -9122880.86349  -7101634.27648  21295647.7324   21295643.7994
      2423.0474       1888.0884         48.5004         40.0004
   5141996.78749   3995653.03247  22605739.7484   22605737.7254
     -1806.7194      -1407.8334         47.0004         30.2504
  -9392170.45949  -7310179.37648  19907228.0294   19907222.9124
      1937.7814       1509.9594         54.0004         46.2504
  -2267053.13349  -1749157.05146  24187879.0684   24187878.7324
      3422.3134       2666.7374         36.0004         19.0004
 -13675288.21849 -10649425.89347  21110746.4594   21110742.6234
      3359.6254       2617.8904         49.5004         38.0004
   4293167.03149   3333325.51547  21692544.3574   21692539.9204
     -1537.4844      -1198.0404         47.2504         39.0004
   4927188.52149   3824981.38646  23315254.1624   23315254.4244
     -1260.6094       -982.2934         42.5004         25.5004
 01  7  3  1 31 59.9980000  0  7G 1G11G20G13G22G25G29
  -9195533.01149  -7158246.29648  21281822.4204   21281818.9004
      2420.1094       1885.8004         48.5004         40.0004
   5196270.31049   4037943.99147  22616067.9204   22616065.8814
     -1811.7974      -1411.7904         46.7504         29.0004
  -9450083.05349  -7355306.07048  19896207.6234   19896201.9594
      1922.7504       1498.2474         53.7504         46.2504
  -2369736.29149  -1829169.81246  24168340.7794   24168337.9824
      3422.6414       2666.9934         38.2504         16.7504
 -13775887.44149 -10727814.81947  21091602.9124   21091599.5684
      3346.6254       2607.7604         50.0004         38.5004
   4339371.29449   3369328.79447  21701336.7324   21701332.3144
     -1543.0164      -1202.3504         47.2504         38.5004
   4965018.74749   3854459.42446  23322454.0614   23322452.1154
     -1261.7974       -983.2184         42.7504         25.2504
 01  7  3  1 32 29.9980000  0  7G 1G11G20G13G22G25G29
  -9268095.07749  -7214788.13148  21268013.9594   21268010.2754
      2417.3284       1883.6324         48.2504         40.5004
   5250693.66549   4080351.70847  22626424.2484   22626421.9984
     -1816.4534      -1415.4184         47.2504         29.2504
  -9507544.38949  -7400081.13648  19885273.1314   19885267.6934
      1907.9384       1486.7054         54.0004         46.0004
  -2472426.62549  -1909188.04846  24148798.2094   24148797.0224
      3423.3134       2667.5164         37.5004         18.5004
 -13876093.54049 -10805897.44047  21072534.3974   21072530.9754
      3333.8134       2597.7764         49.7504         38.5004
   4385740.68649   3405460.74147  21710160.9204   21710156.5294
     -1548.2344      -1206.4164         47.7504         38.7504
   5002886.69349   3883966.87146  23329660.1784   23329657.1274
     -1262.7814       -983.9854         44.0004         25.5004
 01  7  3  1 32 59.9980000  0  7G 1G11G20G13G22G25G29
  -9340574.01049  -7271265.19748  21254222.0144   21254218.1394
      2414.7194       1881.5994         49.0004         40.7504
   5305257.11949   4122868.54347  22636807.5684   22636805.2054
     -1821.0004      -1418.9614         46.0004         29.2504
  -9564559.40549  -7444508.42048  19874423.4434   19874417.9864
      1893.1564       1475.1874         54.2504         46.2504
  -2575131.11849  -1989217.47746  24129253.2564   24129252.8304
      3424.0164       2668.0644         36.0004         16.2504
 -13975910.10249 -10883676.51547  21053539.5454   21053536.1784
      3320.7814       2587.6224         50.5004         38.5004
   4432266.69749   3441714.74147  21719014.0064   21719010.1434
     -1553.3124      -1210.3734         48.0004         38.0004
   5040785.76149   3913498.52947  23336871.1624   23336870.8894
     -1263.8124       -984.7894         42.2504         26.5004
 01  7  3  1 33 29.9980000  0  7G 1G11G20G13G22G25G29
  -9412972.80449  -7327679.80848  21240444.8974   21240440.7524
      2411.8754       1879.3834         49.0004         40.5004
   5359954.77649   4165490.01447  22647216.5614   22647214.2174
     -1825.5004      -1422.4684         46.7504         29.2504
  -9621129.39749  -7488588.92948  19863658.8344   19863653.0104
      1878.0944       1463.4504         53.0004         46.2504
  -2677852.57549  -2069260.10146  24109706.6624   24109705.0494
      3424.2034       2668.2104         37.0004         19.2504
 -14075336.66349 -10961151.69047  21034619.8344   21034616.0684
      3307.5944       2577.3464         50.5004         38.0004
   4478944.19449   3478086.77247  21727897.1314   21727892.8814
     -1558.4844      -1214.4034         49.0004         38.7504
   5078713.11249   3943052.21446  23344088.3734   23344087.5884
     -1264.8284       -985.5804         42.0004         25.0004
 01  7  3  1 33 59.9980000  0  7G 1G11G20G13G22G25G29
  -9485278.96749  -7384022.24048  21226685.5224   21226681.6044
      2408.5474       1876.7904         49.5004         39.7504
   5414795.97249   4208223.28947  22657652.0764   22657650.2874
     -1830.4694      -1426.3394         46.5004         29.7504
  -9677240.23649  -7532311.65148  19852981.1004   19852975.5144
      1862.6254       1451.3964         53.7504         46.5004
  -2780579.11949  -2149306.54746  24090159.5294   24090156.4364
      3424.1564       2668.1744         37.2504         17.2504
 -14174357.93149 -11038311.05247  21015776.4514   21015772.7524
      3293.8754       2566.6564         50.7504         38.5004
   4525783.41849   3514584.83147  21736810.2094   21736805.4004
     -1564.0474      -1218.7384         48.7504         38.0004
   5116681.14149   3972637.57447  23351314.1004   23351313.3504
     -1266.3914       -986.7984         43.0004         26.0004
 01  7  3  1 34 29.9980000  0  7G 1G11G20G13G22G25G29
  -9557492.91149  -7440292.81148  21212943.3424   21212939.7604
      2405.7814       1874.6354         49.5004         40.5004
   5469777.10249   4251065.61547  22668114.9434   22668112.4084
     -1834.8754      -1429.7734         46.5004         30.0004
  -9732890.68549  -7575675.63348  19842391.3184   19842385.5844
      1847.4534       1439.5744         53.5004         46.5004
  -2883311.03149  -2229357.21646  24070610.7404   24070607.3074
      3424.5784       2668.5024         38.5004         19.2504
 -14272971.56449 -11115152.77747  20997010.6234   20997007.0844
      3280.4224       2556.1734         50.2504         38.7504
   4572782.00849   3551207.07547  21745753.6154   21745749.0254
     -1569.1254      -1222.6954         48.7504         38.2504
   5154689.93849   4002254.78946  23358547.0844   23358545.2294
     -1267.4844       -987.6504         43.0004         23.5004
 01  7  3  1 34 59.9980000  0  7G 1G11G20G13G22G25G29
  -9629614.48649  -7496491.40248  21199219.2564   21199215.3694
      2402.4384       1872.0294         50.0004         41.0004
   5524895.20949   4294014.66647  22678603.5374   22678601.6474
     -1839.5624      -1433.4254         46.2504         29.2504
  -9788079.04449  -7618679.53948  19831889.2724   19831884.2294
      1831.7504       1427.3384         53.7504         46.2504
  -2986048.31149  -2309412.16146  24051060.0764   24051056.6894
      3424.6254       2668.5394         37.5004         19.2504
 -14371175.00449 -11191674.87847  20978323.1704   20978319.7404
      3266.5004       2545.3254         50.5004         38.5004
   4619937.74149   3587951.76047  21754727.2174   21754723.1434
     -1574.5624      -1226.9324         48.5004         38.2504
   5192739.55149   4031903.66846  23365788.2094   23365786.9824
     -1269.0944       -988.9044         43.0004         25.2504
 01  7  3  1 35 29.9980000  0  7G 1G11G20G13G22G25G29
  -9701640.79649  -7552615.77048  21185513.1624   21185509.0844
      2399.3754       1869.6434         50.7504         40.7504
   5580150.25049   4337070.44847  22689118.7484   22689116.6044
     -1844.0314      -1436.9074         46.0004         28.7504
  -9842801.07049  -7661320.07048  19821475.9754   19821470.5494
      1816.3134       1415.3084         53.0004         46.0004
  -3088788.23249  -2389469.11846  24031507.2724   24031507.0224
      3424.9534       2668.7954         36.0004         19.0004
 -14468961.80549 -11267872.33647  20959715.1934   20959711.7684
      3252.6254       2534.5134         50.0004         39.2504
   4667251.45249   3624819.54447  21763730.3424   21763726.1474
     -1579.6874      -1230.9254         49.0004         38.0004
   5230832.85649   4061586.72046  23373036.7874   23373035.2834
     -1270.5314       -990.0244         41.0004         23.0004
 01  7  3  1 35 59.9980000  0  7G 1G11G20G13G22G25G29
  -9773574.36849  -7608667.87548  21171824.5684   21171820.2564
      2396.2974       1867.2444         51.0004         40.7504
   5635536.56049   4380228.50247  22699658.4754   22699656.0534
     -1848.2974      -1440.2314         45.7504         29.7504
  -9897057.35249  -7703597.69048  19811151.3974   19811145.6704
      1800.8444       1403.2554         52.5004         46.2504
  -3191533.85549  -2469530.45846  24011957.3034   24011953.8114
      3424.9384       2668.7824         39.2504         18.2504
 -14566331.34449 -11343744.63747  20941186.0064   20941182.6704
      3238.7034       2523.6654         50.5004         39.0004
   4714718.94449   3661807.16347  21772763.6474   21772759.5224
     -1584.7194      -1234.8464         49.5004         37.7504
   5268967.71049   4091302.13546  23380293.6784   23380291.2684
     -1271.7814       -990.9984         40.7504         24.0004
 01  7  3  1 36 29.9980000  0  7G 1G11G20G13G22G25G29
  -9845414.42649  -7664647.10448  21158153.8264   21158150.0294
      2393.0004       1864.6754         50.5004         40.7504
   5691051.65549   4423486.88547  22710222.7094   22710220.4594
     -1852.7194      -1443.6774         45.5004         28.5004
  -9950845.85849  -7745510.79448  19800915.5684   19800910.4514
      1784.9694       1390.8854         52.7504         46.2504
  -3294284.20049  -2549595.56146  23992404.0614   23992401.4984
      3425.0474       2668.8684         40.7504         19.0004
 -14663280.34449 -11419289.24347  20922737.1474   20922733.9514
      3224.4694       2512.5734         50.5004         38.7504
   4762338.81349   3698913.52147  21781825.2174   21781821.2604
     -1589.9224      -1238.9004         48.7504         37.0004
   5307144.65749   4121050.29147  23387559.1784   23387558.3184
     -1273.3594       -992.2284         42.0004         26.2504
 01  7  3  1 36 59.9980000  0  7G 1G11G20G13G22G25G29
  -9917158.33049  -7720551.41748  21144500.9904   21144497.4284
      2389.8284       1862.2044         49.7504         41.0004
   5746695.24249   4466845.39247  22720811.3814   22720809.4394
     -1856.8754      -1446.9164         46.2504         28.5004
 -10004162.27549  -7787056.04148  19790769.4594   19790764.3934
      1769.3284       1378.6974         51.5004         46.5004
  -3397036.88349  -2629662.52146  23972849.4754   23972848.3504
      3425.2194       2669.0024         36.5004         20.5004
 -14759803.63949 -11494502.13847  20904369.5684   20904365.8424
      3210.2974       2501.5304         50.2504         39.0004
   4810111.65749   3736139.07947  21790916.1624   21790911.7834
     -1595.0004      -1242.8574         47.7504         37.7504
   5345366.96049   4150833.80646  23394832.4434   23394831.0884
     -1274.9534       -993.4704         39.0004         24.2504
 01  7  3  1 37 29.9980000  0  7G 1G11G20G13G22G25G29
  -9988809.80149  -7776383.69448  21130866.5224   21130862.7954
      2386.7504       1859.8054         50.5004         41.0004
   5802460.66449   4510298.84547  22731422.8114   22731421.1004
     -1860.9534      -1450.0934         44.5004         29.2504
 -10057008.72149  -7828235.07848  19780713.4674   19780708.1664
      1753.6094       1366.4494         52.7504         46.2504
  -3499795.51349  -2709733.94846  23953294.6864   23953293.9594
      3425.2814       2669.0504         40.0004         20.0004
 -14855901.86649 -11569383.81347  20886082.4594   20886079.0454
      3196.0314       2490.4144         50.5004         39.0004
   4858031.57049   3773479.21447  21800035.1934   21800030.9434
     -1599.8444      -1246.6314         48.5004         37.2504
   5383630.72149   4180649.55946  23402113.5294   23402112.7364
     -1276.3284       -994.5414         39.5004         23.0004
 01  7  3  1 37 59.9980000  0  7G 1G11G20G13G22G25G29
 -10060366.79749  -7832142.36948  21117249.6474   21117245.5644
      2383.4064       1857.2004         51.0004         40.5004
   5858346.71949   4553846.27347  22742058.1544   22742055.7404
     -1865.1254      -1453.3444         45.0004         29.5004
 -10109381.81849  -7869045.27348  19770747.4824   19770741.9674
      1737.6254       1353.9944         52.2504         46.2504
  -3602558.29649  -2789808.81146  23933739.9514   23933738.2054
      3425.2504       2669.0264         38.0004         19.7504
 -14951569.75749 -11643930.16348  20867877.5924   20867874.0964
      3181.5004       2479.0914         50.0004         39.5004
   4906098.70049   3810934.07947  21809181.5614   21809177.7684
     -1604.9534      -1250.6134         49.2504         37.5004
   5421938.04049   4210499.38446  23409404.5844   23409401.1864
     -1277.9534       -995.8084         41.7504         24.2504
 01  7  3  1 38 29.9980000  0  7G 1G11G20G13G22G25G29
 -10131824.33449  -7887823.53548  21103651.8264   21103647.4594
      2380.3444       1854.8134         51.0004         40.2504
   5914355.65849   4597489.48947  22752716.1234   22752714.0574
     -1868.8754      -1456.2664         45.0004         28.2504
 -10161274.88949  -7909481.42448  19760872.2564   19760866.6864
      1721.8754       1341.7214         52.0004         46.2504
  -3705320.22749  -2869882.79146  23914184.9364   23914183.2794
      3425.5314       2669.2454         38.7504         20.0004
 -15046799.35349 -11718134.98648  20849755.8114   20849751.8854
      3167.1094       2467.8774         50.5004         39.5004
   4954316.14849   3848506.06247  21818357.4594   21818353.0884
     -1609.5784      -1254.2174         49.2504         36.5004
   5460294.32749   4240387.29546  23416702.9284   23416701.4164
     -1279.3444       -996.8914         40.0004         23.5004
 01  7  3  1 38 59.9980000  0  7G 1G11G20G13G22G25G29
 -10203187.85749  -7943431.45248  21090071.5454   21090067.7954
      2377.0784       1852.2694         51.5004         40.7504
   5970478.70649   4641221.59447  22763395.8894   22763394.1474
     -1872.7664      -1459.2984         43.7504         28.7504
 -10212692.01449  -7949546.71248  19751087.8894   19751082.7174
      1705.7974       1329.1924         51.7504         46.5004
  -3808087.10749  -2949960.74846  23894629.1704   23894627.1584
      3425.4384       2669.1724         40.0004         22.0004
 -15141593.74449 -11792000.69647  20831717.2724   20831713.3264
      3152.4064       2456.4204         50.2504         39.2504
   5002675.84449   3886188.90447  21827559.9754   21827555.7954
     -1614.4694      -1258.0284         48.5004         36.5004
   5498694.04249   4270309.05346  23424008.8894   23424009.1474
     -1280.9064       -998.1094         40.5004         25.5004
 01  7  3  1 39 29.9980000  0  7G 1G11G20G13G22G25G29
 -10274455.73249  -7998964.84048  21076510.0844   21076506.1274
      2373.7974       1849.7124         51.5004         40.0004
   6026714.54549   4685041.61547  22774097.5534   22774095.9824
     -1876.5784      -1462.2694         44.5004         29.7504
 -10263630.08149  -7989238.70948  19741394.6544   19741389.3504
      1689.7504       1316.6884         52.0004         46.0004
  -3910857.41749  -3030041.42546  23875071.8734   23875070.8574
      3425.5634       2669.2694         39.0004         20.7504
 -15235948.89249 -11865524.12648  20813762.1394   20813757.9824
      3137.6254       2444.9034         50.5004         39.5004
   5051177.69549   3923982.50247  21836789.6784   21836785.3544
     -1619.2974      -1261.7904         49.0004         37.0004
   5537139.09049   4300266.14446  23431325.5534   23431322.8384
     -1282.5004       -999.3514         40.2504         23.0004
 01  7  3  1 39 59.9980000  0  7G 1G11G20G13G22G25G29
 -10345624.32949  -8054420.85748  21062966.6074   21062962.6664
      2370.6414       1847.2524         51.5004         41.5004
   6083063.36749   4728949.64447  22784820.7014   22784819.1864
     -1880.0314      -1464.9594         44.5004         29.2504
 -10314084.25849  -8028553.64348  19731793.6704   19731787.9044
      1673.7974       1304.2574         51.7504         46.5004
  -4013627.69449  -3110121.97046  23855517.1154   23855514.0804
      3425.7814       2669.4404         40.2504         20.0004
 -15329857.87449 -11938699.90448  20795891.2724   20795887.8114
      3122.7814       2433.3364         51.2504         39.5004
   5099823.18149   3961888.03047  21846046.6154   21846042.6894
     -1623.8754      -1265.3574         48.7504         36.0004
   5575632.93949   4330261.26046  23438650.6074   23438649.9284
     -1284.0004      -1000.5194         40.0004         25.5004
 01  7  3  1 40 29.9980000  0  7G 1G11G20G13G22G25G29
 -10416694.86349  -8109800.47648  21049442.4674   21049438.4674
      2367.5004       1844.8054         51.5004         41.0004
   6139521.07849   4772942.53047  22795564.1394   22795562.3034
     -1883.5624      -1467.7114         43.5004         28.0004
 -10364054.19749  -8067491.25148  19722284.5064   19722279.4124
      1657.6414       1291.6684         52.2504         46.2504
  -4116399.27849  -3190203.54546  23835958.9824   23835957.6394
      3425.8594       2669.5014         39.7504         19.7504
 -15423318.94449 -12011526.65848  20778106.5764   20778102.6074
      3107.9534       2421.7824         50.5004         39.5004
   5148609.11249   3999903.00047  21855330.1784   21855326.4944
     -1628.4844      -1268.9494         49.5004         36.5004
   5614174.85149   4360293.82746  23445985.7094   23445983.9324
     -1285.4064      -1001.6154         40.5004         23.5004
 01  7  3  1 40 59.9980000  0  7G 1G11G20G13G22G25G29
 -10487666.35949  -8165102.92248  21035937.1544   21035933.0964
      2363.9064       1842.0054         51.0004         41.7504
   6196085.54449   4817018.61847  22806328.4044   22806326.5534
     -1887.4064      -1470.7064         44.2504         28.5004
 -10413537.69449  -8106049.81748  19712868.3734   19712862.6864
      1641.1414       1278.8114         52.5004         46.2504
  -4219171.71449  -3270285.85746  23816402.7954   23816399.8384
      3425.6254       2669.3184         40.5004         21.5004
 -15516328.68749 -12084001.71948  20760407.3424   20760403.3304
      3092.5944       2409.8134         50.2504         39.5004
   5197534.33549   4038026.50447  21864640.5374   21864636.7684
     -1633.2974      -1272.6994         49.2504         37.2504
   5652765.49349   4390364.37246  23453328.9674   23453328.1704
     -1287.2664      -1003.0644         41.0004         22.7504
 01  7  3  1 41 29.9980000  0  7G 1G11G20G13G22G25G29
 -10558537.76249  -8220327.36948  21022450.7014   21022446.6274
      2360.6414       1839.4604         51.5004         41.0004
   6252754.69849   4861176.27147  22817111.9904   22817110.2134
     -1890.7034      -1473.2754         44.0004         28.7504
 -10462532.12149  -8144227.28648  19703545.0064   19703539.4674
      1624.9694       1266.2094         52.7504         46.2504
  -4321943.57549  -3350367.63846  23796845.3424   23796843.4394
      3425.6724       2669.3554         41.5004         20.2504
 -15608883.52749 -12156122.32448  20742794.6074   20742791.0764
      3077.4844       2398.0404         50.5004         40.2504
   5246598.00049   4076257.89447  21873976.8424   21873972.8304
     -1637.8124      -1276.2184         49.2504         37.0004
   5691406.11449   4420473.86646  23460680.8734   23460680.3734
     -1288.8284      -1004.2824         40.7504         23.0004
 01  7  3  1 41 59.9980000  0  7G 1G11G20G13G22G25G29
 -10629306.38849  -8275471.73048  21008983.5924   21008979.6044
      2357.2814       1836.8434         52.0004         41.0004
   6309528.11549   4905415.15247  22827915.2644   22827914.1194
     -1894.1564      -1475.9664         43.2504         28.5004
 -10511033.56049  -8182020.62548  19694315.3504   19694310.2914
      1608.5004       1253.3774         52.5004         46.5004
  -4424712.31849  -3430447.10146  23777288.1234   23777286.8654
      3425.5944       2669.2944         40.7504         19.5004
 -15700978.35949 -12227884.46947  20725269.4284   20725265.8184
      3062.0944       2386.0474         50.7504         39.2504
   5295800.85649   4114597.75147  21883339.7324   21883336.0574
     -1642.3594      -1279.7614         49.7504         37.7504
   5730099.52249   4450624.51846  23468045.7564   23468043.2254
     -1290.5944      -1005.6574         42.7504         24.2504
 01  7  3  1 42 29.9980000  0  7G 1G11G20G13G22G25G29
 -10699969.75249  -8330534.07048  20995537.1544   20995533.3814
      2353.5944       1833.9694         52.0004         41.5004
   6366405.06349   4949734.71147  22838739.0684   22838737.7324
     -1897.7034      -1478.7304         44.2504         28.5004
 -10559038.50249  -8219427.07048  19685180.4904   19685175.3854
      1591.8134       1240.3734         52.5004         46.2504
  -4527476.10449  -3510522.58846  23757733.2094   23757731.2324
      3425.2664       2669.0384         41.5004         21.0004
 -15792607.45049 -12299283.70948  20707832.8574   20707829.2324
      3046.4694       2373.8724         51.0004         39.5004
   5345143.23049   4153046.29947  21892729.6474   21892725.6784
     -1647.0784      -1283.4374         49.7504         37.5004
   5768848.17549   4480818.20146  23475418.6934   23475418.0024
     -1292.6254      -1007.2404         42.0004         23.0004
 01  7  3  1 42 59.9980000  0  7G 1G11G20G13G22G25G29
 -10770529.73749  -8385515.85348  20982109.8264   20982105.9364
      2350.4064       1831.4854         51.7504         41.2504
   6423380.58949   4994131.11447  22849581.0374   22849579.7364
     -1900.6564      -1481.0314         44.5004         28.0004
 -10606547.25349  -8256446.87848  19676139.9284   19676134.3654
      1575.4844       1227.6504         52.2504         46.2504
  -4630236.69849  -3590595.62046  23738179.0764   23738176.6664
      3425.4694       2669.1964         40.2504         22.0004
 -15883769.97349 -12370319.39448  20690485.4904   20690481.6704
      3031.1094       2361.9034         51.2504         39.7504
   5394621.07649   4191600.43147  21902145.5614   21902140.6744
     -1651.3594      -1286.7744         49.2504         37.5004
   5807650.48149   4511053.70546  23482801.9754   23482801.1974
     -1294.1724      -1008.4464         42.0004         21.0004
 01  7  3  1 43 29.9980000  0  7G 1G11G20G13G22G25G29
 -10840987.70149  -8440418.14348  20968702.1234   20968698.1784
      2346.9694       1828.8074         51.7504         41.0004
   6480450.45049   5038600.98647  22860441.2404   22860439.7644
     -1903.9064      -1483.5634         43.7504         27.5004
 -10653559.91549  -8293080.12948  19667193.5454   19667187.8504
      1558.8754       1214.7084         53.0004         47.0004
  -4732995.79249  -3670667.53046  23718624.2724   23718622.2874
      3425.2974       2669.0634         40.5004         21.5004
 -15974464.97049 -12440990.76248  20673226.7094   20673222.8574
      3015.4064       2349.6674         51.5004         39.7504
   5444231.04849   4230257.50547  21911585.6074   21911581.3934
     -1655.7974      -1290.2314         49.2504         36.5004
   5846504.90149   4541329.79247  23490196.3574   23490195.5294
     -1296.0474      -1009.9074         42.0004         25.7504
 01  7  3  1 43 59.9980000  0  7G 1G11G20G13G22G25G29
 -10911339.98949  -8495238.08148  20955314.4984   20955310.7174
      2343.3444       1825.9824         52.0004         41.5004
   6537614.82449   5083144.52647  22871319.2324   22871318.2874
     -1906.9224      -1485.9134         44.2504         26.7504
 -10700071.60449  -8329322.99948  19658342.8034   19658337.2094
      1542.1094       1201.6444         52.5004         46.2504
  -4835749.84749  -3750735.45546  23699069.8654   23699068.2294
      3424.9844       2668.8194         40.2504         21.0004
 -16064686.67849 -12511293.32848  20656057.6074   20656053.9794
      2999.5164       2337.2854         51.7504         40.0004
   5493974.60249   4269018.69147  21921051.8574   21921047.1704
     -1660.2974      -1293.7384         49.7504         37.5004
   5885415.29349   4571649.54646  23497600.6864   23497599.7254
     -1297.9534      -1011.3924         41.5004         24.5004
 01  7  3  1 44 29.9980000  0  7G 1G11G20G13G22G25G29
 -10981589.73649  -8549978.13848  20941946.6394   20941942.6474
      2339.7974       1823.2184         51.5004         41.5004
   6594867.55849   5127756.90647  22882214.2724   22882213.4164
     -1910.0164      -1488.3244         45.7504         27.5004
 -10746084.27149  -8365177.03748  19649586.9984   19649580.9944
      1525.2814       1188.5314         52.5004         46.7504
  -4938502.07249  -3830801.98746  23679518.1394   23679515.2524
      3424.9064       2668.7584         42.5004         22.0004
 -16154435.01749 -12581227.06148  20638978.9904   20638975.7754
      2983.5944       2324.8784         51.2504         40.0004
   5543847.00149   4307880.25347  21930541.9674   21930537.9714
     -1664.7034      -1297.1714         49.5004         36.5004
   5924378.65049   4602010.48546  23505016.5614   23505014.5454
     -1299.7974      -1012.8294         43.0004         22.5004
 01  7  3  1 44 59.9980000  0  7G 1G11G20G13G22G25G29
 -11051734.38849  -8604636.28948  20928598.4284   20928594.2724
      2336.4534       1820.6134         51.7504         41.2504
   6652207.94749   5172437.59747  22893126.1074   22893124.6864
     -1912.7664      -1490.4674         45.7504         26.5004
 -10791594.17949  -8400639.31348  19640926.2724   19640920.6934
      1508.5634       1175.5034         52.0004         46.2504
  -5041250.08749  -3910865.21646  23659965.1154   23659962.3574
      3424.8914       2668.7464         41.0004         22.0004
 -16243704.78449 -12650787.86548  20621991.5064   20621987.9474
      2967.6564       2312.4594         51.5004         40.0004
   5593848.51649   4346842.42947  21940056.8184   21940052.6044
     -1668.8754      -1300.4224         49.2504         37.2504
   5963397.34849   4632414.61046  23512440.3424   23512439.5614
     -1301.4844      -1014.1444         40.5004         22.7504
 01  7  3  1 45 29.9980000  0  7G 1G11G20G13G22G25G29
 -11121769.92749  -8659209.41648  20915270.9434   20915266.8184
      2332.7974       1817.7644         52.0004         41.5004
   6709637.06249   5217187.41247  22904054.3654   22904053.3504
     -1915.6254      -1492.6954         44.7504         27.5004
 -10836596.22649  -8435705.84248  19632362.9284   19632357.1624
      1491.6724       1162.3424         52.5004         46.2504
  -5143990.06449  -3990922.23546  23640413.5684   23640411.9084
      3424.6724       2668.5754         40.7504         22.0004
 -16332489.38649 -12719970.61748  20605096.3974   20605092.7564
      2951.4694       2299.8464         51.5004         40.0004
   5643980.99049   4385906.65747  21949596.4754   21949592.6314
     -1673.0944      -1303.7094         49.2504         37.0004
   6002475.54649   4662865.04546  23519876.3034   23519876.4514
     -1303.4694      -1015.6904         41.5004         22.5004
 01  7  3  1 45 59.9980000  0  7G 1G11G20G13G22G25G29
 -11191700.79849  -8713700.98148  20901963.6154   20901959.8264
      2329.0474       1814.8424         51.5004         41.0004
   6767147.42149   5262000.54446  22914998.0374   22914997.3854
     -1918.5474      -1494.9724         44.2504         25.5004
 -10881093.59949  -8470379.12748  19623895.4824   19623889.8854
      1474.6414       1149.0714         51.0004         46.2504
  -5246726.60149  -4070976.55246  23620864.2564   23620861.9824
      3424.3444       2668.3204         38.0004         22.0004
 -16420791.36549 -12788777.31448  20588293.4044   20588289.1974
      2935.0474       2287.0504         51.2504         40.0004
   5694237.95749   4425067.89447  21959160.4904   21959156.5334
     -1677.5164      -1307.1554         48.5004         36.0004
   6041608.77749   4693358.42746  23527324.7094   23527322.5334
     -1305.5624      -1017.3214         42.5004         22.7504
 01  7  3  1 46 29.9980000  0  7G 1G11G20G13G22G25G29
 -11261526.57549  -8768110.66348  20888676.0924   20888672.3854
      2325.9224       1812.4074         52.7504         41.0004
   6824736.21649   5306874.78947  22925957.4124   22925955.9164
     -1920.7664      -1496.7004         45.0004         26.5004
 -10925084.79949  -8504657.98948  19615524.3114   19615518.7324
      1458.0784       1136.1654         51.7504         46.2504
  -5349459.51949  -4151028.03046  23601314.5064   23601312.6434
      3424.5634       2668.4904         39.5004         21.7504
 -16508607.83149 -12857205.67348  20571582.5224   20571578.2214
      2919.2664       2274.7524         51.5004         40.0004
   5744617.92249   4464324.95647  21968747.6234   21968743.6074
     -1681.1874      -1310.0164         48.7504         36.0004
   6080797.56349   4723895.01846  23534781.8894   23534780.6544
     -1307.0784      -1018.5024         41.2504         22.7504
 01  7  3  1 46 59.9980000  0  7G 1G11G20G13G22G25G29
 -11331245.67949  -8822437.23148  20875409.3184   20875405.1864
      2322.0944       1809.4244         52.0004         41.7504
   6882401.58049   5351808.72247  22936931.8264   22936929.4474
     -1923.5474      -1498.8684         45.7504         26.5004
 -10968567.37249  -8538540.50848  19607249.5614   19607243.9084
      1440.7664       1122.6754         51.7504         46.5004
  -5452187.48449  -4231075.73646  23581766.2484   23581763.2564
      3424.0784       2668.1134         40.5004         22.0004
 -16595934.50749 -12925252.38348  20554964.6934   20554960.3894
      2902.5634       2261.7374         51.5004         39.7504
   5795120.01949   4503677.20947  21978357.4044   21978353.7604
     -1685.5944      -1313.4504         48.5004         35.7504
   6120043.19649   4754475.92846  23542249.1314   23542248.8114
     -1309.3754      -1020.2924         40.7504         22.7504
 01  7  3  1 47 29.9980000  0  7G 1G11G20G13G22G25G29
 -11400851.76949  -8876675.72248  20862163.5534   20862159.6274
      2318.4844       1806.6114         52.5004         41.0004
   6940146.61449   5396804.73147  22947919.2874   22947918.4944
     -1926.0784      -1500.8404         45.2504         27.7504
 -11011533.94849  -8572020.96348  19599073.3034   19599068.0374
      1423.6884       1109.3674         52.5004         46.5004
  -5554904.37149  -4311114.68246  23562219.2644   23562217.1154
      3423.7974       2667.8944         41.5004         22.2504
 -16682762.32649 -12992910.37148  20538442.2794   20538437.9124
      2886.0944       2248.9044         51.5004         40.2504
   5845748.74349   4543128.11747  21987991.3264   21987988.1824
     -1689.6414      -1316.6034         48.5004         35.5004
   6159352.24349   4785106.28746  23549729.2404   23549727.9244
     -1311.2814      -1021.7784         42.0004         22.0004
 01  7  3  1 47 59.9980000  0  7G 1G11G20G13G22G25G29
 -11470353.05649  -8930832.54948  20848937.9124   20848933.8654
      2314.8914       1803.8114         51.5004         41.2504
   6997960.38049   5441854.27347  22958921.1934   22958920.5574
     -1928.3284      -1502.5934         45.2504         27.5004
 -11053991.46449  -8605104.75148  19590993.7484   19590988.5414
      1406.6414       1096.0844         52.2504         46.2504
  -5657618.71049  -4391151.76046  23542672.4514   23542671.0724
      3423.7664       2667.8694         39.7504         21.7504
 -16769097.51049 -13060184.48448  20522012.6074   20522008.9944
      2869.5314       2235.9984         51.5004         40.0004
   5896493.72849   4582669.61847  21997648.4284   21997644.8424
     -1693.4694      -1319.5864         47.5004         35.0004
   6198716.30949   4815779.40146  23557221.0064   23557220.1624
     -1313.1564      -1023.2394         42.5004         24.2504
 01  7  3  1 48 29.9980000  0  7G 1G11G20G13G22G25G29
 -11539742.12749  -8984901.93048  20835733.4674   20835729.6194
      2311.0784       1800.8404         51.2504         41.7504
   7055847.04349   5486960.62846  22969936.5924   22969935.6314
     -1930.7194      -1504.4564         44.0004         24.5004
 -11095931.35049  -8637785.18248  19583013.3504   19583007.8304
      1389.3284       1082.5934         50.2504         46.7504
  -5760323.10949  -4471181.02946  23523129.2174   23523126.5844
      3423.3754       2667.5654         39.2504         22.5004
 -16854930.52349 -13127067.30848  20505679.1474   20505675.4434
      2852.7194       2222.8984         51.7504         40.2504
   5947360.48449   4622306.00547  22007328.0684   22007324.2214
     -1697.6254      -1322.8254         47.7504         35.5004
   6238143.00749   4846501.48346  23564724.0294   23564722.9634
     -1315.3754      -1024.9684         42.5004         22.2504
 01  7  3  1 48 59.9980000  0  7G 1G11G20G13G22G25G29
 -11609025.76249  -9038889.16748  20822549.3574   20822545.0964
      2307.5784       1798.1134         50.0004         41.7504
   7113796.68649   5532116.00946  22980964.1784   22980963.0334
     -1932.9064      -1506.1614         45.0004         25.2504
 -11137359.38949  -8670066.77048  19575129.4984   19575124.1044
      1372.2974       1069.3224         50.0004         46.5004
  -5863024.58849  -4551208.08646  23503586.2324   23503583.2914
      3423.1094       2667.3584         40.7504         22.5004
 -16940265.40749 -13193561.97248  20489440.3184   20489436.2214
      2836.0634       2209.9194         51.7504         40.2504
   5998340.49849   4662030.62747  22017029.4984   22017025.3814
     -1701.3594      -1325.7354         47.5004         35.2504
   6277625.75249   4877267.07846  23572237.1704   23572235.6394
     -1317.0474      -1026.2704         41.2504         22.5004
 01  7  3  1 49 29.9980000  0  7G 1G11G20G13G22G25G29
 -11678194.68749  -9092787.00848  20809386.6154   20809382.7174
      2303.6564       1795.0574         49.7504         42.0004
   7171815.55049   5577325.36146  22992005.0534   22992004.1274
     -1935.1254      -1507.8904         45.0004         24.7504
 -11178265.27549  -8701941.48748  19567345.4044   19567340.1934
      1354.7504       1055.6494         49.5004         46.5004
  -5965713.82049  -4631225.53546  23484044.4434   23484042.0334
      3422.7504       2667.0784         40.5004         21.5004
 -17025089.98149 -13259659.00248  20473298.5614   20473295.1234
      2819.0004       2196.6234         51.2504         40.5004
   6049441.28549   4701849.38747  22026753.7404   22026749.8574
     -1705.3914      -1328.8764         45.2504         35.5004
   6317173.77049   4908083.60646  23579762.4364   23579761.4674
     -1319.3124      -1028.0364         42.0004         24.0004
 01  7  3  1 49 59.9980000  0  7G 1G11G20G13G22G25G29
 -11747255.81549  -9146600.84748  20796244.9594   20796241.0184
      2300.1884       1792.3544         50.0004         42.0004
   7229893.46649   5622580.78346  23003057.2874   23003056.2484
     -1937.0314      -1509.3754         44.5004         24.0004
 -11218655.14149  -8733414.12448  19559659.2254   19559653.9364
      1337.5474       1042.2444         50.2504         46.2504
  -6068397.75449  -4711238.89246  23464504.2644   23464501.6744
      3422.6094       2666.9684         42.2504         22.5004
 -17109409.10049 -13325362.15448  20457253.4674   20457249.9164
      2802.1254       2183.4744         51.5004         40.5004
   6100653.25849   4741754.77847  22036498.3264   22036495.3614
     -1709.0164      -1331.7004         44.5004         34.7504
   6356780.23949   4938945.71146  23587299.5294   23587298.9324
     -1321.2814      -1029.5704         42.0004         22.5004
 01  7  3  1 50 29.9980000  0  7G 1G11G20G13G22G25G29
 -11816202.15749  -9200325.24248  20783124.8034   20783120.7444
      2296.2814       1789.3104         50.5004         42.0004
   7288034.00849   5667884.98446  23014120.7014   23014120.2404
     -1939.0624      -1510.9584         44.5004         25.2504
 -11258521.02549  -8764478.44748  19552073.2724   19552067.5684
      1320.1414       1028.6814         50.0004         46.2504
  -6171070.05449  -4791243.18246  23444966.3894   23444963.3694
      3422.2034       2666.6524         42.0004         22.7504
 -17193214.02049 -13390664.63248  20441305.5534   20441301.7604
      2784.9224       2170.0694         51.5004         40.7504
   6151981.43849   4781750.70047  22046266.4824   22046261.7874
     -1712.8444      -1334.6834         44.2504         34.7504
   6396451.66049   4969858.34946  23594847.7564   23594847.7834
     -1323.4374      -1031.2504         40.2504         22.2504
 01  7  3  1 50 59.9980000  0  7G 1G11G20G13G22G25G29
 -11885036.07249  -9253962.03748  20770026.0684   20770021.9674
      2292.4534       1786.3274         51.0004         41.7504
   7346231.76849   5713233.72647  23025195.1474   23025194.8304
     -1941.1094      -1512.5534         43.5004         25.7504
 -11297864.43249  -8795135.65748  19544586.5374   19544581.1784
      1302.5784       1014.9964         50.5004         46.5004
  -6273733.08549  -4871240.24546  23425429.9364   23425427.8034
      3421.7664       2666.3114         43.2504         21.5004
 -17276504.93349 -13455566.60348  20425456.0294   20425451.8574
      2767.5634       2156.5424         51.2504         41.0004
   6203421.27549   4821833.65047  22056055.0924   22056050.9364
     -1716.5944      -1337.6064         44.5004         34.7504
   6436185.85349   5000819.98046  23602409.6394   23602409.5254
     -1325.8284      -1033.1134         41.7504         22.7504
 01  7  3  1 51 29.9980000  0  7G 1G11G20G13G22G25G29
 -11953751.43749  -9307506.45448  20756950.1074   20756946.4124
      2288.7664       1783.4544         51.7504         41.7504
   7404489.68149   5758629.32846  23036281.5534   23036281.3384
     -1942.6254      -1513.7344         43.5004         25.5004
 -11336678.48049  -8825380.37348  19537200.6314   19537195.1624
      1285.0944       1001.3724         50.5004         46.7504
  -6376380.96549  -4951225.51346  23405896.6004   23405894.4284
      3421.5314       2666.1284         42.0004         22.2504
 -17359273.14249 -13520061.26348  20409705.4124   20409701.2294
      2750.3754       2143.1494         52.0004         40.7504
   6254977.07749   4862006.94447  22065865.8344   22065861.8344
     -1720.1564      -1340.3814         44.5004         34.5004
   6475988.84649   5031835.16546  23609984.9284   23609984.0574
     -1327.7344      -1034.5984         42.0004         22.5004
 01  7  3  1 51 59.9980000  0  7G 1G11G20G13G22G25G29
 -12022354.80749  -9360963.60548  20743895.1624   20743891.3384
      2284.8284       1780.3864         49.5004         42.2504
   7462798.16349   5804064.33646  23047377.6074   23047376.7644
     -1944.4694      -1515.1704         43.7504         23.2504
 -11374968.74949  -8855216.95648  19529913.8184   19529908.8184
      1267.5164        987.6754         48.7504         46.5004
  -6479020.48949  -5031204.24446  23386364.4514   23386362.3894
      3421.0164       2665.7264         41.5004         22.0004
 -17441522.65349 -13584151.74848  20394054.1004   20394049.8934
      2732.9534       2129.5744         52.0004         40.5004
   6306640.12149   4902263.81047  22075696.6474   22075692.8974
     -1723.9374      -1343.3284         45.7504         34.2504
   6515854.10249   5062898.92746  23617570.7724   23617569.2254
     -1329.8914      -1036.2784         41.2504         22.2504
 01  7  3  1 52 29.9980000  0  7G 1G11G20G13G22G25G29
 -12090843.56449  -9414331.43148  20730862.0294   20730858.1434
      2280.9694       1777.3784         50.5004         42.0004
   7521156.49249   5849538.20046  23058482.7014   23058482.0804
     -1946.1414      -1516.4734         43.7504         24.5004
 -11412731.76949  -8884642.68948  19522728.1004   19522722.6744
      1249.8754        973.9294         49.5004         46.2504
  -6581649.22549  -5111174.60546  23366834.9364   23366832.7444
      3420.6884       2665.4714         42.5004         22.5004
 -17523248.92849 -13647834.51748  20378502.1474   20378498.2754
      2715.3754       2115.8774         51.7504         41.0004
   6358410.87049   4942604.60947  22085548.8184   22085545.1394
     -1727.5164      -1346.1164         45.0004         34.0004
   6555784.10349   5094013.17346  23625169.1314   23625168.9674
     -1332.2664      -1038.1294         39.2504         21.7504
 01  7  3  1 52 59.9980000  0  7G 1G11G20G13G22G25G29
 -12159218.84949  -9467610.85548  20717850.9284   20717846.5184
      2277.2504       1774.4814         50.5004         42.0004
   7579560.19649   5895047.44646  23069597.1704   23069596.3344
     -1947.6254      -1517.6304         43.7504         24.5004
 -11449967.90949  -8913657.86848  19515642.3974   19515636.7524
      1232.3754        960.2924         49.7504         46.7504
  -6684268.80549  -5191137.87946  23347307.2724   23347304.6894
      3420.4384       2665.2764         42.7504         22.5004
 -17604451.59949 -13711109.28148  20363049.9824   20363045.8504
      2697.9224       2102.2774         52.0004         40.5004
   6410286.28949   4983026.97247  22095420.2874   22095416.7294
     -1731.0314      -1348.8564         44.7504         35.5004
   6595777.77749   5125176.94846  23632780.1314   23632780.0254
     -1334.2504      -1039.6754         38.2504         21.5004
 01  7  3  1 53 29.9980000  0  7G 1G11G20G13G22G25G29
 -12227478.65949  -9520800.30448  20704861.3184   20704857.1044
      2273.5784       1771.6194         49.5004         42.0004
   7638007.89749   5940590.99246  23080719.6004   23080717.8464
     -1948.8444      -1518.5804         42.2504         22.7504
 -11486674.62749  -8942260.52148  19508657.1624   19508651.7724
      1214.8594        946.6444         50.0004         46.5004
  -6786877.18449  -5271092.33346  23327781.4124   23327779.2404
      3420.2034       2665.0934         42.5004         22.0004
 -17685126.26849 -13773972.60448  20347697.7324   20347693.6074
      2680.4694       2088.6774         51.5004         41.0004
   6462266.25049   5023530.78247  22105311.8574   22105308.2954
     -1734.2034      -1351.3274         46.5004         34.7504
   6635836.97849   5156391.83646  23640402.2954   23640402.8344
     -1336.3284      -1041.2954         38.5004         22.5004
 01  7  3  1 53 59.9980000  0  7G 1G11G20G13G22G25G29
 -12295625.98149  -9573902.08148  20691893.2254   20691889.0844
      2269.7814       1768.6614         51.2504         42.5004
   7696493.97049   5986164.36346  23091848.8184   23091848.1704
     -1950.1414      -1519.5904         43.0004         23.0004
 -11522853.94149  -8970452.19348  19501772.5224   19501767.1234
      1197.2194        932.8984         50.5004         46.2504
  -6889477.54849  -5351040.54746  23308256.9364   23308254.9634
      3419.9064       2664.8624         41.7504         22.2504
 -17765273.29149 -13836424.78648  20332446.5224   20332442.1974
      2662.7664       2074.8824         52.5004         41.0004
   6514345.78149   5064112.18947  22115222.3344   22115218.6234
     -1737.7344      -1354.0794         46.2504         34.7504
   6675958.28249   5187655.08246  23648037.7874   23648037.1354
     -1338.4844      -1042.9754         39.5004         21.2504
 01  7  3  1 54 29.9980000  0  7G 1G11G20G13G22G25G29
 -12363658.15349  -9626914.14648  20678947.3424   20678943.4794
      2265.8594       1765.6054         51.5004         42.5004
   7755017.89349   6031767.27146  23102986.1934   23102985.9044
     -1951.4224      -1520.5884         43.5004         25.2504
 -11558502.47049  -8998230.27548  19494988.7874   19494983.1894
      1179.4064        919.0184         51.5004         46.0004
  -6992067.41449  -5430980.63346  23288735.1704   23288732.2524
      3419.5944       2664.6194         42.0004         22.5004
 -17844888.01149 -13898462.18548  20317296.1864   20317292.0964
      2644.9064       2060.9664         52.0004         40.7504
   6566525.76149   5104771.85847  22125151.4754   22125148.1934
     -1741.0164      -1356.6364         46.7504         34.0004
   6716144.84949   5218969.21246  23655685.5064   23655684.1044
     -1340.6874      -1044.6924         39.2504         21.5004
 01  7  3  1 54 59.9980000  0  7G 1G11G20G13G22G25G29
 -12431571.40749  -9679833.55348  20666023.7094   20666019.8184
      2261.8754       1762.5004         52.0004         42.0004
   7813580.63449   6077400.41147  23114129.9594   23114129.9244
     -1952.7344      -1521.6114         43.5004         26.5004
 -11593615.52649  -9025591.11848  19488307.0844   19488301.3264
      1161.5474        905.1014         51.5004         46.5004
  -7094643.19149  -5510909.63146  23269214.8344   23269212.8144
      3419.1564       2664.2784         42.0004         22.7504
 -17923964.76949 -13960080.39948  20302248.0764   20302244.4674
      2626.9844       2047.0014         51.7504         41.0004
   6618807.89649   5145511.14047  22135100.8034   22135097.1354
     -1744.3914      -1359.2654         46.7504         34.5004
   6756400.33049   5250336.93946  23663344.9364   23663344.6864
     -1342.9374      -1046.4454         39.0004         21.5004
 01  7  3  1 55 29.9980000  0  7G 1G11G20G13G22G25G29
 -12499366.09249  -9732660.55248  20653122.7484   20653118.7404
      2257.9844       1759.4684         51.5004         42.5004
   7872177.99749   6123060.55847  23125281.1864   23125280.5764
     -1953.7504      -1522.4034         44.5004         25.7504
 -11628193.09149  -9052534.69048  19481727.2254   19481722.1934
      1143.7814        891.2584         51.2504         46.2504
  -7197205.70149  -5590828.44846  23249698.9514   23249695.2794
      3418.5634       2663.8154         41.7504         22.5004
 -18002502.41349 -14021278.50548  20287302.8264   20287299.1194
      2608.9694       2032.9634         51.7504         41.7504
   6671189.52749   5186327.94947  22145068.9674   22145065.3854
     -1747.6094      -1361.7744         47.5004         34.7504
   6796724.02449   5281757.97546  23671018.1154   23671019.5454
     -1345.2344      -1048.2354         40.0004         21.7504
 01  7  3  1 55 59.9980000  0  7G 1G11G20G13G22G25G29
 -12567041.75949  -9785394.82448  20640244.7404   20640240.5294
      2253.8914       1756.2784         51.5004         42.5004
   7930807.14749   6168745.47046  23136437.8894   23136437.4594
     -1954.8444      -1523.2554         43.0004         24.5004
 -11662234.14349  -9079060.19848  19475249.4594   19475243.6744
      1125.7194        877.1834         51.7504         46.5004
  -7299754.59049  -5670736.52346  23230184.5064   23230181.6474
      3418.0784       2663.4384         40.0004         24.0004
 -18080498.18949 -14082054.40148  20272460.7724   20272457.0294
      2590.7344       2018.7544         52.0004         41.2504
   6723668.91149   5227220.92447  22155055.2324   22155051.4514
     -1750.9224      -1364.3554         45.7504         34.5004
   6837116.18249   5313232.32646  23678705.0614   23678705.1194
     -1347.6414      -1050.1104         40.7504         22.7504
 01  7  3  1 56 29.9980000  0  7G 1G11G20G13G22G25G29
 -12634598.10149  -9838036.11048  20627388.9204   20627384.4164
      2249.9224       1753.1864         51.5004         42.0004
   7989465.47749   6214453.06646  23147600.5844   23147600.1624
     -1955.6564      -1523.8884         42.5004         22.5004
 -11695737.67149  -9105166.85248  19468873.7954   19468868.6394
      1107.8284        863.2434         51.5004         46.2504
  -7402289.75049  -5750633.97046  23210672.5764   23210669.2834
      3417.6724       2663.1214         44.0004         23.0004
 -18157949.30249 -14142405.87048  20257722.3574   20257718.2564
      2572.6254       2004.6434         52.2504         41.0004
   6776244.31049   5268188.72247  22165060.5614   22165056.3144
     -1754.0474      -1366.7904         47.0004         35.2504
   6877577.06249   5344760.23846  23686403.1004   23686403.8504
     -1349.7974      -1051.7904         40.0004         22.0004
 01  7  3  1 56 59.9980000  0  7G 1G11G20G13G22G25G29
 -12702034.34649  -9890583.80648  20614556.6004   20614552.2444
      2245.7344       1749.9234         52.2504         42.5004
   8048150.22049   6260181.29847  23158768.0534   23158767.2014
     -1956.6254      -1524.6434         41.5004         25.7504
 -11728702.27949  -9130853.57848  19462600.9674   19462595.4204
      1089.7344        849.1444         51.5004         46.7504
  -7504810.56149  -5830520.20746  23191163.0374   23191160.2014
      3416.9534       2662.5614         43.5004         23.2504
 -18234853.24849 -14202330.96848  20243088.2094   20243084.1394
      2554.2034       1990.2884         52.2504         41.5004
   6828914.95349   5309230.73047  22175083.2724   22175079.1584
     -1757.4374      -1369.4324         45.7504         34.5004
   6918107.45449   5376342.17946  23694117.9594   23694117.4714
     -1352.2974      -1053.7384         41.5004         22.5004
 01  7  3  1 57 29.9980000  0  7G 1G11G20G13G22G25G29
 -12769348.06449  -9943036.04548  20601747.2484   20601742.8384
      2241.7504       1746.8184         51.5004         42.2504
   8106860.91149   6305929.76046  23169940.2644   23169939.5884
     -1957.4374      -1525.2764         42.5004         25.5004
 -11761125.18749  -9156118.19548  19456431.1394   19456425.2254
      1071.7504        835.1304         52.0004         46.2504
  -7607314.88449  -5910393.61946  23171655.9124   23171654.5064
      3416.5314       2662.2324         42.7504         23.0004
 -18311206.41349 -14261826.88948  20228558.4044   20228554.4084
      2535.9384       1976.0554         52.0004         41.0004
   6881681.07249   5350347.13747  22185124.1864   22185120.5294
     -1760.4844      -1371.8064         47.0004         34.0004
   6958709.45849   5407980.08146  23701844.0924   23701844.9044
     -1354.7034      -1055.6134         42.2504         21.5004
 01  7  3  1 57 59.9980000  0  8G 1G11G 4G20G13G22G25G29
 -12836541.19649  -9995394.31048  20588960.4904   20588956.4984
      2237.6724       1743.6404         52.2504         42.5004
   8165592.51849   6351694.48246  23181116.5844   23181115.6474
     -1958.1094      -1525.8004         43.5004         23.7504
   -139706.39659    -93424.30756  24159667.5224   24159666.4864
      2608.8754       2032.8904         40.7504         19.5004
 -11793007.53049  -9180961.59648  19450364.1074   19450358.7364
      1053.6724        821.0434         52.0004         46.5004
  -7709804.69349  -5990255.72847  23152154.5064   23152150.9674
      3415.9064       2661.7454         44.5004         25.7504
 -18387008.43549 -14320893.35648  20214133.7954   20214129.7874
      2517.4844       1961.6764         51.2504         41.0004
   6934538.81549   5391534.94247  22195182.3654   22195178.6894
     -1763.4534      -1374.1194         47.5004         33.2504
   6999381.06449   5439672.18546  23709584.9044   23709583.1894
     -1356.9064      -1057.3304         42.5004         21.5004
 01  7  3  1 58 29.9970000  0  8G 1G11G 4G20G13G22G25G29
 -12903611.99749 -10047657.26348  20576197.2354   20576193.1884
      2233.8914       1740.6944         52.2504         42.5004
   8224339.21449   6397470.93446  23192295.8214   23192294.9274
     -1958.5474      -1526.1404         43.2504         24.2504
   -217747.24949   -154235.35546  24144817.8454   24144815.5674
      2594.2034       2021.4574         41.2504         19.5004
 -11824348.30349  -9205382.98748  19444400.2044   19444394.7744
      1035.8444        807.1514         52.0004         46.7504
  -7812277.75949  -6070104.76946  23132653.8534   23132651.2434
      3415.7664       2661.6364         44.5004         24.2504
 -18462255.15649 -14379527.12348  20199814.6104   20199810.6964
      2499.1884       1947.4194         51.2504         42.0004
   6987483.65449   5432790.59547  22205258.2824   22205254.0174
     -1766.2344      -1376.2874         46.7504         34.0004
   7040120.51749   5471417.03246  23717335.7594   23717336.2124
     -1359.0784      -1059.0224         40.5004         21.5004
 01  7  3  1 58 59.9970000  0  8G 1G11G 4G20G13G22G25G29
 -12970568.55349 -10099831.18248  20563456.0634   20563451.8604
      2229.8914       1737.5774         51.5004         42.2504
   8283098.13049   6443256.93746  23203478.0634   23203477.2434
     -1958.7194      -1526.2744         42.7504         25.0004
   -295347.65049   -214703.16946  24130047.8214   24130048.6654
      2579.3914       2009.9154         38.2504         18.2504
 -11855152.67649  -9229386.39748  19438538.2124   19438532.8374
      1017.8754        793.1494         52.0004         46.7504
  -7914744.25149  -6149948.63246  23113154.1104   23113151.5404
      3415.3594       2661.3194         42.7504         22.5004
 -18536953.27149 -14437733.40448  20185600.2594   20185596.1304
      2480.7344       1933.0404         50.5004         41.5004
   7040513.39849   5474112.44347  22215348.4314   22215345.1224
     -1769.0784      -1378.5024         46.2504         33.7504
   7080926.32249   5503213.76546  23725100.4784   23725100.0994
     -1361.2814      -1060.7394         40.5004         22.0004
 01  7  3  1 59 29.9970000  0  8G 1G11G 4G20G13G22G25G29
 -13037405.78249 -10151912.12448  20550737.4384   20550733.1064
      2226.0784       1734.6064         53.5004         42.2504
   8341867.09249   6489050.75946  23214661.5874   23214660.3494
     -1959.0004      -1526.4944         43.0004         25.0004
   -372501.18249   -274822.77746  24115367.4854   24115366.3334
      2564.3914       1998.2264         40.2504         17.7504
 -11885416.30349  -9252968.46048  19432779.4154   19432773.9384
       999.7814        779.0504         51.2504         47.0004
  -8017198.31649  -6229782.89446  23093658.5714   23093654.8884
      3415.0314       2661.0634         43.5004         25.0004
 -18611096.11849 -14495507.01248  20171491.3534   20171487.0324
      2462.1884       1918.5884         51.7504         41.5004
   7093627.06549   5515499.65947  22225456.1424   22225452.5014
     -1771.7664      -1380.5974         45.7504         33.0004
   7121800.14749   5535063.41646  23732880.0954   23732878.8564
     -1363.5164      -1062.4804         43.2504         22.7504
 01  7  3  1 59 59.9970000  0  8G 1G11G 4G20G13G22G25G29
 -13104126.18449 -10203902.03448  20538040.6884   20538036.6494
      2222.0314       1731.4534         52.2504         42.5004
   8400640.03849   6534847.73046  23225845.3924   23225844.2164
     -1959.2034      -1526.6524         43.7504         22.7504
   -449209.43649   -334595.40646  24100771.6034   24100769.5174
      2549.4224       1986.5634         41.2504         19.2504
 -11915141.70549  -9276131.13048  19427122.7674   19427117.1424
       981.8754        765.0974         51.2504         46.5004
  -8119643.05349  -6309609.84446  23074164.6264   23074160.5094
      3414.6094       2660.7354         38.7504         22.7504
 -18684684.89749 -14552848.86848  20157487.8294   20157483.7434
      2443.7194       1904.1964         50.0004         41.5004
   7146820.13949   5556948.75247  22235578.7744   22235574.7784
     -1774.4064      -1382.6544         45.0004         33.0004
   7162739.08749   5566963.77446  23740668.4854   23740669.3924
     -1365.6564      -1064.1484         40.0004         20.0004
 01  7  3  2  0 29.9970000  0  8G 1G11G 4G20G13G22G25G29
 -13170723.40949 -10255795.94948  20525367.6034   20525363.3334
      2217.8444       1728.1904         52.7504         42.2504
   8459420.31649   6580650.33346  23237031.2284   23237030.8844
     -1959.5004      -1526.8834         42.7504         24.5004
   -525465.31749   -394015.52746  24086260.6494   24086258.3884
      2534.2504       1974.7404         41.2504         17.2504
 -11944321.94349  -9298868.99048  19421570.1034   19421564.1104
       963.5634        750.8284         52.0004         46.5004
  -8222072.07249  -6389424.56246  23054672.2354   23054669.2514
      3413.9844       2660.2484         41.5004         24.0004
 -18757710.89249 -14609752.19948  20143591.4624   20143587.2674
      2424.7974       1889.4524         52.0004         41.5004
   7200096.99149   5598463.12947  22245716.9544   22245713.6814
     -1777.2344      -1384.8584         45.0004         34.0004
   7203749.57249   5598919.93246  23748474.1034   23748472.9624
     -1368.2664      -1066.1814         42.5004         21.2504
 01  7  3  2  0 59.9970000  0  8G 1G11G 4G20G13G22G25G29
 -13237199.42849 -10307595.42548  20512717.7744   20512713.1964
      2213.9224       1725.1344         53.0004         42.7504
   8518202.77749   6626454.71446  23248216.9854   23248216.6304
     -1959.3444      -1526.7614         43.2504         24.7504
   -601269.93049   -453084.00446  24071833.0244   24071833.9464
      2519.2664       1963.0644         39.0004         17.7504
 -11972958.40949  -9321183.12348  19416120.3994   19416115.1654
       945.4694        736.7294         52.2504         46.2504
  -8324487.56649  -6469228.75746  23035182.6964   23035180.1734
      3413.7034       2660.0284         38.7504         23.5004
 -18830174.19249 -14666217.06548  20129801.7284   20129797.5794
      2406.0634       1874.8544         51.7504         41.0004
   7253453.85549   5640039.84347  22255870.5564   22255866.9154
     -1779.8594      -1386.9034         45.5004         32.5004
   7244829.06149   5630929.88446  23756290.1494   23756290.2784
     -1370.3914      -1067.8374         41.0004         21.7504
 01  7  3  2  1 29.9970000  0  8G 1G11G 4G20G13G22G25G29
 -13303554.21949 -10359300.43648  20500090.9544   20500086.3924
      2209.9224       1722.0174         52.5004         43.0004
   8576984.23549   6672258.36246  23259402.3604   23259402.1064
     -1959.2344      -1526.6764         42.7504         22.0004
   -676621.64049   -511799.56246  24057496.4544   24057494.7004
      2504.2814       1951.3884         41.5004         17.7504
 -12001050.65849  -9343073.19048  19410775.0634   19410769.1464
       927.4694        722.7034         52.5004         46.2504
  -8426889.61149  -6549022.44346  23015697.1184   23015693.8604
      3413.2034       2659.6394         40.0004         23.5004
 -18902073.03849 -14722242.09648  20116120.2124   20116115.7204
      2387.2974       1860.2314         50.5004         41.5004
   7306888.56649   5681677.22647  22266038.3994   22266034.9664
     -1782.2814      -1388.7914         45.5004         32.5004
   7285977.78649   5662993.70746  23764121.4854   23764121.2204
     -1372.5944      -1069.5544         40.5004         21.2504
 01  7  3  2  1 59.9970000  0  8G 1G11G 4G20G13G22G25G29
 -13369791.81349 -10410914.13348  20487486.2284   20487481.9114
      2206.0004       1718.9614         53.2504         42.5004
   8635757.77949   6718055.73646  23270585.6574   23270587.0754
     -1958.9534      -1526.4574         40.7504         22.0004
   -751524.06749   -570165.09146  24043241.8134   24043240.6654
      2489.3134       1939.7244         39.2504         19.2504
 -12028602.30049  -9364542.01848  19405531.8534   19405526.3254
       909.3914        708.6164         53.0004         46.5004
  -8529282.33649  -6628808.94546  22996211.0324   22996208.3684
      3412.9064       2659.4074         43.2504         25.0004
 -18973410.19549 -14777829.45848  20102544.8994   20102540.7284
      2368.5004       1845.5844         51.0004         41.5004
   7360395.02049   5723370.50447  22276220.6734   22276216.7824
     -1784.6724      -1390.6534         45.7504         33.0004
   7327191.50449   5695108.17246  23771965.0634   23771963.6614
     -1374.7814      -1071.2584         42.0004         20.2504
 01  7  3  2  2 29.9970000  0  8G 1G11G 4G20G13G22G25G29
 -13435907.52049 -10462432.83848  20474904.7824   20474900.2784
      2201.8594       1715.7354         52.5004         42.2504
   8694524.67949   6763847.92246  23281770.1654   23281770.3334
     -1958.7664      -1526.3114         41.2504         23.0004
   -825971.54349   -628176.02746  24029074.6734   24029073.0634
      2474.0004       1927.7924         39.0004         17.2504
 -12055608.52049  -9385585.82648  19400392.7984   19400387.4424
       891.1724        694.4204         51.7504         46.2504
  -8631661.44949  -6708584.78146  22976729.1104   22976725.9504
      3412.3444       2658.9694         42.5004         24.7504
 -19044179.45749 -14832974.30048  20089077.8064   20089073.8254
      2349.4844       1830.7674         51.5004         42.0004
   7413976.22749   5765122.03047  22286416.7824   22286413.2204
     -1787.2814      -1392.6874         44.5004         33.0004
   7368474.71749   5727276.90946  23779820.5794   23779819.5714
     -1377.2664      -1073.1944         41.2504         20.7504
 01  7  3  2  2 59.9970000  0  8G 1G11G 4G20G13G22G25G29
 -13501898.31849 -10513854.22748  20462347.1264   20462343.0674
      2197.4534       1712.3014         53.0004         42.5004
   8753284.62649   6809634.74946  23292952.2824   23292951.6614
     -1958.6254      -1526.2014         43.2504         22.2504
   -899960.14849   -685829.45046  24014994.8134   24014994.3414
      2458.5634       1915.7634         40.0004         18.2504
 -12082066.05649  -9406202.09548  19395358.1104   19395352.7514
       872.6094        679.9554         52.0004         46.2504
  -8734024.15549  -6788347.83546  22957250.0794   22957247.5954
      3411.7194       2658.4824         44.0004         25.0004
 -19114375.80049 -14887672.71348  20075720.1104   20075715.6144
      2330.1724       1815.7184         51.5004         41.5004
   7467632.72249   5806932.23247  22296627.5874   22296623.8724
     -1789.9064      -1394.7324         46.2504         32.5004
   7409830.16649   5759501.76546  23787691.1104   23787690.1424
     -1379.7034      -1075.0934         42.2504         19.5004
 01  7  3  2  3 29.9970000  0  8G 1G11G 4G20G13G22G25G29
 -13567763.50849 -10565177.73148  20449813.3064   20449809.0014
      2193.3914       1709.1364         53.0004         42.2504
   8812035.15649   6855414.19046  23304132.0794   23304131.4544
     -1958.0944      -1525.7874         43.2504         22.5004
   -973488.85149   -743124.46646  24001003.6884   24001002.2674
      2443.3284       1903.8924         39.7504         18.2504
 -12107974.32149  -9426390.34948  19390427.8994   19390422.6884
       854.4694        665.8204         52.2504         46.0004
  -8836370.24949  -6868097.95046  22937774.6264   22937771.6034
      3411.3284       2658.1784         44.0004         25.5004
 -19183997.04049 -14941922.99348  20062471.5014   20062467.0054
      2311.0634       1800.8284         51.0004         41.5004
   7521363.51349   5848800.33247  22306851.9384   22306848.6064
     -1792.2814      -1396.5834         44.7504         31.2504
   7451258.25449   5791783.42246  23795573.2204   23795573.2864
     -1382.1414      -1076.9934         40.7504         18.5004
 01  7  3  2  3 59.9970000  0  8G 1G11G 4G20G13G22G25G29
 -13633500.61349 -10616401.42648  20437303.9784   20437300.1964
      2189.0634       1705.7634         52.5004         42.7504
   8870775.43649   6901185.64246  23315310.4234   23315310.3294
     -1957.8284      -1525.5804         44.2504         22.5004
  -1046554.23049   -800058.58546  23987099.1654   23987097.8844
      2427.7974       1891.7904         40.0004         18.5004
 -12133330.29649  -9446148.26348  19385602.6494   19385597.3454
       836.0314        651.4534         52.2504         46.0004
  -8938697.25149  -6947833.21046  22918302.9314   22918299.6734
      3410.5944       2657.6064         42.5004         25.5004
 -19253039.45249 -14995722.22548  20049333.3374   20049328.6964
      2291.8284       1785.8404         52.0004         42.0004
   7575168.90149   5890726.55447  22317091.7044   22317087.5674
     -1794.6724      -1398.4464         45.0004         32.5004
   7492760.96249   5824123.06446  23803472.1034   23803471.0714
     -1384.6724      -1078.9654         42.5004         19.2504
 01  7  3  2  4 29.9970000  0  8G 1G11G 4G20G13G22G25G29
 -13699113.52249 -10667528.35448  20424818.1814   20424814.1534
      2185.0314       1702.6224         52.5004         43.0004
   8929498.51649   6946943.77346  23326485.1654   23326484.1064
     -1957.0784      -1524.9964         43.0004         21.0004
  -1119159.21849   -856633.83646  23973283.2824   23973282.3294
      2412.5314       1879.8944         39.2504         17.7504
 -12158137.66649  -9465478.68048  19380882.0954   19380876.5634
       817.7814        637.2324         53.0004         46.0004
  -9041009.16449  -7027556.68347  22898832.4074   22898830.4114
      3410.1254       2657.2404         40.5004         25.7504
 -19321505.68549 -15049072.50648  20036304.3294   20036300.2904
      2272.5784       1770.8404         51.2504         41.5004
   7629043.17749   5932706.44947  22327342.9704   22327339.4384
     -1796.9374      -1400.2114         44.0004         32.5004
   7534334.60249   5856518.04146  23811380.4464   23811382.7554
     -1387.0314      -1080.8044         40.0004         19.0004
 01  7  3  2  4 59.9970000  0  8G 1G11G 4G20G13G22G25G29
 -13764601.64649 -10718558.04748  20412356.2044   20412352.9074
      2180.8914       1699.3954         52.5004         42.5004
   8988201.86549   6992686.43146  23337655.0564   23337655.6654
     -1956.4534      -1524.5094         41.2504         19.7504
  -1191302.69449   -912849.48046  23959555.3684   23959552.9664
      2397.1414       1867.9024         41.0004         14.7504
 -12182395.84549  -9484381.16548  19376265.9854   19376260.9424
       799.4844        622.9754         52.0004         46.2504
  -9143305.93849  -7107268.36147  22879366.5324   22879363.2864
      3409.6254       2656.8514         43.7504         27.0004
 -19389393.33849 -15101971.93448  20023386.0954   20023381.5324
      2253.3594       1755.8644         51.5004         42.0004
   7682984.55849   5974738.63247  22337607.7514   22337603.9814
     -1799.0474      -1401.8554         43.5004         32.7504
   7575979.21949   5888968.29646  23819305.7354   23819306.6104
     -1389.5164      -1082.7394         39.2504         19.5004
 01  7  3  2  5 29.9970000  0  8G 1G11G 4G20G13G22G25G29
 -13829961.38049 -10769487.69148  20399918.6494   20399914.7714
      2176.5944       1696.0474         52.7504         42.7504
   9046885.58949   7038413.82646  23348822.0324   23348823.7284
     -1955.6564      -1523.8884         41.2504         22.0004
  -1262980.18649   -968702.02646  23945915.2984   23945913.5054
      2381.5164       1855.7264         39.7504         19.5004
 -12206101.14049  -9502852.83448  19371755.0714   19371749.5834
       781.0944        608.6444         52.0004         46.2504
  -9245584.07149  -7186965.53546  22859903.4624   22859900.5794
      3409.0634       2656.4124         42.7504         24.7504
 -19456697.15049 -15154416.42948  20010578.3374   20010574.1614
      2233.8914       1740.6944         51.7504         41.5004
   7736994.73549   6016824.43147  22347885.7204   22347882.3174
     -1801.2974      -1403.6084         43.5004         31.7504
   7617698.10549   5921476.52746  23827246.5954   23827245.6694
     -1391.7974      -1084.5174         40.7504         18.2504
 01  7  3  2  5 59.9970000  0  8G 1G11G 4G20G13G22G25G29
 -13895192.43549 -10820317.07548  20387505.6814   20387501.1224
      2172.2034       1692.6264         53.2504         43.0004
   9105546.92349   7084123.82146  23359984.5244   23359985.7744
     -1955.0164      -1523.3894         41.5004         21.5004
  -1334191.07049  -1024191.01246  23932364.1814   23932362.5754
      2365.8444       1843.5154         40.7504         18.2504
 -12229253.02249  -9520893.26648  19367349.2984   19367344.1344
       762.4534        594.1194         52.0004         46.5004
  -9347843.31049  -7266647.97846  22840444.6104   22840441.3564
      3408.3134       2655.8284         44.5004         23.7504
 -19523415.50849 -15206404.72048  19997882.1884   19997877.4624
      2214.1564       1725.3174         51.2504         41.7504
   7791071.99749   6058962.50347  22358175.9314   22358172.2354
     -1803.7664      -1405.5324         43.0004         32.2504
   7659491.53049   5954042.74246  23835198.6034   23835198.3994
     -1394.4224      -1086.5624         39.5004         18.5004
 01  7  3  2  6 29.9970000  0  8G 1G11G 4G20G13G22G25G29
 -13960293.27249 -10871044.97848  20375117.4784   20375113.1034
      2167.7344       1689.1444         53.7504         43.0004
   9164184.11349   7129814.90246  23371144.2744   23371144.3294
     -1954.1254      -1522.6954         42.2504         22.7504
  -1404932.97749  -1079314.52046  23918902.1814   23918900.6774
      2350.1414       1831.2784         38.5004         14.7504
 -12251850.12949  -9538501.40748  19363049.0244   19363044.1264
       743.9064        579.6674         51.7504         46.2504
  -9450083.13049  -7346315.23747  22820988.4464   22820985.2714
      3407.6564       2655.3174         43.5004         26.0004
 -19589546.04749 -15257934.97848  19985297.7514   19985293.4194
      2194.4384       1709.9514         50.7504         41.5004
   7845215.71649   6101152.35047  22368479.4854   22368476.1224
     -1805.9224      -1407.2124         43.0004         32.0004
   7701360.38049   5986667.77046  23843166.4314   23843167.1774
     -1397.0314      -1088.5964         39.2504         17.2504
 01  7  3  2  6 59.9970000  0  8G 1G11G 4G20G13G22G25G29
 -14025262.78749 -10921670.56348  20362754.1184   20362749.8724
      2163.3754       1685.7474         51.0004         43.2504
   9222795.27949   7175485.77646  23382298.3684   23382297.9544
     -1953.3914      -1522.1234         43.0004         22.5004
  -1475204.30849  -1134071.37546  23905531.4464   23905528.0404
      2334.3134       1818.9454         41.5004         17.2504
 -12273891.38949  -9555676.41948  19358854.9314   19358849.6264
       725.3284        565.1914         52.5004         46.0004
  -9552302.57549  -7425966.68647  22801537.3534   22801533.5214
      3406.9384       2654.7564         43.7504         26.0004
 -19655086.46949 -15309005.40048  19972825.8764   19972821.9704
      2174.7194       1694.5864         49.2504         41.5004
   7899424.97049   6143393.26847  22378794.9074   22378791.8884
     -1808.0474      -1408.8684         43.0004         32.2504
   7743305.70349   6019352.38846  23851147.5714   23851148.6184
     -1399.4224      -1090.4594         38.5004         19.0004
 01  7  3  2  7 29.9970000  0  8G 1G11G 4G20G13G22G25G29
 -14090100.37949 -10972193.35848  20350416.0244   20350412.0244
      2159.1724       1682.4724         53.0004         43.2504
   9281377.46949   7221134.02046  23393445.5714   23393445.5874
     -1952.3124      -1521.2824         41.5004         20.5004
  -1545003.77849  -1188460.52846  23892246.3924   23892246.1064
      2318.7814       1806.8434         36.7504         19.0004
 -12295376.06749  -9572417.73748  19354766.6964   19354761.1304
       706.8284        550.7754         52.5004         46.2504
  -9654500.78349  -7505601.57947  22782088.7904   22782086.2044
      3406.2664       2654.2334         44.5004         25.7504
 -19720034.30649 -15359614.06948  19960467.0014   19960462.4814
      2154.8754       1679.1234         51.5004         42.0004
   7953698.46449   6185684.25247  22389122.8764   22389119.8374
     -1810.2194      -1410.5604         44.2504         32.0004
   7785327.76849   6052096.86746  23859145.0874   23859145.7594
     -1402.0164      -1092.4804         39.2504         18.2504
 01  7  3  2  7 59.9970000  0  8G 1G11G 4G20G13G22G25G29
 -14154805.81249 -11022613.15848  20338102.9154   20338098.9114
      2154.6414       1678.9414         51.7504         43.0004
   9339927.76449   7266757.44146  23404587.8134   23404588.1464
     -1951.1254      -1520.3574         41.5004         21.5004
  -1614330.65849  -1242481.41846  23879054.5174   23879054.5214
      2303.1254       1794.6434         37.2504         19.5004
 -12316303.97149  -9588725.19948  19350784.2354   19350779.0324
       688.3914        536.4084         52.5004         46.5004
  -9756677.78949  -7585219.93447  22762645.4234   22762642.0444
      3405.5944       2653.7094         44.2504         26.0004
 -19784387.93449 -15409759.72148  19948220.7044   19948216.3174
      2135.2344       1663.8194         49.5004         42.0004
   8008034.53749   6228023.99147  22399462.6104   22399459.8064
     -1812.1414      -1412.0584         45.0004         32.2504
   7827426.42049   6084900.93046  23867155.6734   23867156.7284
     -1404.4224      -1094.3554         38.0004         17.2504
 01  7  3  2  8 29.9970000  0  8G 1G11G 4G20G13G22G25G29
 -14219379.69249 -11072930.46648  20325815.0404   20325810.6384
      2150.1724       1675.4594         53.0004         43.0004
   9398442.53849   7312353.20246  23415723.2744   23415723.1464
     -1949.9064      -1519.4074         41.5004         22.0004
  -1683184.67749  -1296133.93046  23865951.7904   23865951.0244
      2287.2344       1782.2614         39.5004         18.2504
 -12336675.57649  -9604599.18848  19346907.4384   19346902.2634
       669.6564        521.8104         52.0004         46.2504
  -9858834.39349  -7664822.39247  22743205.8534   22743202.3454
      3404.8754       2653.1494         45.0004         26.0004
 -19848146.86649 -15459441.96848  19936087.6734   19936083.6464
      2115.2974       1648.2834         51.7504         42.0004
   8062430.49049   6270410.38047  22409813.9784   22409810.9504
     -1814.2344      -1413.6894         42.5004         32.5004
   7869600.95049   6117764.22146  23875183.2674   23875182.2784
     -1407.0784      -1096.4254         40.7504         18.5004
 01  7  3  2  8 59.9970000  0  8G 1G11G 4G20G13G22G25G29
 -14283818.49349 -11123142.49648  20313552.6344   20313548.1574
      2145.8134       1672.0624         53.0004         43.7504
   9456922.04449   7357921.47446  23426850.9624   23426851.7824
     -1948.6874      -1518.4584         39.5004         22.7504
  -1751562.12549  -1349415.00846  23852941.2284   23852939.1104
      2271.2034       1769.7694         40.0004         18.2504
 -12356487.63649  -9620037.16848  19343137.5794   19343132.0324
       651.1724        507.4074         52.2504         46.0004
  -9960967.53849  -7744406.60447  22723770.2284   22723767.0994
      3404.0944       2652.5414         45.5004         26.0004
 -19911306.92249 -15508657.57048  19924068.6264   19924064.0214
      2095.4064       1632.7844         52.7504         41.7504
   8116887.87049   6312844.64447  22420177.0094   22420173.7714
     -1816.2344      -1415.2484         43.5004         32.2504
   7911854.39449   6150688.97646  23883223.2744   23883221.9114
     -1409.7194      -1098.4824         39.2504         19.2504
 01  7  3  2  9 29.9970000  0  8G 1G11G 4G20G13G22G25G29
 -14348123.08249 -11173249.95648  20301315.7354   20301311.7124
      2141.1414       1668.4214         54.5004         43.7504
   9515362.13549   7403458.98946  23437972.1424   23437973.0874
     -1947.5164      -1517.5454         40.0004         22.2504
  -1819463.34049  -1402325.09446  23840017.8994   23840018.2314
      2255.3594       1757.4234         38.0004         18.5004
 -12375741.22149  -9635039.98048  19339473.4544   19339468.0014
       632.3134        492.7114         52.5004         46.2504
 -10063078.33949  -7823973.36846  22704338.7744   22704335.4974
      3403.1254       2651.7864         45.2504         25.5004
 -19973867.64349 -15557406.15648  19912163.6654   19912159.5014
      2075.2344       1617.0664         52.5004         42.0004
   8171403.67449   6355324.43547  22430551.1264   22430548.2284
     -1818.2034      -1416.7824         44.5004         32.0004
   7954185.60349   6183674.37646  23891277.3064   23891277.6034
     -1412.4374      -1100.6014         37.0004         18.5004
 01  7  3  2  9 59.9970000  0  8G 1G11G 4G20G13G22G25G29
 -14412292.87349 -11223252.37648  20289104.6034   20289100.0834
      2136.5474       1664.8424         52.2504         42.7504
   9573760.20649   7448963.80746  23449085.7984   23449085.0324
     -1945.9224      -1516.3034         39.5004         21.5004
  -1886887.45549  -1454863.29246  23827188.6884   23827187.1464
      2239.3284       1744.9314         38.7504         18.5004
 -12394435.72949  -9649607.13948  19335916.2674   19335910.5714
       613.7344        478.2354         52.5004         46.0004
 -10165166.47049  -7903522.44546  22684912.0714   22684909.0994
      3402.3594       2651.1894         45.2504         25.0004
 -20035826.79149 -15605685.98348  19900373.2904   19900369.2744
      2055.1254       1601.3964         51.7504         42.0004
   8225976.92249   6397848.98247  22440936.3994   22440933.2984
     -1820.2194      -1418.3524         43.0004         31.7504
   7996594.82349   6216720.41546  23899348.9314   23899347.5324
     -1415.1094      -1102.6834         38.7504         18.2504
 01  7  3  2 10 29.9970000  0  8G 1G11G 4G20G13G22G25G29
 -14476324.54049 -11273147.17048  20276919.6494   20276915.1304
      2132.1254       1661.3964         53.5004         43.0004
   9632116.46949   7494435.99546  23460189.2514   23460191.4424
     -1944.3914      -1515.1104         38.7504         25.2504
  -1953830.50749  -1507026.65946  23814450.5484   23814448.6184
      2223.4064       1732.5244         38.5004         19.5004
 -12412568.03349  -9663736.21948  19332465.7514   19332460.5324
       595.0474        463.6734         52.2504         46.5004
 -10267228.60549  -7983051.32747  22665490.2284   22665486.6774
      3401.6724       2650.6534         45.2504         25.7504
 -20097179.92449 -15653493.58848  19888698.0174   19888694.1884
      2035.0474       1585.7514         52.2504         42.2504
   8280608.73349   6440419.16447  22451332.3374   22451329.0244
     -1821.9374      -1419.6924         42.2504         31.2504
   8039085.04549   6249829.63346  23907434.7434   23907433.7474
     -1417.7194      -1104.7164         40.5004         16.7504
 01  7  3  2 10 59.9970000  0  8G 1G11G 4G20G13G22G25G29
 -14540222.83749 -11322938.02648  20264760.2514   20264756.2004
      2127.6884       1657.9384         53.5004         43.2504
   9690422.91449   7539869.44246  23471285.8454   23471286.3134
     -1942.6874      -1513.7824         40.0004         22.5004
  -2020296.96549  -1558818.64846  23801802.2594   23801799.6574
      2207.5004       1720.1304         38.2504         17.7504
 -12430143.36749  -9677431.28848  19329121.4074   19329115.9354
       576.5314        449.2454         52.0004         46.0004
 -10369269.97949  -8062563.99847  22646072.0954   22646069.2514
      3400.9844       2650.1184         44.2504         26.0004
 -20157931.21149 -15700832.22348  19877137.6424   19877132.7904
      2014.9064       1570.0574         52.5004         41.7504
   8335291.92949   6483029.39047  22461738.2594   22461734.7084
     -1823.6724      -1421.0434         43.0004         31.2504
   8081651.03949   6282997.92246  23915534.0564   23915533.5604
     -1420.1254      -1106.5914         38.5004         17.2504
 01  7  3  2 11 29.9970000  0  9G 1G11G 4G20G13G22G25G29G27
 -14603984.49849 -11372622.42148  20252627.0634   20252622.6464
      2123.2344       1654.4684         53.0004         43.5004
   9748679.91549   7585264.29346  23482371.2284   23482372.8804
     -1940.9224      -1512.4074         39.0004         21.2504
  -2086282.81849  -1610236.20046  23789246.5794   23789243.7514
      2191.6094       1707.7484         40.0004         19.2504
 -12447158.32649  -9690689.71048  19325883.6424   19325878.1964
       557.9384        434.7564         51.7504         46.0004
 -10471287.65049  -8142058.20847  22626659.2514   22626655.6964
      3400.2664       2649.5584         45.7504         26.7504
 -20218076.45549 -15747698.62748  19865692.4314   19865688.0284
      1994.8134       1554.3994         52.2504         42.0004
   8390028.18149   6525680.95247  22472154.8454   22472150.7474
     -1825.2974      -1422.3094         43.7504         30.7504
   8124295.99549   6316227.70546  23923648.2674   23923648.4194
     -1422.8914      -1108.7464         38.5004         19.2504
   -181044.74159   -133264.15556  24346456.2044   24346457.6034
      3772.8914       2939.9154         40.0004         19.5004
 01  7  3  2 11 59.9970000  0  8G 1G11G 4G20G13G22G25G27
 -14667613.85449 -11422203.71948  20240518.9704   20240514.9894
      2118.7034       1650.9384         53.5004         43.0004
   9806879.45549   7630614.38946  23493446.2984   23493447.6614
     -1939.0784      -1510.9704         38.7504         21.7504
  -2151792.28449  -1661282.46546  23776779.8684   23776777.8564
      2175.7974       1695.4264         36.5004         19.7504
 -12463617.50349  -9703515.04148  19322751.3844   19322746.0134
       539.3134        420.2444         51.7504         46.0004
 -10573286.08349  -8221537.44547  22607249.1964   22607246.3334
      3399.5314       2648.9854         44.7504         27.2504
 -20277618.64449 -15794095.10048  19854361.7824   19854357.7004
      1974.6724       1538.7054         52.7504         42.0004
   8444810.95649   6568368.78447  22482578.8534   22482575.9784
     -1826.9064      -1423.5634         43.2504         31.0004
   -294175.31749   -221417.50446  24324927.7354   24324929.0874
      3769.1094       2936.9684         40.2504         16.2504
 01  7  3  2 12 29.9970000  0  8G 1G11G 4G20G13G22G25G27
 -14731106.67349 -11471678.63448  20228436.4934   20228432.0674
      2114.0314       1647.2974         52.2504         43.2504
   9865022.64549   7675920.61646  23504511.2434   23504511.8724
     -1937.2814      -1509.5704         39.5004         22.5004
  -2216820.94449  -1711954.14046  23764404.4784   23764403.9934
      2159.5634       1682.7764         39.0004         19.7504
 -12479517.12849  -9715904.37948  19319725.7594   19319720.5054
       520.5314        405.6094         52.0004         46.0004
 -10675261.06649  -8300998.37847  22587844.5404   22587841.0364
      3398.6414       2648.2914         45.5004         27.2504
 -20336552.29549 -15840017.40848  19843146.9854   19843142.7314
      1954.1414       1522.7074         50.7504         42.0004
   8499642.72349   6611094.77547  22493013.1814   22493010.2314
     -1828.6254      -1424.9034         43.2504         30.5004
   -407192.64349   -309482.69346  24303420.1884   24303422.2124
      3765.2034       2933.9254         40.0004         19.0004
 01  7  3  2 12 59.9970000  0  8G 1G11G 4G20G13G22G25G27
 -14794452.54549 -11521039.02848  20216382.1344   20216377.7824
      2109.0004       1643.3774         53.7504         43.5004
   9923116.84849   7721188.58746  23515567.3764   23515567.4934
     -1935.7194      -1508.3524         40.5004         24.0004
  -2281357.98949  -1762242.67946  23752123.4624   23752121.9114
      2143.0784       1669.9314         40.0004         20.0004
 -12494847.13349  -9727849.84648  19316808.6034   19316803.7674
       501.4694        390.7554         52.5004         46.0004
 -10777202.96049  -8380433.52847  22568445.0714   22568441.6654
      3397.4224       2647.3424         45.7504         26.2504
 -20394866.43249 -15885456.95948  19832050.2594   19832045.7674
      1933.4384       1506.5754         52.7504         41.7504
   8554531.97149   6653865.55947  22503458.2904   22503454.9114
     -1830.5944      -1426.4374         43.0004         29.7504
   -520086.21349   -397451.34346  24281938.1654   24281939.4704
      3760.9534       2930.6134         40.5004         19.5004
 01  7  3  2 13 29.9970000  0  8G 1G11G 4G20G13G22G25G27
 -14857654.25249 -11570287.09848  20204355.0954   20204350.7284
      2104.3594       1639.7614         54.0004         43.2504
   9981155.76649   7766413.55546  23526610.5014   23526611.5014
     -1933.6564      -1506.7454         38.5004         20.2504
  -2345405.84249  -1812150.01946  23739936.7434   23739934.8644
      2126.8134       1657.2564         40.7504         20.2504
 -12509610.73449  -9739353.97648  19313999.3134   19313993.6694
       482.7034        376.1324         52.5004         46.2504
 -10879114.48449  -8459845.04247  22549052.2434   22549048.3494
      3396.5944       2646.6964         46.0004         26.7504
 -20452563.40949 -15930415.62148  19821070.7744   19821066.6464
      1912.9384       1490.6014         52.5004         42.0004
   8609473.36249   6696676.98247  22513912.7904   22513909.8174
     -1832.2344      -1427.7154         43.0004         30.2504
   -632858.61849   -485325.77946  24260479.0484   24260478.9624
      3757.0314       2927.5574         39.5004         19.0004
 01  7  3  2 13 59.9970000  0  8G 1G11G 4G20G13G22G25G27
 -14920713.32549 -11619424.03048  20192355.4544   20192351.0484
      2099.7664       1636.1814         54.0004         43.5004
  10039134.94749   7811591.94546  23537645.0014   23537645.7594
     -1931.3754      -1504.9684         38.5004         22.2504
  -2408965.98249  -1861677.37546  23727840.5794   23727839.7824
      2110.6724       1644.6794         39.0004         20.7504
 -12523809.82449  -9750418.20848  19311297.1654   19311291.8924
       464.0634        361.6074         52.2504         46.2504
 -10980997.54449  -8539234.34147  22529664.1654   22529660.8494
      3395.7504       2646.0394         44.2504         27.5004
 -20509643.62849 -15974893.68448  19810208.6964   19810204.6734
      1892.5474       1474.7124         52.5004         42.0004
   8664463.69249   6739526.53447  22524377.5174   22524374.7284
     -1833.7504      -1428.8964         43.5004         29.7504
   -745511.44549   -573106.79646  24239040.1964   24239041.8254
      3753.2974       2924.6474         41.0004         21.0004
 01  7  3  2 14 29.9970000  0  8G 1G11G 4G20G13G22G25G27
 -14983633.15349 -11668452.45348  20180382.0954   20180377.7354
      2094.8754       1632.3704         53.2504         43.5004
  10097047.72049   7856718.61046  23548665.2044   23548665.4234
     -1929.4694      -1503.4824         39.0004         20.7504
  -2472041.37249  -1910826.92646  23715837.3454   23715836.3964
      2094.2194       1631.8594         39.2504         20.7504
 -12537448.13949  -9761045.48448  19308702.0954   19308696.8604
       445.0474        346.7904         52.5004         46.2504
 -11082855.53249  -8618604.15647  22510281.9384   22510278.1774
      3394.6414       2645.1754         43.7504         26.2504
 -20566109.04649 -16018892.69348  19799463.9934   19799459.6144
      1871.7344       1458.4944         53.0004         42.0004
   8719497.60649   6782410.05447  22534849.5014   22534847.2824
     -1835.3914      -1430.1754         43.7504         30.0004
   -858047.69748   -660797.11346  24217623.7434   24217626.1774
      3749.0784       2921.3604         35.0004         17.2504
 01  7  3  2 14 59.9970000  0  8G 1G11G 4G20G13G22G25G27
 -15046408.46649 -11717368.26148  20168436.1424   20168432.0364
      2090.0944       1628.6444         53.5004         44.2504
  10154896.25949   7901795.21046  23559672.3134   23559673.5484
     -1927.0164      -1501.5714         36.5004         21.0004
  -2534626.59749  -1959594.53446  23703928.3684   23703926.7594
      2077.8284       1619.0874         40.0004         20.5004
 -12550520.63849  -9771231.85648  19306214.3294   19306208.9234
       426.3444        332.2164         52.0004         46.0004
 -11184683.65349  -8697950.67447  22490904.5094   22490900.0564
      3393.8444       2644.5544         43.0004         26.7504
 -20621953.70849 -16062407.98248  19788836.8604   19788832.0794
      1851.1414       1442.4474         52.5004         42.2504
   8774578.66849   6825330.30147  22545331.8684   22545329.2204
     -1836.9064      -1431.3564         44.0004         29.2504
   -970461.98749   -748392.38546  24196232.7744   24196235.4464
      3745.0314       2918.2064         40.7504         22.5004
 01  7  3  2 15 29.9970000  0  8G 1G11G 4G20G13G22G25G27
 -15109035.97649 -11766168.91548  20156518.9544   20156514.1964
      2085.1564       1624.7974         53.5004         43.7504
  10212680.51349   7946821.71446  23570669.8214   23570669.4744
     -1924.9534      -1499.9634         37.7504         19.0004
  -2596718.41649  -2007977.82846  23692112.8684   23692110.9664
      2061.6254       1606.4614         41.7504         19.5004
 -12563024.79949  -9780975.38148  19303835.1104   19303829.4544
       407.3594        317.4234         51.7504         46.0004
 -11286478.98749  -8777271.62647  22471532.9464   22471529.5564
      3392.7194       2643.6774         41.2504         25.7504
 -20677174.15149 -16105436.87848  19778328.7434   19778324.4194
      1830.3134       1426.2184         52.7504         42.0004
   8829707.65849   6868287.90947  22555823.0564   22555819.7284
     -1838.4064      -1432.5244         44.0004         29.5004
  -1082751.18349   -835890.18246  24174865.6494   24174866.3964
      3740.9844       2915.0534         41.0004         20.2504
 01  7  3  2 15 59.9970000  0  8G 1G11G 4G20G13G22G25G27
 -15171512.41549 -11814851.83648  20144629.9544   20144625.7314
      2080.0314       1620.8044         53.0004         43.5004
  10270400.51949   7991798.14146  23581653.3534   23581654.7394
     -1923.0004      -1498.4424         36.2504         19.5004
  -2658313.44549  -2055973.87446  23680390.5014   23680389.5604
      2044.9064       1593.4334         40.5004         20.2504
 -12574957.80849  -9790273.83748  19301564.1424   19301559.0014
       388.2504        302.5324         51.7504         46.0004
 -11388238.38949  -8856564.59147  22452169.0244   22452165.5134
      3391.2974       2642.5694         41.5004         27.0004
 -20731766.57349 -16147976.40048  19767940.2204   19767936.2204
      1809.2664       1409.8174         52.5004         42.0004
   8884886.34949   6911284.24747  22566323.2594   22566319.7674
     -1840.1094      -1433.8514         44.5004         30.0004
  -1194911.92249   -923287.81446  24153520.8994   24153523.0914
      3736.4694       2911.5344         37.7504         21.2504
 01  7  3  2 16 29.9970000  0  8G 1G11G 4G20G13G22G25G27
 -15233840.34649 -11863419.04648  20132769.1814   20132764.8374
      2075.0944       1616.9564         53.2504         44.2504
  10328050.49348   8036720.00146  23592623.7514   23592624.1264
     -1920.6874      -1496.6404         34.5004         18.2504
  -2719414.07049  -2103584.73846  23668764.1574   23668763.6614
      2028.4694       1580.6254         40.5004         20.7504
 -12586322.93649  -9799129.80048  19299401.4074   19299396.1034
       369.2974        287.7644         51.5004         46.2504
 -11489964.76049  -8935831.82347  22432810.6884   22432807.0284
      3390.3444       2641.8264         42.0004         26.7504
 -20785732.38149 -16190027.65448  19757671.0874   19757666.5564
      1788.3914       1393.5514         52.7504         42.7504
   8940109.89249   6954315.53247  22576831.2124   22576828.6464
     -1841.6254      -1435.0324         43.2504         29.5004
  -1306946.76548  -1010587.51046  24132200.1964   24132203.2314
      3732.4384       2908.3934         35.7504         20.7504
 01  7  3  2 16 59.9970000  0  8G 1G11G 4G20G13G22G25G27
 -15296018.39849 -11911869.46348  20120937.2434   20120932.8254
      2070.0474       1613.0244         53.0004         43.5004
  10385628.66349   8081585.86546  23603581.4074   23603581.7434
     -1918.1414      -1494.6554         36.5004         19.7504
  -2780018.71948  -2150809.10046  23657231.2434   23657229.7594
      2011.7814       1567.6224         35.0004         20.2504
 -12597119.30649  -9807542.56448  19297347.0244   19297341.8294
       350.3754        273.0194         51.7504         46.0004
 -11591657.04449  -9015072.50947  22413459.3064   22413455.8374
      3389.1254       2640.8774         42.5004         27.0004
 -20839069.35649 -16231588.91048  19747521.0874   19747516.2434
      1767.4224       1377.2124         52.5004         42.2504
   8995377.56849   6997381.18247  22587348.9854   22587346.0994
     -1843.0624      -1436.1534         45.0004         29.5004
  -1418854.29349  -1097787.95046  24110906.6734   24110907.8454
      3728.1414       2905.0454         41.0004         23.7504
 01  7  3  2 17 29.9970000  0  8G 1G11G 4G20G13G22G25G27
 -15358044.87649 -11960201.76848  20109134.0404   20109129.7244
      2065.0784       1609.1524         53.5004         43.7504
  10443133.35249   8126394.63346  23614523.9934   23614525.1574
     -1915.3914      -1492.5124         37.0004         19.0004
  -2840125.90749  -2197645.93346  23645793.8844   23645791.7514
      1995.4844       1554.9234         42.0004         19.7504
 -12607345.81849  -9815511.27948  19295401.1184   19295395.9034
       331.5004        258.3124         52.2504         46.0004
 -11693313.49049  -9094285.21847  22394114.5714   22394110.9894
      3388.1254       2640.0974         44.0004         26.2504
 -20891775.44049 -16272658.56148  19737491.7904   19737487.3924
      1746.4844       1360.8974         52.5004         42.5004
   9050689.08349   7040481.02147  22597874.0244   22597870.9704
     -1844.3124      -1437.1274         44.0004         30.2504
  -1530632.82349  -1184887.82146  24089635.9384   24089635.0674
      3724.0004       2901.8184         38.5004         21.0004
 01  7  3  2 17 59.9970000  0  8G 1G11G 4G20G13G22G25G27
 -15419919.10149 -12008415.43948  20097359.6264   20097355.3334
      2059.8914       1605.1104         53.2504         43.7504
  10500561.75749   8171143.82846  23625451.8764   23625453.2164
     -1913.0314      -1490.6744         37.2504         20.2504
  -2899734.63449  -2244094.19446  23634450.5324   23634448.5174
      1978.4694       1541.6644         41.2504         20.7504
 -12617002.37449  -9823035.88348  19293563.3844   19293558.1144
       312.2974        243.3484         52.0004         46.2504
 -11794934.41049  -9173470.29547  22374777.2354   22374772.9384
      3386.6564       2638.9534         45.2504         27.5004
 -20943849.74349 -16313235.90948  19727581.9784   19727577.5524
      1725.2034       1344.3144         52.7504         42.5004
   9106043.43049   7083614.23747  22608407.5794   22608404.9194
     -1845.9064      -1438.3694         44.0004         29.0004
  -1642281.57349  -1271886.63646  24068388.0564   24068390.5564
      3719.4694       2898.2874         36.0004         20.5004
 01  7  3  2 18 29.9970000  0  8G 1G11G 4G20G13G22G25G27
 -15481639.59049 -12056509.32748  20085614.7594   20085610.1304
      2054.7194       1601.0804         52.7504         43.5004
  10557912.93249   8215832.85746  23636366.8454   23636366.4784
     -1910.4694      -1488.6774         38.2504         19.0004
  -2958843.59249  -2290153.15046  23623202.6264   23623200.5174
      1961.8914       1528.7464         40.5004         20.5004
 -12626088.06549  -9830115.66648  19291834.3134   19291828.7434
       293.2504        228.5064         52.2504         46.0004
 -11896517.84649  -9252626.13347  22355445.6654   22355442.4234
      3385.3594       2637.9424         45.2504         28.0004
 -20995289.98649 -16353319.20548  19717793.2204   19717788.9704
      1703.9224       1327.7314         52.2504         43.0004
   9161440.03549   7126780.37947  22618949.1344   22618945.9894
     -1847.3284      -1439.4764         44.0004         30.0004
  -1753798.94049  -1358783.10946  24047167.8454   24047168.7354
      3715.0314       2894.8304         38.2504         20.7504
 01  7  3  2 18 59.9970000  0  8G 1G11G 4G20G13G22G25G27
 -15543203.67849 -12104481.32848  20073899.2824   20073895.0564
      2049.5784       1597.0744         53.0004         44.2504
  10615186.07749   8260461.14146  23647263.7044   23647265.6534
     -1907.6564      -1486.4854         37.0004         19.7504
  -3017449.96249  -2335820.41146  23612050.1884   23612047.7474
      1945.1884       1515.7314         41.5004         20.0004
 -12634601.08449  -9836749.20148  19290214.3924   19290209.6064
       274.3134        213.7504         53.0004         46.5004
 -11998061.53149  -9331751.00147  22336123.0954   22336119.3494
      3384.1724       2637.0174         46.2504         27.5004
 -21046092.60649 -16392905.62648  19708125.7204   19708121.3684
      1682.8594       1311.3194         52.2504         42.7504
   9216879.61249   7169979.96747  22629499.6654   22629495.5914
     -1848.5784      -1440.4504         45.2504         29.7504
  -1865182.29549  -1445575.06146  24025973.2904   24025973.0214
      3710.6414       2891.4084         39.0004         20.5004
 01  7  3  2 19 29.9970000  0  8G 1G11G 4G20G13G22G25G27
 -15604618.07749 -12152336.70048  20062212.5564   20062208.3374
      2044.6724       1593.2514         53.5004         43.7504
  10672371.53749   8305021.07346  23658146.5794   23658147.6264
     -1904.7194      -1484.1964         38.5004         19.7504
  -3075560.52149  -2381101.34746  23600990.7674   23600990.0404
      1928.7194       1502.8984         40.2504         19.5004
 -12642548.48049  -9842941.99448  19288702.0404   19288696.8844
       255.4694        199.0674         52.5004         45.7504
 -12099572.32749  -9410850.26147  22316806.2514   22316802.4114
      3383.1094       2636.1894         46.0004         28.5004
 -21096263.69749 -16431999.97248  19698578.6104   19698574.2084
      1661.8444       1294.9434         52.5004         43.0004
   9272353.32249   7213206.20147  22640055.8134   22640052.6144
     -1849.7034      -1441.3274         45.5004         29.7504
  -1976438.41049  -1532267.90846  24004800.3534   24004800.9154
      3706.5474       2888.2184         38.2504         19.0004
 01  7  3  2 19 59.9970000  0  8G 1G11G 4G20G13G22G25G27
 -15665875.61549 -12200069.83448  20050555.7824   20050551.1854
      2039.1724       1588.9654         52.5004         43.5004
  10729473.18849   8349515.74246  23669013.2744   23669014.2634
     -1902.0624      -1482.1274         36.2504         17.7504
  -3133168.54249  -2425990.68946  23590027.6264   23590027.9974
      1911.7194       1489.6514         41.0004         19.5004
 -12649923.99049  -9848689.17048  19287298.6424   19287293.1034
       236.1724        184.0304         52.5004         46.0004
 -12201043.34849  -9489918.50447  22297495.8374   22297492.5834
      3381.6094       2635.0204         45.5004         28.5004
 -21145796.23649 -16470596.71348  19689152.9934   19689148.4744
      1640.3284       1278.1784         53.0004         43.0004
   9327866.42749   7256463.13347  22650619.4934   22650616.1694
     -1851.2034      -1442.4964         44.2504         29.2504
  -2087560.13649  -1618855.97346  23983655.1654   23983654.8804
      3701.6414       2884.3954         37.5004         20.5004
 01  7  3  2 20 29.9970000  0  8G 1G11G 4G20G13G22G25G27
 -15726971.90749 -12247677.32648  20038929.6184   20038925.1184
      2033.7974       1584.7774         52.5004         44.5004
  10786491.38448   8393945.34046  23679862.5014   23679864.8414
     -1899.3754      -1480.0324         35.0004         17.7504
  -3190269.39249  -2470484.89446  23579162.1264   23579161.6574
      1894.7814       1476.4534         40.7504         20.0004
 -12656724.23349  -9853988.07148  19286004.2674   19285999.1104
       217.1414        169.2004         52.0004         45.7504
 -12302470.78849  -9568952.79347  22278195.1264   22278191.6104
      3380.1414       2633.8764         46.5004         27.7504
 -21194685.58749 -16508692.29048  19679849.5954   19679845.0444
      1618.9224       1261.4984         52.7504         43.0004
   9383421.22649   7299752.51247  22661191.1814   22661188.2514
     -1852.4534      -1443.4704         43.0004         28.5004
  -2198543.05149  -1705336.00646  23962535.2984   23962535.9074
      3697.0784       2880.8404         39.5004         21.5004
 01  7  3  2 20 59.9970000  0  8G 1G11G 4G20G13G22G25G27
 -15787908.56949 -12295160.42348  20027333.5794   20027329.4854
      2028.5004       1580.6494         51.7504         44.2504
  10843422.52349   8438307.10546  23690695.6344   23690697.8294
     -1896.3914      -1477.7074         37.5004         17.7504
  -3246864.91949  -2514585.24646  23568392.8994   23568391.8334
      1877.9844       1463.3644         40.7504         19.0004
 -12662951.38749  -9858840.40248  19284819.6104   19284814.3494
       197.9384        154.2374         51.5004         46.0004
 -12403856.02249  -9647954.20547  22258902.4784   22258898.6574
      3378.7344       2632.7804         46.0004         28.7504
 -21242932.67549 -16546287.38948  19670668.1814   19670664.0174
      1597.4844       1244.7934         52.5004         42.7504
   9439014.37349   7343071.79847  22671770.5324   22671767.2784
     -1853.7974      -1444.5174         43.2504         28.0004
  -2309389.00949  -1791709.23146  23941443.0094   23941442.3994
      3692.5474       2877.3094         41.2504         21.2504
 01  7  3  2 21 29.9970000  0  8G 1G11G 4G20G13G22G25G27
 -15848685.13649 -12342518.77648  20015767.9624   20015763.7474
      2023.3444       1576.6314         52.2504         44.0004
  10900263.14848   8482598.33346  23701512.6964   23701515.0404
     -1893.2194      -1475.2354         34.2504         19.2504
  -3302955.06249  -2558291.90046  23557719.7514   23557718.8334
      1861.4224       1450.4594         39.0004         18.5004
 -12668606.03649  -9863246.62948  19283743.5174   19283738.2554
       179.0164        139.4934         51.2504         46.0004
 -12505199.11149  -9726922.75747  22239617.6494   22239614.2204
      3377.4844       2631.8064         46.5004         28.7504
 -21290536.49549 -16583381.24748  19661609.4074   19661605.3214
      1576.1254       1228.1494         53.0004         43.0004
   9494644.24249   7386419.70747  22682356.7284   22682352.8174
     -1854.8594      -1445.3454         42.0004         28.5004
  -2420097.64449  -1877975.46646  23920374.9934   23920375.1064
      3688.2194       2873.9374         41.7504         20.2504
 01  7  3  2 21 59.9970000  0  8G 1G11G 4G20G13G22G25G27
 -15909303.12349 -12389753.57248  20004232.9314   20004228.4584
      2017.7664       1572.2854         53.5004         44.0004
  10957008.40749   8526815.26146  23712313.7674   23712313.4274
     -1890.0004      -1472.7274         38.7504         18.2504
  -3358541.15649  -2601605.63146  23547141.9464   23547140.6884
      1844.2344       1437.0664         40.5004         18.5004
 -12673690.63549  -9867208.67148  19282776.2674   19282770.7714
       159.7504        124.4814         51.2504         46.0004
 -12606502.07149  -9805860.03647  22220339.6184   22220336.7164
      3375.8914       2630.5644         45.5004         29.2504
 -21337498.24249 -16619974.79648  19652672.9854   19652668.6144
      1554.4534       1211.2624         52.5004         42.7504
   9550307.31649   7429793.47147  22692949.2284   22692946.1184
     -1856.1874      -1446.3804         42.5004         29.0004
  -2530670.38549  -1964135.80846  23899332.9314   23899333.5914
      3683.2194       2870.0414         39.0004         19.0004
 01  7  3  2 22 29.9970000  0  8G 1G11G 4G20G13G22G25G27
 -15969757.59449 -12436860.94148  19992728.6264   19992724.4234
      2012.5314       1568.2064         53.0004         44.0004
  11013660.37849   8570959.52446  23723091.7204   23723094.0754
     -1886.7504      -1470.1954         36.7504         20.2504
  -3413618.73049  -2644523.22746  23536660.6964   23536659.5484
      1827.5004       1424.0264         40.7504         19.2504
 -12678200.95549  -9870723.23048  19281917.7124   19281912.6694
       140.8914        109.7854         52.0004         46.0004
 -12707760.06449  -9884762.30747  22201071.4624   22201068.2284
      3374.5784       2629.5414         46.0004         29.2504
 -21383813.32349 -16656064.43148  19643859.4154   19643854.8104
      1533.1564       1194.6674         52.5004         42.7504
   9606006.62849   7473195.46347  22703548.0014   22703544.7744
     -1857.2034      -1447.1714         43.0004         29.0004
  -2641102.52849  -2050186.59346  23878317.8844   23878318.8994
      3678.7194       2866.5344         38.7504         19.7504
 01  7  3  2 22 59.9970000  0  8G 1G11G 4G20G13G22G25G27
 -16030052.45749 -12483843.93548  19981255.1264   19981250.7824
      2007.1254       1563.9944         54.2504         44.5004
  11070212.19949   8615025.71746  23733855.3604   23733855.7714
     -1883.2504      -1467.4684         39.5004         19.2504
  -3468191.82749  -2687047.71646  23526276.1184   23526274.2514
      1810.6564       1410.9014         41.7504         19.0004
 -12682141.64649  -9873793.91848  19281167.5094   19281162.7124
       121.7814         94.8944         51.7504         46.0004
 -12808977.22949  -9963632.76647  22181810.5954   22181806.7044
      3373.1724       2628.4464         45.5004         29.2504
 -21429485.25749 -16691652.92848  19635168.4074   19635163.8994
      1511.6564       1177.9144         52.5004         42.5004
   9661736.37449   7516621.17747  22714153.4234   22714149.9354
     -1858.2344      -1447.9754         42.5004         28.5004
  -2751398.00649  -2136130.99646  23857329.6424   23857329.0094
      3674.2974       2863.0884         40.5004         20.2504
 01  7  3  2 23 29.9970000  0  8G 1G11G 4G20G13G22G25G27
 -16090183.93049 -12530699.62348  19969812.3994   19969808.2004
      2001.6884       1559.7564         53.7504         44.0004
  11126664.08749   8659014.20046  23744595.0014   23744597.9194
     -1879.9694      -1464.9114         37.0004         18.5004
  -3522257.21449  -2729176.58346  23515987.7514   23515986.0324
      1793.7194       1397.7034         41.2504         20.2504
 -12685510.24149  -9876418.80948  19280526.9854   19280521.7594
       102.7034         80.0284         51.7504         45.7504
 -12910150.28149 -10042468.82447  22162557.1814   22162553.4894
      3371.6884       2627.2894         46.0004         28.5004
 -21474509.76049 -16726736.91648  19626600.5794   19626595.7904
      1490.0784       1161.1004         52.5004         43.2504
   9717498.41149   7560072.09747  22724764.5014   22724761.5324
     -1859.2344      -1448.7544         41.5004         29.0004
  -2861553.19949  -2221965.89146  23836366.4784   23836367.9114
      3669.3914       2859.2654         40.0004         20.2504
 01  7  3  2 23 59.9970000  0  8G 1G11G 4G20G13G22G25G27
 -16150147.49849 -12577424.47348  19958401.7824   19958397.0954
      1996.1254       1555.4224         52.5004         44.5004
  11183017.70849   8702925.86246  23755319.3924   23755321.8644
     -1876.7034      -1462.3664         36.0004         18.5004
  -3575810.18849  -2770906.10546  23505797.1184   23505795.3804
      1776.6884       1384.4324         41.5004         18.5004
 -12688302.98749  -9878594.99748  19279995.4384   19279989.8684
        83.6724         65.1994         51.5004         46.0004
 -13011274.53749 -10121266.87147  22143314.5014   22143310.9314
      3370.1414       2626.0844         46.5004         29.0004
 -21518881.84849 -16761312.55148  19618156.8134   19618152.0404
      1468.4064       1144.2134         52.2504         43.0004
   9773295.43149   7603550.27847  22735381.9704   22735379.2514
     -1860.1874      -1449.4974         42.7504         28.5004
  -2971563.60449  -2307688.15046  23815433.5014   23815432.4784
      3664.8594       2855.7354         42.0004         19.2504
 01  7  3  2 24 29.9970000  0  8G 1G11G 4G20G13G22G25G27
 -16209947.47749 -12624021.84448  19947022.5634   19947017.9624
      1990.5784       1551.1004         52.7504         44.5004
  11239265.55749   8746755.30546  23766024.2904   23766025.6104
     -1873.0784      -1459.5414         36.2504         13.7504
  -3628855.54249  -2812240.15346  23495702.7284   23495701.5094
      1759.7034       1371.1974         40.2504         19.5004
 -12690525.12649  -9880326.56048  19279572.6344   19279567.1734
        64.5634         50.3084         50.2504         45.5004
 -13112354.52149 -10200030.41647  22124079.5244   22124075.6184
      3368.5784       2624.8664         46.2504         28.5004
 -21562605.97449 -16795383.26748  19609836.3844   19609831.6344
      1446.6884       1127.2894         53.0004         42.5004
   9829120.89849   7647050.57947  22746005.2204   22746002.2634
     -1861.3444      -1450.3984         44.2504         28.0004
  -3081433.65449  -2393300.83946  23794525.4624   23794526.1964
      3659.9534       2851.9124         40.5004         20.0004
 01  7  3  2 24 59.9970000  0  8G 1G11G 4G20G13G22G25G27
 -16269579.78549 -12670488.56148  19935674.2984   19935670.2204
      1984.9534       1546.7174         53.5004         44.2504
  11295408.32249   8790502.80846  23776708.1964   23776709.5954
     -1869.5784      -1456.8144         39.2504         19.2504
  -3681389.82149  -2853175.98246  23485706.1734   23485704.4744
      1742.6884       1357.9384         41.7504         19.5004
 -12692173.79049  -9881611.25248  19279258.9784   19279253.7004
        45.4064         35.3814         50.0004         46.0004
 -13213386.52949 -10278756.56747  22104853.4314   22104849.7314
      3366.9384       2623.5884         44.5004         29.5004
 -21605678.55149 -16828946.29548  19601640.0714   19601635.1614
      1424.9534       1110.3534         52.0004         42.7504
   9884977.02149   7690574.77947  22756634.6814   22756631.8254
     -1862.3284      -1451.1654         44.2504         27.5004
  -3191159.63549  -2478801.47746  23773644.6184   23773645.4424
      3655.0474       2848.0884         40.5004         21.2504
 01  7  3  2 25 29.9960000  0  8G 1G11G 4G20G13G22G25G27
 -16329043.41149 -12716823.86148  19924358.8324   19924353.9494
      1979.2034       1542.2364         51.5004         44.0004
  11351440.00149   8834163.70646  23787369.6524   23787372.2774
     -1866.0944      -1454.0994         38.2504         19.2504
  -3733412.51549  -2893713.11446  23475807.5904   23475804.7664
      1725.4384       1344.4974         42.5004         19.2504
 -12693251.18249  -9882450.80648  19279053.6844   19279048.6334
        26.1564         20.3814         48.5004         46.0004
 -13314368.59649 -10357443.81647  22085637.0824   22085633.4224
      3365.1414       2622.1884         44.5004         29.0004
 -21648098.81649 -16862001.02448  19593567.4414   19593562.7704
      1402.9844       1093.2354         53.0004         42.5004
   9940859.01749   7734119.13347  22767267.9494   22767265.2234
     -1863.4844      -1452.0664         43.7504         26.5004
  -3300739.00449  -2564187.77446  23752793.5514   23752792.4344
      3650.1254       2844.2534         41.2504         22.0004
 01  7  3  2 25 59.9960000  0  8G 1G11G 4G20G13G22G25G27
 -16388335.52849 -12763025.49748  19913075.8244   19913071.6684
      1973.5784       1537.8534         51.5004         44.5004
  11407367.95249   8877743.83646  23798013.4884   23798014.9454
     -1862.3284      -1451.1654         38.0004         14.7504
  -3784920.81649  -2933849.42346  23466004.3014   23466002.7424
      1708.4694       1331.2744         41.2504         19.2504
 -12693751.33749  -9882840.55248  19278958.9344   19278953.3634
         7.2034          5.6134         49.2504         46.2504
 -13415300.58049 -10436092.03047  22066430.8484   22066426.6484
      3363.5164       2620.9214         44.5004         29.7504
 -21689862.33849 -16894543.98648  19585620.1604   19585615.7034
      1381.2344       1076.2874         52.2504         42.7504
   9996775.12749   7777690.06847  22777908.6214   22777906.6454
     -1864.3444      -1452.7354         43.7504         28.5004
  -3410172.47249  -2649460.43646  23731968.4964   23731968.0234
      3645.3914       2840.5644         43.5004         22.7504
 01  7  3  2 26 29.9960000  0  8G 1G11G 4G20G13G22G25G27
 -16447455.78549 -12809093.21948  19901825.9024   19901821.1994
      1967.7814       1533.3364         52.0004         44.0004
  11463185.43449   8921237.83546  23808633.0044   23808636.8874
     -1858.6564      -1448.3044         36.0004         19.2504
  -3835915.07849  -2973585.19346  23456301.1994   23456298.9654
      1691.1884       1317.8084         41.2504         20.5004
 -12693677.23649  -9882782.82048  19278972.8094   19278967.1994
       -12.0624         -9.3994         50.0004         45.5004
 -13516181.37849 -10514700.37847  22047233.1994   22047229.3484
      3361.8134       2619.5944         44.5004         29.7504
 -21730969.56049 -16926575.57148  19577797.9494   19577793.2194
      1359.3134       1059.2054         52.2504         42.5004
  10052720.00649   7821283.45347  22788555.7234   22788551.7114
     -1865.2504      -1453.4424         44.2504         26.7504
  -3519458.27249  -2734617.97246  23711170.2464   23711171.4224
      3640.3444       2836.6314         39.0004         19.2504
 01  7  3  2 26 59.9960000  0  8G 1G11G 4G20G13G22G25G27
 -16506405.36849 -12855027.93848  19890608.0124   19890603.5354
      1962.2664       1529.0384         53.0004         44.2504
  11518888.20249   8964642.52046  23819234.2704   23819236.8984
     -1854.7194      -1445.2354         39.5004         17.2504
  -3886397.01549  -3012921.71246  23446693.6214   23446691.9844
      1674.3754       1304.7084         40.0004         20.2504
 -12693031.21949  -9882279.45548  19279095.7704   19279090.4574
       -30.9374        -24.1074         50.0004         45.7504
 -13617012.34749 -10593269.88447  22028045.9024   22028042.1174
      3360.3594       2618.4624         44.5004         29.5004
 -21771422.19049 -16958097.07948  19570099.9964   19570095.4064
      1337.7194       1042.3784         52.7504         43.0004
  10108690.82549   7864896.99247  22799205.7154   22799203.6564
     -1865.9844      -1454.0144         43.7504         27.7504
  -3628597.69349  -2819661.50346  23690403.3714   23690402.9224
      3635.7034       2833.0154         41.7504         21.5004
 01  7  3  2 27 29.9960000  0  8G 1G11G 4G20G13G22G25G27
 -16565181.01949 -12900827.12148  19879423.2774   19879418.7814
      1956.2194       1524.3264         52.0004         44.0004
  11574476.27449   9007957.86746  23829812.8404   23829814.8054
     -1850.9694      -1442.3134         40.7504         19.2504
  -3936363.62549  -3051856.73346  23437185.8564   23437184.5084
      1656.8754       1291.0714         40.7504         19.7504
 -12691811.01549  -9881328.65148  19279327.9104   19279322.4694
       -50.1724        -39.0954         50.7504         46.0004
 -13717790.40949 -10671798.17347  22008868.4104   22008864.7544
      3358.4694       2616.9894         43.7504         29.5004
 -21811217.01449 -16989106.01148  19562527.1844   19562522.6844
      1315.5004       1025.0654         52.2504         42.7504
  10164688.88349   7908531.79947  22809861.6914   22809858.9534
     -1867.0004      -1454.8054         44.2504         27.0004
  -3737587.73749  -2904588.59446  23669664.2074   23669662.1844
      3630.5164       2828.9734         43.5004         22.7504
 01  7  3  2 27 59.9960000  0  8G 1G11G 4G20G13G22G25G27
 -16623784.27249 -12946491.98548  19868271.4264   19868267.0984
      1950.5314       1519.8944         52.5004         44.7504
  11629945.15849   9051180.28546  23840367.1604   23840369.9304
     -1847.0624      -1439.2694         36.5004         16.7504
  -3985817.12449  -3090391.90546  23427776.5354   23427773.6844
      1639.8284       1277.7884         42.0004         19.5004
 -12690019.41949  -9879932.62648  19279668.6374   19279663.5944
       -69.2974        -53.9984         51.5004         45.5004
 -13818517.11249 -10750286.48447  21989700.8164   21989696.4144
      3356.5784       2615.5154         44.0004         29.5004
 -21850355.16149 -17019603.24948  19555079.3014   19555074.6804
      1293.6254       1008.0194         53.0004         42.5004
  10220710.71849   7952185.12147  22820522.4104   22820520.0824
     -1867.8594      -1455.4754         43.5004         26.5004
  -3846430.30149  -2989400.73746  23648949.8874   23648950.8324
      3625.5314       2825.0894         39.5004         21.7504
 01  7  3  2 28 29.9960000  0  8G 1G11G 4G20G13G22G25G27
 -16682217.43249 -12992024.30948  19857152.0984   19857147.7854
      1944.8444       1515.4634         51.7504         44.5004
  11685289.29349   9094305.59446  23850900.0044   23850901.8244
     -1842.8444      -1435.9824         40.2504         20.2504
  -4034760.18349  -3128529.34146  23418461.5664   23418459.8284
      1622.8444       1264.5544         41.2504         21.0004
 -12687659.99849  -9878094.13548  19280118.0594   19280112.6094
       -88.2034        -68.7304         49.2504         45.5004
 -13919195.40749 -10828736.99447  21970541.9884   21970538.7194
      3354.9844       2614.2744         45.2504         29.0004
 -21888839.06949 -17049590.69348  19547756.1134   19547751.2624
      1271.7344        990.9624         53.0004         43.5004
  10276752.11749   7995853.70047  22831186.7544   22831184.1484
     -1868.5164      -1455.9864         44.5004         27.0004
  -3955127.81749  -3074100.00946  23628263.9494   23628264.2584
      3620.7344       2821.3514         37.0004         19.5004
 01  7  3  2 28 59.9960000  0  8G 1G11G 4G20G13G22G25G27
 -16740472.30149 -13037417.70048  19846066.5354   19846061.9614
      1938.8914       1510.8244         51.2504         44.5004
  11740513.76449   9137337.47046  23861408.5434   23861410.7424
     -1838.7814      -1432.8174         37.2504         18.5004
  -4083185.57549  -3166263.41146  23409246.5664   23409243.8834
      1605.5784       1251.1004         42.0004         18.5004
 -12684726.07149  -9875807.96048  19280676.4734   19280671.7314
      -107.3124        -83.6204         49.0004         45.7504
 -14019817.12049 -10907143.47147  21951394.6844   21951390.6884
      3353.1724       2612.8614         47.0004         29.0004
 -21926661.01749 -17079062.32448  19540558.6684   19540554.3244
      1249.7194        973.8074         53.0004         42.7504
  10332819.28749   8039542.34847  22841856.2384   22841853.7734
     -1869.2814      -1456.5834         43.7504         26.5004
  -4063672.53449  -3158680.10746  23607610.4734   23607610.8134
      3615.7034       2817.4314         41.5004         22.5004
 01  7  3  2 29 29.9960000  0  8G 1G11G 4G20G13G22G25G27
 -16798549.07849 -13082672.31248  19835015.0274   19835010.7624
      1932.7504       1506.0394         52.5004         44.7504
  11795615.15249   9180273.45546  23871895.7934   23871896.4494
     -1834.7664      -1429.6874         38.5004         19.0004
  -4131093.85749  -3203594.51646  23400130.3094   23400127.7854
      1588.0784       1237.4634         42.7504         21.5004
 -12681219.19449  -9873075.35048  19281343.5514   19281338.4774
      -126.6724        -98.7054         50.5004         45.5004
 -14120382.52949 -10985506.04447  21932257.0594   21932253.7424
      3351.0944       2611.2424         47.0004         29.7504
 -21963821.97349 -17108018.88348  19533487.3564   19533482.8404
      1227.4384        956.4454         52.7504         42.5004
  10388910.03849   8083249.37247  22852529.6764   22852527.4574
     -1870.2504      -1457.3384         44.5004         26.0004
  -4172064.92549  -3243141.54146  23586984.8794   23586983.3674
      3610.3284       2813.2434         42.7504         23.7504
 01  7  3  2 29 59.9960000  0  7G 1G 4G20G13G22G25G27
 -16856446.59449 -13127787.25448  19823997.2074   19823993.1094
      1927.0634       1501.6074         52.2504         44.2504
  -4178484.67249  -3240522.43146  23391112.4654   23391110.3634
      1571.1884       1224.3024         41.5004         22.0004
 -12677139.17649  -9869896.13848  19282119.8404   19282114.9344
      -145.4374       -113.3284         50.5004         45.7504
 -14220891.26249 -11063824.48947  21913131.3404   21913127.3564
      3349.4384       2609.9514         47.2504         29.5004
 -22000320.70549 -17136459.44648  19526541.8244   19526537.0984
      1205.7194        939.5214         52.5004         42.7504
  10445023.51749   8126974.11547  22863207.9024   22863205.7074
     -1870.6414      -1457.6424         43.5004         27.5004
  -4280304.06149  -3327483.52546  23566385.8404   23566385.6884
      3605.5784       2809.5414         39.7504         20.5004
 01  7  3  2 30 29.9960000  0  7G 1G 4G20G13G22G25G27
 -16914165.29849 -13172762.86148  19813013.8244   19813009.3984
      1920.7664       1496.7004         53.7504         44.7504
  -4225359.26749  -3277048.07246  23382191.4734   23382189.6994
      1553.8444       1210.7874         42.0004         22.0004
 -12672488.28649  -9866272.09248  19283004.9964   19283000.0824
      -164.7034       -128.3404         52.5004         45.5004
 -14321343.70349 -11142099.05147  21894015.5354   21894011.4814
      3347.3284       2608.3084         46.7504         30.5004
 -22036157.63649 -17164384.29948  19519722.1454   19519717.9024
      1183.3914        922.1234         52.0004         43.7504
  10501157.14549   8170714.54947  22873889.5594   22873887.0554
     -1871.6874      -1458.4584         43.0004         26.0004
  -4388390.69949  -3411706.77446  23545817.5044   23545818.1564
      3600.0784       2805.2564         40.0004         23.2504
 01  7  3  2 30 59.9960000  0  7G 1G 4G20G13G22G25G27
 -16971691.92349 -13217588.78748  19802066.8954   19802062.6254
      1914.4534       1491.7824         53.7504         44.0004
  -4271704.70549  -3313161.41946  23373372.5984   23373371.3014
      1536.1254       1196.9814         40.0004         21.5004
 -12667254.22749  -9862193.61748  19284000.8014   19283996.2934
      -184.0784       -143.4374         51.0004         45.5004
 -14421726.70249 -11220319.50447  21874913.3164   21874909.1454
      3345.0314       2606.5184         46.5004         29.7504
 -22071319.78749 -17191783.36148  19513031.0744   19513026.2734
      1160.8914        904.5904         52.5004         43.0004
  10557322.56949   8214479.73447  22884577.9814   22884576.6174
     -1872.6094      -1459.1764         41.5004         26.5004
  -4496311.90349  -3495801.08446  23525282.6134   23525280.1134
      3594.7194       2801.0804         42.7504         22.7504
 01  7  3  2 31 29.9960000  0  7G 1G 4G20G13G22G25G27
 -17029031.96549 -13262269.33648  19791155.5514   19791150.7894
      1908.2814       1486.9724         52.5004         44.5004
  -4317527.44149  -3348867.45246  23364653.3714   23364651.0704
      1518.8444       1183.5154         42.0004         21.0004
 -12661444.03649  -9857666.21048  19285106.6374   19285101.4814
      -203.1564       -158.3044         52.0004         46.0004
 -14522046.01849 -11298490.32747  21855823.0204   21855819.1294
      3343.0474       2604.9724         47.5004         30.7504
 -22105813.56449 -17218661.61948  19506467.1764   19506462.8164
      1138.8134        887.3864         52.7504         43.2504
  10613512.64349   8258264.15947  22895271.4574   22895268.0044
     -1873.3444      -1459.7484         43.0004         26.7504
  -4604073.51349  -3579770.98246  23504776.0204   23504774.2194
      3589.3914       2796.9284         43.5004         25.5004
 01  7  3  2 31 59.9960000  0  7G 1G 4G20G13G22G25G27
 -17086182.57549 -13306802.27248  19780280.3564   19780275.6064
      1901.9064       1482.0054         53.7504         44.5004
  -4362825.46149  -3384164.67146  23356033.0354   23356031.4224
      1501.0784       1169.6714         41.2504         20.2504
 -12655056.62449  -9852689.02248  19286322.0594   19286316.7894
      -222.5164       -173.3894         52.2504         45.5004
 -14622299.05149 -11376609.51647  21836745.7464   21836741.8954
      3340.7194       2603.1574         47.5004         30.7504
 -22139636.71249 -17245017.30248  19500030.8164   19500026.3564
      1116.2664        869.8174         52.5004         42.7504
  10669728.06449   8302068.28147  22905968.7544   22905965.9344
     -1874.2194      -1460.4304         41.0004         27.0004
  -4711673.02949  -3663614.58346  23484299.5984   23484298.8134
      3583.9694       2792.7034         43.0004         24.2504
 01  7  3  2 32 29.9960000  0  7G 1G 4G20G13G22G25G27
 -17143143.22349 -13351187.18148  19769440.6684   19769435.8954
      1895.5634       1477.0624         53.5004         44.5004
  -4407598.74949  -3419052.93746  23347512.8714   23347510.7194
      1483.7814       1156.1934         41.5004         20.5004
 -12648092.80749  -9847262.69348  19287647.4344   19287642.1294
      -241.6874       -188.3284         52.0004         45.5004
 -14722485.75649 -11454677.02947  21817680.9574   21817677.1884
      3338.4384       2601.3804         47.5004         31.2504
 -22172788.75449 -17270850.04548  19493722.3404   19493717.7464
      1093.9384        852.4194         53.0004         43.0004
  10725967.45749   8345891.16146  22916670.4574   22916667.8794
     -1875.1254      -1461.1364         39.7504         25.0004
  -4819110.16449  -3747331.67946  23463854.9184   23463853.1524
      3578.5784       2788.5024         42.5004         21.7504
 01  7  3  2 32 59.9960000  0  7G 1G 4G20G13G22G25G27
 -17199912.87649 -13395423.27548  19758638.0744   19758633.6524
      1889.1724       1472.0824         53.5004         44.7504
  -4451847.40949  -3453532.40346  23339093.0594   23339090.8674
      1466.3134       1142.5814         41.2504         21.0004
 -12640552.93449  -9841387.48548  19289081.8564   19289076.8484
      -260.8594       -203.2674         52.0004         45.5004
 -14822605.15449 -11532692.07247  21798628.5204   21798623.9574
      3336.1414       2599.5904         47.5004         31.0004
 -22205268.84549 -17296159.20548  19487541.3564   19487536.8794
      1071.5314        834.9594         52.5004         43.2504
  10782229.81049   8389731.89247  22927376.8244   22927374.1094
     -1875.7664      -1461.6364         44.5004         26.5004
  -4926384.24049  -3830921.69246  23443441.6524   23443441.4344
      3573.1094       2784.2414         43.0004         24.7504
 01  7  3  2 33 29.9960000  0  7G 1G 4G20G13G22G25G27
 -17256488.71049 -13439508.32848  19747871.7384   19747867.5044
      1882.5474       1466.9204         53.5004         44.5004
  -4495569.11849  -3487601.30346  23330772.4734   23330770.2894
      1448.5004       1128.7014         40.7504         20.2504
 -12632435.67749  -9835062.36148  19290626.8164   19290621.4344
      -280.2814       -218.4014         52.2504         45.2504
 -14922654.48249 -11610652.52747  21779589.9734   21779586.3094
      3333.7034       2597.6914         47.7504         30.5004
 -22237074.79849 -17320943.04748  19481488.8484   19481484.5084
      1048.9064        817.3304         52.7504         42.7504
  10838516.15949   8433591.32747  22938088.6294   22938085.3914
     -1876.6564      -1462.3304         43.0004         25.7504
  -5033492.60449  -3914382.60246  23423058.8324   23423057.7344
      3567.5784       2779.9314         41.7504         22.7504
 01  7  3  2 33 59.9960000  0  7G 1G 4G20G13G22G25G27
 -17312871.81049 -13483443.19348  19737142.4964   19737138.2314
      1876.3134       1462.0624         53.0004         44.7504
  -4538765.89149  -3521261.03646  23322553.3954   23322551.2034
      1431.1884       1115.2114         41.0004         20.5004
 -12623743.73249  -9828289.43348  19292281.0124   19292275.4144
      -299.2194       -233.1574         52.0004         45.5004
 -15022634.95349 -11688559.33647  21760563.8324   21760559.8054
      3331.6414       2596.0844         47.2504         30.2504
 -22268208.82649 -17345203.31648  19475564.1994   19475559.5474
      1026.7034        800.0284         51.7504         43.0004
  10894823.28449   8477466.92547  22948802.9024   22948799.7934
     -1877.2344      -1462.7804         44.7504         26.5004
  -5140436.95449  -3997715.72346  23402708.1524   23402706.9224
      3562.2194       2775.7554         41.7504         22.5004
 01  7  3  2 34 29.9960000  0  8G 1G28G 4G20G13G22G25G27
 -17369067.13449 -13527231.75448  19726448.9104   19726444.5434
      1870.0314       1457.1674         53.0004         45.2504
   -183842.40959   -120116.90956  23849583.0124   23849584.3674
      4583.0634       3571.2184         38.0004         18.5004
  -4581443.84449  -3554516.65046  23314431.7384   23314430.4844
      1414.0004       1101.8184         41.7504         21.5004
 -12614483.70049  -9821073.85548  19294042.8634   19294037.6604
      -318.0314       -247.8174         52.7504         45.5004
 -15122552.09149 -11766416.77647  21741550.2934   21741546.6414
      3329.5944       2594.4894         47.7504         31.0004
 -22298676.40449 -17368944.28248  19469766.7624   19469762.0784
      1004.5634        782.7764         52.7504         43.5004
  10951144.67949   8521353.63047  22959519.6524   22959517.7194
     -1877.5004      -1462.9874         43.5004         26.5004
  -5247222.56349  -4080925.15146  23382385.8794   23382386.1064
      3556.9224       2771.6274         41.0004         22.5004
 01  7  3  2 34 59.9960000  0  8G 1G28G 4G20G13G22G25G27
 -17425072.50649 -13570872.29848  19715791.4654   19715786.8014
      1863.7194       1452.2484         53.2504         44.5004
   -321344.82549   -227261.46546  23823416.4264   23823418.6884
      4583.8754       3571.8514         36.5004         17.7504
  -4623601.65149  -3587366.85946  23306409.8404   23306408.1064
      1396.5474       1088.2184         39.7504         21.5004
 -12604655.01749  -9813415.15948  19295913.3484   19295908.0044
      -337.0784       -262.6584         52.5004         45.2504
 -15222403.85049 -11844223.26047  21722549.3564   21722545.1064
      3327.2664       2592.6754         47.5004         31.7504
 -22328475.52249 -17392164.37148  19464095.8874   19464091.5944
       982.1564        765.3174         52.5004         43.0004
  11007480.58949   8565251.72946  22970240.3714   22970237.5824
     -1878.1564      -1463.4984         43.2504         25.2504
  -5353847.88749  -4164009.64146  23362097.3564   23362094.6804
      3551.5004       2767.4034         41.7504         21.7504
 01  7  3  2 35 29.9960000  0  8G 1G28G 4G20G13G22G25G27
 -17480883.37349 -13614361.27848  19705170.9414   19705166.4144
      1857.0474       1447.0504         53.7504         44.5004
   -458869.82449   -334423.58846  23797247.0354   23797248.2854
      4584.5314       3572.3624         37.7504         19.7504
  -4665235.57049  -3619808.87046  23298486.8404   23298485.3204
      1379.0634       1074.5944         40.5004         21.0004
 -12594254.92849  -9805311.21548  19297892.4024   19297887.3674
      -356.1414       -277.5124         52.5004         45.2504
 -15322186.20249 -11921975.68647  21703561.1454   21703557.2544
      3325.0004       2590.9094         47.5004         31.0004
 -22357602.33949 -17414860.58548  19458553.2074   19458548.6024
       959.7194        747.8334         52.5004         43.0004
  11063833.16549   8609162.72547  22980964.4414   22980962.6254
     -1878.6414      -1463.8764         44.2504         26.5004
  -5460308.73949  -4246965.95046  23341837.9494   23341837.4184
      3545.9694       2763.0934         43.5004         23.7504
 01  7  3  2 35 59.9960000  0  8G 1G28G 4G20G13G22G25G27
 -17536495.71449 -13657695.55448  19694588.0274   19694583.7934
      1850.6564       1442.0704         53.0004         44.7504
   -596412.23649   -441599.29246  23771074.2074   23771074.0554
      4585.2344       3572.9104         38.5004         19.0004
  -4706342.78949  -3651840.45246  23290663.6914   23290662.2074
      1361.7664       1061.1164         39.5004         20.2504
 -12583281.06849  -9796760.18748  19299980.5594   19299975.6724
      -375.1094       -292.2934         52.7504         45.5004
 -15421894.88649 -11999670.69847  21684587.4184   21684583.4774
      3322.6094       2589.0464         48.0004         31.7504
 -22386054.00449 -17437030.71048  19453138.9964   19453134.9494
       937.4064        730.4464         52.2504         43.2504
  11120204.83249   8653088.63546  22991692.1374   22991688.7854
     -1879.1094      -1464.2414         44.0004         24.7504
  -5566601.57749  -4329791.46046  23321610.6214   23321609.7814
      3540.4534       2758.7954         40.2504         22.5004
 01  7  3  2 36 29.9960000  0  8G 1G28G 4G20G13G22G25G27
 -17591919.48749 -13700882.90548  19684041.4884   19684036.8674
      1844.2504       1437.0784         52.7504         44.7504
   -733980.33149   -548794.99346  23744895.9024   23744896.4574
      4586.0314       3573.5314         37.5004         19.2504
  -4746934.00549  -3683469.96246  23282938.8564   23282938.1484
      1344.2814       1047.4924         40.7504         21.0004
 -12571745.00549  -9787771.07248  19302176.1064   19302171.1024
      -393.9064       -306.9404         52.5004         45.0004
 -15521540.55049 -12077316.61347  21665624.9734   21665621.4814
      3320.3754       2587.3054         47.7504         31.5004
 -22413841.33949 -17458683.16748  19447851.2154   19447846.5004
       915.1414        713.0974         51.0004         42.7504
  11176583.98449   8697020.37547  23002420.7624   23002418.3834
     -1879.4694      -1464.5214         44.0004         25.7504
  -5672736.69649  -4412493.98946  23301413.9654   23301413.0664
      3535.1414       2754.6554         39.7504         22.0004
 01  7  3  2 36 59.9960000  0  8G 1G28G 4G20G13G22G25G27
 -17647150.80949 -13743920.29548  19673531.4024   19673526.8674
      1837.7034       1431.9764         51.7504         45.0004
   -871568.64849   -656006.49246  23718712.6684   23718712.8204
      4586.2504       3573.7014         37.5004         18.5004
  -4787006.68949  -3714695.40246  23275313.5824   23275312.6064
      1326.9064       1033.9534         40.7504         22.2504
 -12559644.65449  -9778342.25148  19304478.5354   19304473.6804
      -412.8594       -321.7094         53.0004         45.5004
 -15621119.17849 -12154910.27747  21646675.7934   21646672.0474
      3318.0944       2585.5284         47.5004         31.7504
 -22440960.93549 -17479815.31148  19442690.6844   19442685.9924
       892.6884        695.6014         50.2504         43.0004
  11232972.52249   8740959.40546  23013150.4884   23013147.8284
     -1879.8124      -1464.7894         42.5004         24.7504
  -5778710.77249  -4495071.03746  23281247.4264   23281246.2544
      3529.5944       2750.3334         39.5004         22.5004
 01  7  3  2 37 29.9960000  0  8G 1G28G 4G20G13G22G25G27
 -17702189.90049 -13786807.88648  19663057.7314   19663052.8874
      1831.2814       1426.9724         51.7504         45.0004
  -1009175.93848   -763232.66346  23692526.3874   23692528.2234
      4587.0634       3574.3344         35.7504         18.2504
  -4826562.07549  -3745517.76746  23267786.4494   23267786.3444
      1309.7034       1020.5484         41.7504         22.2504
 -12546982.15449  -9768475.39548  19306888.1064   19306883.1604
      -431.5944       -336.3074         52.5004         45.5004
 -15720631.18249 -12232452.03347  21627739.5124   21627735.4534
      3315.8444       2583.7744         47.7504         31.7504
 -22467413.50249 -17500427.69748  19437657.0594   19437652.6174
       870.4224        678.2514         51.0004         43.0004
  11289368.20549   8784904.04746  23023883.1064   23023880.0354
     -1880.0944      -1465.0084         44.2504         25.5004
  -5884524.48649  -4577523.13446  23261111.4814   23261111.2074
      3524.2974       2746.2054         39.2504         23.0004
 01  7  3  2 37 59.9960000  0  8G 1G28G 4G20G13G22G25G27
 -17757033.63849 -13829543.25148  19652621.1844   19652616.7034
      1824.8594       1421.9684         50.5004         44.5004
  -1146797.29349   -870469.84146  23666338.4884   23666339.1644
      4587.5634       3574.7244         37.7504         21.2504
  -4865597.94949  -3775935.31646  23260358.8634   23260357.4574
      1292.4844       1007.1314         41.2504         22.2504
 -12533756.04549  -9758169.36948  19309404.8324   19309399.9964
      -450.3444       -350.9174         52.7504         45.0004
 -15820073.43749 -12309939.45947  21608816.3714   21608811.9884
      3313.5314       2581.9724         47.2504         31.7504
 -22493196.91949 -17520518.66748  19432750.5124   19432745.5354
       848.2344        660.9624         48.5004         43.2504
  11345772.55849   8828855.39546  23034615.3794   23034613.1994
     -1880.3754      -1465.2274         43.0004         22.7504
  -5990175.14549  -4659848.20146  23241006.7854   23241006.7704
      3518.9224       2742.0174         40.5004         23.0004
 01  7  3  2 38 29.9960000  0  8G 1G28G 4G20G13G22G25G27
 -17811676.99749 -13872122.47148  19642222.5984   19642218.3134
      1818.0944       1416.6964         53.7504         44.7504
  -1284426.30949   -977713.05346  23640149.0124   23640148.9534
      4587.6094       3574.7614         39.0004         19.5004
  -4904110.44449  -3805945.01446  23253029.3954   23253028.7384
      1274.9384        993.4584         41.2504         21.0004
 -12519963.03949  -9747421.60548  19312030.1604   19312025.0124
      -469.2504       -365.6494         53.0004         45.2504
 -15919441.59049 -12387369.11147  21589906.6604   21589902.8674
      3310.9694       2579.9764         47.7504         32.2504
 -22518307.47449 -17540085.32348  19427972.4024   19427967.7774
       825.7974        643.4784         52.5004         43.0004
  11402188.55149   8872815.85147  23045351.4264   23045349.1604
     -1880.9064      -1465.6414         43.0004         25.7504
  -6095658.26549  -4742042.69846  23220933.5204   23220932.6914
      3513.2504       2737.5974         38.5004         23.7504
 01  7  3  2 38 59.9960000  0  8G 1G28G 4G20G13G22G25G27
 -17866119.69549 -13914545.35748  19631862.6994   19631858.3524
      1811.3754       1411.4614         52.0004         44.5004
  -1422061.16949  -1084960.70046  23613956.4494   23613957.8444
      4587.9694       3575.0414         37.5004         19.5004
  -4942100.48449  -3835547.64946  23245801.0124   23245798.3954
      1257.5784        979.9314         40.2504         21.5004
 -12505604.72849  -9736233.33948  19314762.1134   19314756.9384
      -487.9844       -380.2484         53.0004         45.0004
 -16018735.57149 -12464741.00147  21571012.2704   21571007.8984
      3308.5944       2578.1254         48.0004         31.5004
 -22542745.86049 -17559128.20848  19423321.5204   19423317.2854
       803.4694        626.0804         51.0004         43.0004
  11458614.28049   8916783.85246  23056089.8634   23056086.5434
     -1881.0474      -1465.7514         44.0004         24.2504
  -6200974.16049  -4824106.89246  23200893.5204   23200891.2194
      3507.6884       2733.2634         41.0004         24.0004
 01  7  3  2 39 29.9960000  0  8G 1G28G 4G20G13G22G25G27
 -17920364.15449 -13956813.74948  19621540.4184   19621535.7974
      1804.9064       1406.4204         51.7504         45.0004
  -1559702.62949  -1192213.62046  23587763.2934   23587765.0354
      4588.2504       3575.2604         40.0004         20.5004
  -4979571.64549  -3864745.98046  23238670.4184   23238667.8404
      1240.5004        966.6234         40.0004         21.0004
 -12490685.52749  -9724608.01248  19317601.2384   19317596.0314
      -506.5314       -394.7004         53.0004         45.2504
 -16117957.56549 -12542056.77647  21552130.5664   21552126.5864
      3306.3134       2576.3474         47.5004         32.7504
 -22566514.86549 -17577649.49848  19418798.4574   19418793.7234
       781.2504        608.7664         50.2504         42.7504
  11515045.57949   8960756.27746  23066827.9494   23066824.6484
     -1881.0164      -1465.7264         44.5004         24.5004
  -6306125.65049  -4906042.96546  23180882.5434   23180881.7664
      3502.4064       2729.1484         39.2504         22.5004
 01  7  3  2 39 59.9960000  0  8G 1G28G 4G20G13G22G25G27
 -17974405.14149 -13998923.60348  19611256.8484   19611252.3134
      1798.0004       1401.0394         52.5004         44.7504
  -1697343.96449  -1299466.44246  23561572.8164   23561572.2734
      4588.0944       3575.1384         42.0004         19.0004
  -5016519.88449  -3893536.80946  23231638.5824   23231636.8364
      1222.9224        952.9264         40.2504         20.0004
 -12475202.11149  -9712543.03448  19320547.3564   19320542.2344
      -525.4844       -409.4684         53.0004         45.0004
 -16217102.87749 -12619312.80247  21533263.2774   21533259.6604
      3303.5784       2574.2174         48.5004         32.7504
 -22589610.24449 -17595645.89048  19414403.5204   19414399.2424
       758.6414        591.1494         50.2504         42.7504
  11571486.45149   9004736.09147  23077568.7624   23077566.4924
     -1881.5004      -1466.1044         44.0004         26.5004
  -6411107.97149  -4987847.23746  23160904.5594   23160904.4614
      3496.6724       2724.6794         38.2504         22.2504
 01  7  3  2 40 29.9960000  0  8G 1G28G 4G20G13G22G25G27
 -18028242.26749 -14040874.60648  19601011.8634   19601007.3754
      1791.1724       1395.7184         52.7504         45.2504
  -1834983.30049  -1406717.51046  23535380.6844   23535380.3674
      4587.8914       3574.9804         42.7504         22.0004
  -5052945.94249  -3921920.77746  23224707.3094   23224705.8914
      1205.5944        939.4244         41.5004         22.0004
 -12459155.92649  -9700039.53648  19323601.1684   19323596.1884
      -544.2664       -424.1034         53.2504         44.5004
 -16316171.10249 -12696508.78947  21514411.8324   21514407.8094
      3300.9694       2572.1834         47.5004         32.7504
 -22612033.03949 -17613118.18148  19410136.5984   19410131.9384
       736.2504        573.7014         50.0004         42.7504
  11627934.90849   9048721.85046  23088309.7384   23088306.9534
     -1881.7194      -1466.2744         43.0004         22.5004
  -6515921.26049  -5069519.76946  23140958.7934   23140959.5124
      3490.9534       2720.2234         37.5004         21.5004
 01  7  3  2 40 59.9960000  0  8G 1G28G 4G20G13G22G25G27
 -18081873.34649 -14082665.05248  19590806.0354   19590801.5704
      1784.4064       1390.4464         53.2504         44.7504
  -1972616.91049  -1513964.27146  23509189.5514   23509190.1914
      4587.7664       3574.8824         42.5004         21.0004
  -5088849.00849  -3949897.22746  23217876.0664   23217874.2894
      1188.0944        925.7874         42.0004         21.5004
 -12442546.77749  -9687097.37148  19326761.5984   19326756.8364
      -562.8444       -438.5804         53.0004         44.7504
 -16415160.27349 -12773643.12247  21495574.9734   21495570.4064
      3298.4224       2570.1994         48.0004         32.2504
 -22633782.40249 -17630065.71848  19405998.1684   19405993.6994
       713.9064        556.2914         50.0004         43.0004
  11684391.25749   9092713.75847  23099053.9344   23099050.8984
     -1881.9064      -1466.4204         43.7504         25.7504
  -6620564.06149  -5151059.49546  23121046.7704   23121046.5554
      3485.3284       2715.8404         39.0004         24.0004
 01  7  3  2 41 29.9960000  0  8G 1G28G 4G20G13G22G25G27
 -18135300.25549 -14124296.39848  19580639.4654   19580635.1844
      1777.4844       1385.0534         54.0004         45.0004
  -2110245.38749  -1621207.04146  23482999.1994   23482999.3444
      4587.5784       3574.7364         40.5004         19.2504
  -5124232.39349  -3977468.70246  23211142.4184   23211141.0904
      1170.8444        912.3464         41.0004         22.0004
 -12425378.54649  -9673719.55948  19330028.6844   19330023.2584
      -581.5784       -453.1784         53.2504         45.2504
 -16514072.87349 -12850717.81247  21476752.1454   21476748.2814
      3295.7814       2568.1414         47.7504         32.2504
 -22654861.15049 -17646490.70448  19401986.7464   19401982.1994
       691.4534        538.7954         51.2504         43.0004
  11740851.69349   9136708.84246  23109796.5274   23109794.7344
     -1882.0624      -1466.5424         42.0004         22.5004
  -6725038.91149  -5232468.31046  23101164.7624   23101165.5204
      3479.5944       2711.3724         38.5004         25.0004
 01  7  3  2 41 59.9960000  0  8G 1G28G 4G20G13G22G25G27
 -18188520.65849 -14165766.82848  19570512.1454   19570507.0634
      1770.6414       1379.7204         54.2504         44.7504
  -2247864.48949  -1728442.43746  23456810.5514   23456810.4414
      4587.2194       3574.4564         39.2504         17.2504
  -5159095.09349  -4004634.44646  23204507.6844   23204507.8714
      1153.4064        898.7584         40.2504         21.7504
 -12407651.04549  -9659905.95548  19333402.1764   19333397.0354
      -600.1564       -467.6544         53.0004         44.7504
 -16612906.52249 -12927731.02647  21457944.7854   21457940.8094
      3293.1564       2566.0964         48.0004         32.5004
 -22675267.66049 -17662391.86948  19398103.5664   19398099.0514
       669.1414        521.4084         51.7504         42.7504
  11797316.96049   9180707.72346  23120541.7774   23120539.9534
     -1882.1094      -1466.5794         42.7504         24.2504
  -6829343.92249  -5313744.81646  23081317.4884   23081315.6024
      3474.0314       2707.0374         41.5004         22.7504
 01  7  3  2 42 29.9960000  0  8G 1G28G 4G20G13G22G25G27
 -18241537.48749 -14207078.63648  19560422.9964   19560418.3404
      1763.8444       1374.4244         54.5004         44.7504
  -2385475.82549  -1835671.81646  23430624.8164   23430623.3244
      4586.8914       3574.2004         37.7504         14.7504
  -5193441.29549  -4031397.70846  23197972.7624   23197971.0124
      1136.2664        885.4024         40.7504         21.0004
 -12389369.20549  -9645660.38648  19336880.9884   19336876.1134
      -618.5474       -481.9854         53.5004         44.5004
 -16711664.22549 -13004685.02247  21439151.2314   21439147.4654
      3290.7344       2564.2094         48.5004         31.5004
 -22695006.17849 -17677772.52148  19394347.4494   19394343.1064
       646.8594        504.0464         53.0004         43.0004
  11853782.01449   9224706.40646  23131287.4814   23131285.2734
     -1882.1564      -1466.6154         43.2504         24.2504
  -6933482.58149  -5394891.68346  23061499.6374   23061498.5004
      3468.5944       2702.8004         42.2504         24.0004
 01  7  3  2 42 59.9960000  0  8G 1G28G 4G20G13G22G25G27
 -18294345.77549 -14248227.94848  19550374.0514   19550369.6454
      1756.7664       1368.9084         54.2504         45.0004
  -2523073.07349  -1942890.25446  23404440.6994   23404439.6604
      4586.3594       3573.7874         36.5004         13.7504
  -5227267.46549  -4057755.78846  23191535.6294   23191534.1484
      1118.9844        871.9364         41.7504         20.7504
 -12370530.32249  -9630980.77148  19340465.9494   19340461.0904
      -637.2504       -496.5584         52.5004         44.7504
 -16810341.34149 -13081576.23647  21420374.0204   21420369.9144
      3287.8914       2561.9934         46.5004         32.2504
 -22714073.54649 -17692630.19148  19390718.8014   19390714.3874
       624.3284        486.4894         51.2504         42.5004
  11910249.76649   9268707.24347  23142032.1914   23142030.5554
     -1882.2194      -1466.6644         43.0004         26.0004
  -7037450.77049  -5475905.68846  23041716.4344   23041714.9614
      3462.6884       2698.1984         43.5004         25.5004
 01  7  3  2 43 29.9960000  0  8G 1G28G 4G20G13G22G25G27
 -18346944.42849 -14289213.90348  19540364.7854   19540360.3164
      1749.6414       1363.3564         53.2504         45.2504
  -2660653.33849  -2050095.48846  23378258.3404   23378259.1024
      4585.3914       3573.0324         36.7504         13.7504
  -5260573.76749  -4083708.77146  23185196.5984   23185195.2504
      1101.4384        858.2634         40.7504         21.2504
 -12351135.17849  -9615867.70148  19344156.6214   19344151.6844
      -655.9374       -511.1204         52.0004         44.5004
 -16908936.98049 -13158403.96147  21401612.0044   21401607.4494
      3284.9694       2559.7164         45.2504         32.7504
 -22732469.90849 -17706965.01148  19387218.2774   19387213.6414
       601.8594        468.9814         51.5004         43.0004
  11966719.69249   9312709.71446  23152779.0274   23152776.9844
     -1882.5314      -1466.9074         42.0004         25.0004
  -7141247.91049  -5556786.45847  23021964.2154   23021962.4694
      3456.9224       2693.7054         43.5004         25.7504
 01  7  3  2 43 59.9960000  0  8G 1G28G 4G20G13G22G25G27
 -18399329.15549 -14330033.16148  19530396.3404   19530391.7934
      1742.5944       1357.8654         53.5004         45.0004
  -2798210.94749  -2157282.89846  23352082.5044   23352081.8714
      4584.6564       3572.4594         37.5004         16.2504
  -5293357.59949  -4109254.62146  23178959.0744   23178956.5704
      1084.0784        844.7364         41.5004         21.2504
 -12331181.86149  -9600319.69148  19347953.8324   19347948.8204
      -674.4374       -525.5364         52.5004         44.7504
 -17007447.07649 -13235165.03547  21382866.1844   21382861.8714
      3282.2344       2557.5854         46.2504         33.0004
 -22750191.80549 -17720774.26448  19383845.9264   19383840.9184
       579.5004        451.5584         50.2504         43.0004
  12023194.05749   9356715.72046  23163524.7544   23163522.2664
     -1882.5004      -1466.8834         43.0004         24.5004
  -7244870.31249  -5637531.04446  23002245.1064   23002244.3444
      3451.0944       2689.1644         44.2504         24.5004
 01  7  3  2 44 29.9960000  0  8G 1G28G 4G20G13G22G25G27
 -18451501.70649 -14370687.09248  19520468.2934   19520463.6764
      1735.4384       1352.2894         53.2504         45.0004
  -2935745.77449  -2264452.74546  23325910.6764   23325910.4304
      4583.8754       3571.8514         37.0004         19.5004
  -5325621.81449  -4134395.58846  23172818.3484   23172817.5634
      1066.8134        831.2824         39.7504         20.7504
 -12310673.90949  -9584339.49848  19351856.4184   19351851.4814
      -692.9374       -539.9514         52.2504         44.5004
 -17105873.46349 -13311860.88247  21364135.7314   21364131.6954
      3279.4384       2555.4064         45.2504         33.0004
 -22767241.91449 -17734060.06448  19380601.3634   19380596.5314
       557.0944        434.0994         51.7504         43.0004
  12079669.85149   9400722.77746  23174273.2464   23174270.3794
     -1882.5474      -1466.9204         43.0004         24.5004
  -7348320.11949  -5718141.12546  22982558.4494   22982558.3954
      3445.4064       2684.7324         41.5004         24.2504
 01  7  3  2 44 59.9960000  0  8G 1G28G 4G20G13G22G25G27
 -18503458.13049 -14411172.60748  19510581.2384   19510576.9614
      1728.2664       1346.7004         54.5004         45.2504
  -3073252.66949  -2371600.74446  23299744.3794   23299742.8834
      4583.1254       3571.2664         37.7504         20.7504
  -5357364.20849  -4159129.83846  23166777.8794   23166777.5004
      1049.2664        817.6104         41.2504         22.0004
 -12289609.75149  -9567925.89848  19355864.9814   19355860.0864
      -711.4534       -554.3794         53.0004         44.5004
 -17204212.56549 -13388488.70947  21345422.8404   21345418.2934
      3276.4844       2553.1054         47.0004         33.2504
 -22783618.08749 -17746820.70448  19377484.7624   19377480.1994
       534.6414        416.6034         52.5004         43.0004
  12136148.76049   9444732.29646  23185019.5354   23185017.2314
     -1882.7344      -1467.0664         43.5004         22.7504
  -7451594.32649  -5798614.43446  22962907.4264   22962905.5704
      3439.5314       2680.1544         43.5004         25.2504
 01  7  3  2 45 29.9960000  0  8G 1G28G 4G20G13G22G25G27
 -18555199.08249 -14451490.22048  19500735.2154   19500730.5944
      1721.1724       1341.1734         53.7504         45.5004
  -3210730.92149  -2478726.45746  23273581.7384   23273582.0784
      4582.2344       3570.5724         37.7504         20.2504
  -5388586.83149  -4183459.17946  23160837.8404   23160835.3594
      1032.1254        804.2534         42.5004         21.5004
 -12267992.16949  -9551081.05448  19359978.5434   19359973.5044
      -729.7034       -568.6004         53.0004         44.5004
 -17302464.69649 -13465048.75747  21326725.8014   21326721.7464
      3273.7344       2550.9624         45.2504         33.0004
 -22799322.68949 -17759058.04348  19374496.5664   19374491.9184
       512.3914        399.2654         51.7504         43.2504
  12192628.32449   9488742.32146  23195768.4344   23195765.6064
     -1882.6414      -1466.9934         42.7504         23.2504
  -7554694.05949  -5878951.75846  22943286.3874   22943285.7854
      3433.7974       2675.6864         39.7504         25.0004
 01  7  3  2 45 59.9960000  0  8G 1G28G 4G20G13G22G25G27
 -18606722.44349 -14491638.29248  19490930.5744   19490926.0274
      1713.7504       1335.3904         54.0004         45.5004
  -3348176.32149  -2585826.50846  23247427.3324   23247426.8754
      4580.8444       3569.4894         37.5004         21.0004
  -5419288.86449  -4207382.79246  23154995.1064   23154993.3834
      1014.6884        790.6664         41.5004         22.0004
 -12245821.23049  -9533805.03648  19364197.6454   19364192.4534
      -748.3444       -583.1254         54.0004         44.2504
 -17400628.24749 -13541539.79647  21308046.1214   21308041.7814
      3270.5634       2548.4904         47.2504         33.5004
 -22814354.68849 -17770771.28248  19371636.0824   19371631.4184
       489.7504        381.6234         53.0004         42.5004
  12249109.07649   9532753.24046  23206515.7074   23206514.2934
     -1882.7814      -1467.1024         41.5004         22.7504
  -7657617.74249  -5959151.93846  22923701.1764   22923700.0784
      3427.8284       2671.0354         40.5004         24.0004
 01  7  3  2 46 29.9960000  0  8G 1G28G 4G20G13G22G25G27
 -18658030.11449 -14531618.29448  19481167.1994   19481162.6334
      1706.6094       1329.8254         54.0004         45.5004
  -3485589.44149  -2692901.48246  23221279.5744   23221278.1724
      4579.9224       3568.7704         39.7504         21.5004
  -5449473.96549  -4230903.66946  23149250.6294   23149249.5434
       997.5314        777.2974         41.7504         21.0004
 -12223101.00349  -9516100.99048  19368521.3164   19368515.4964
      -766.5004       -597.2734         52.7504         44.5004
 -17498705.18849 -13617963.35947  21289382.5044   21289378.1914
      3267.7344       2546.2874         46.2504         32.2504
 -22828717.21149 -17781962.85448  19368903.1524   19368898.0944
       467.5944        364.3594         53.0004         42.7504
  12305586.94049   9576761.91246  23217262.8564   23217260.0824
     -1882.5784      -1466.9444         41.5004         22.0004
  -7760368.26949  -6039217.14647  22904148.0984   22904147.8094
      3422.2504       2666.6884         40.5004         26.5004
 01  7  3  2 46 59.9960000  0  8G 1G28G 4G20G13G22G25G27
 -18709121.15349 -14571429.48748  19471444.8094   19471440.5634
      1699.4384       1324.2374         53.7504         45.2504
  -3622968.15749  -2799949.60346  23195136.6374   23195135.6604
      4578.6884       3567.8084         38.5004         21.0004
  -5479142.88649  -4254022.32246  23143605.0354   23143603.3874
       980.4384        763.9774         41.0004         21.5004
 -12199833.19749  -9497970.26748  19372949.0204   19372944.0944
      -784.6724       -611.4334         53.0004         44.5004
 -17596694.81049 -13694318.87247  21270735.7384   21270731.2074
      3264.8914       2544.0714         46.2504         33.5004
 -22842410.92349 -17792633.27048  19366297.1604   19366292.5084
       445.3284        347.0094         52.5004         43.0004
  12362061.09249   9620767.70246  23228009.2154   23228008.6524
     -1882.3594      -1466.7744         41.0004         23.5004
  -7862945.43949  -6119147.33747  22884627.2544   22884627.6134
      3416.2974       2662.0504         39.0004         26.0004
 01  7  3  2 47 29.9960000  0  8G 1G28G 4G20G13G22G25G27
 -18759994.18949 -14611070.80448  19461764.0434   19461759.5474
      1692.0784       1318.5024         53.2504         45.5004
  -3760309.33949  -2906968.44946  23169000.0824   23169000.7854
      4577.4224       3566.8224         37.7504         21.7504
  -5508295.78449  -4276738.89646  23138057.9104   23138056.0784
       963.1564        750.5114         40.5004         21.5004
 -12176018.59149  -9479413.46348  19377480.7464   19377475.5474
      -802.9534       -625.6784         53.0004         44.7504
 -17694595.58749 -13770605.14947  21252105.9264   21252101.2664
      3261.8594       2541.7094         46.5004         33.7504
 -22855436.27649 -17802782.88848  19363818.3634   19363814.2934
       423.0164        329.6234         53.0004         42.5004
  12418531.19449   9664770.37646  23238756.9574   23238754.2114
     -1882.3284      -1466.7494         43.2504         24.5004
  -7965348.38449  -6198941.72447  22865141.6994   22865139.9024
      3410.4534       2657.4964         40.5004         25.7504
 01  7  3  2 47 59.9960000  0  8G 1G28G 4G20G13G22G25G27
 -18810639.62149 -14650534.77648  19452126.3404   19452122.0704
      1684.2664       1312.4154         54.0004         45.5004
  -3897602.04049  -3013949.55046  23142873.1064   23142874.0084
      4575.4384       3565.2764         38.2504         20.7504
  -5536924.73749  -4299047.15046  23132608.8714   23132608.6724
       945.5634        736.8024         40.5004         21.5004
 -12151649.90449  -9460424.91648  19382118.0514   19382112.9614
      -821.5624       -640.1794         53.7504         44.0004
 -17792398.29449 -13846815.02547  21233494.0904   21233490.1604
      3258.3914       2539.0064         48.2504         34.2504
 -22867785.49449 -17812405.66048  19361468.5124   19361464.0274
       400.2814        311.9074         52.7504         43.0004
  12475005.08949   9708775.94846  23249500.7464   23249500.2194
     -1882.6094      -1466.9684         38.7504         22.0004
  -8067568.32249  -6278593.48047  22845690.3794   22845688.4614
      3404.2814       2652.6874         40.0004         26.2504
 01  7  3  2 48 29.9960000  0  8G 1G28G 4G20G13G22G25G27
 -18861060.61149 -14689823.85048  19442531.8484   19442527.2664
      1676.8284       1306.6194         55.0004         45.2504
  -4034847.68149  -3120894.02246  23116757.5514   23116756.7504
      4573.9384       3564.1074         41.2504         21.5004
  -5565034.65649  -4320951.03046  23127260.0744   23127259.2274
       928.1884        723.2634         41.5004         22.0004
 -12126732.53049  -9441008.81448  19386859.4734   19386854.5474
      -839.7664       -654.3634         53.0004         44.0004
 -17890106.57849 -13922951.32347  21214900.5274   21214896.7814
      3255.2344       2536.5464         48.2504         33.5004
 -22879462.67949 -17821504.75748  19359246.5664   19359241.6064
       377.9064        294.4724         53.0004         43.2504
  12531477.50349   9752780.39946  23260248.9264   23260246.7194
     -1882.7034      -1467.0414         39.5004         22.5004
  -8169608.95349  -6358105.57847  22826272.1994   22826270.8674
      3398.2664       2647.9994         40.5004         27.0004
 01  7  3  2 48 59.9960000  0  8G 1G28G 4G20G13G22G25G27
 -18911258.55049 -14728939.13248  19432979.1454   19432974.7664
      1669.5004       1300.9094         54.0004         45.2504
  -4172046.05549  -3227801.62346  23090649.9814   23090648.3794
      4572.4224       3562.9264         41.7504         22.7504
  -5592628.29549  -4342452.60246  23122008.8094   23122008.5594
       911.1884        710.0164         41.0004         21.5004
 -12101270.26649  -9421168.12648  19391705.0984   19391700.0824
      -857.8124       -668.4254         53.5004         44.0004
 -17987721.87049 -13999015.14147  21196325.3564   21196321.2154
      3252.2814       2534.2454         48.5004         34.0004
 -22890470.72749 -17830082.46148  19357151.6764   19357146.7154
       355.7974        277.2444         53.0004         43.5004
  12587945.43949   9796781.33846  23270993.4344   23270992.3954
     -1882.1564      -1466.6154         37.7504         22.2504
  -8271472.44849  -6437479.61947  22806888.2624   22806886.9264
      3392.4534       2643.4704         40.5004         26.0004
 01  7  3  2 49 29.9960000  0  8G 1G28G 4G20G13G22G25G27
 -18961232.36149 -14767879.75348  19423469.6604   19423465.3364
      1662.0004       1295.0654         54.0004         45.5004
  -4309194.73149  -3334670.49346  23064550.0664   23064549.4924
      4570.8134       3561.6724         40.7504         21.7504
  -5619706.46849  -4363552.45846  23116856.4654   23116855.0234
       894.0314        696.6484         41.5004         20.7504
 -12075264.47949  -9400903.91748  19396653.7544   19396648.9184
      -875.8444       -682.4764         53.7504         44.2504
 -18085242.78549 -14075005.42347  21177768.1064   21177763.6024
      3249.1094       2531.7744         47.7504         33.5004
 -22900810.48949 -17838139.41348  19355184.1134   19355179.6484
       333.5634        259.9194         53.5004         43.5004
  12644408.34849   9840778.31846  23281739.2774   23281736.8364
     -1881.9064      -1466.4204         40.0004         24.0004
  -8373158.45249  -6516715.35147  22787537.8564   22787535.9924
      3386.5784       2638.8924         41.0004         27.0004
 01  7  3  2 49 59.9960000  0  8G 1G28G 4G20G13G22G25G27
 -19010984.35249 -14806647.53448  19414002.0904   19413997.9144
      1654.6414       1289.3304         54.2504         45.5004
  -4446294.45549  -3441501.24646  23038461.0124   23038460.3914
      4569.0474       3560.2964         40.5004         22.2504
  -5646273.38949  -4384253.87246  23111801.9414   23111799.4024
       876.9384        683.3284         43.0004         21.2504
 -12048720.21249  -9380220.11548  19401705.1064   19401700.2854
      -893.8754       -696.5264         53.5004         44.0004
 -18182672.19349 -14150924.43047  21159227.9494   21159223.3244
      3246.0314       2529.3754         47.2504         34.5004
 -22910486.54249 -17845679.18848  19353342.7624   19353337.8564
       311.4064        242.6544         52.7504         43.2504
  12700861.67049   9884767.93546  23292480.4264   23292478.8484
     -1881.7814      -1466.3234         36.0004         21.7504
  -8474670.32049  -6595815.40447  22768220.2854   22768218.9964
      3380.7664       2634.3634         42.0004         26.7504
 01  7  3  2 50 29.9960000  0  8G 1G28G 4G20G13G22G25G27
 -19060508.06249 -14845237.42748  19404577.9184   19404573.7544
      1646.9224       1283.3164         53.5004         45.5004
  -4583337.62249  -3548287.96746  23012382.7934   23012381.7424
      4567.0634       3558.7504         41.0004         22.2504
  -5672324.38049  -4404553.41846  23106843.6914   23106843.2894
       859.7034        669.8994         40.5004         22.5004
 -12021633.21349  -9359113.39448  19406859.2704   19406854.3094
      -912.0474       -710.6864         54.0004         44.2504
 -18280003.72949 -14226767.16847  21140706.3094   21140701.7734
      3242.6254       2526.7214         46.5004         34.0004
 -22919493.88549 -17852697.89948  19351628.7544   19351624.0084
       288.9534        225.1584         51.0004         43.0004
  12757310.23949   9928753.80746  23303223.2074   23303221.7344
     -1881.7344      -1466.2874         40.5004         22.5004
  -8576002.42049  -6674775.37147  22748937.0434   22748937.0594
      3374.6724       2629.6144         43.0004         26.0004
 01  7  3  2 50 59.9960000  0  8G 1G28G 4G20G13G22G25G27
 -19109800.15549 -14883646.84448  19395198.3094   19395193.5784
      1639.1254       1277.2404         54.0004         45.5004
  -4720319.20849  -3655026.61446  22986315.2314   22986314.2584
      4564.9534       3557.1064         39.2504         22.5004
  -5697857.72349  -4424449.51246  23101985.7544   23101985.2034
       842.4224        656.4334         42.5004         22.7504
 -11994002.70749  -9337583.17048  19412117.5124   19412112.6174
      -930.0474       -724.7124         54.2504         44.0004
 -18377234.14349 -14302531.09647  21122204.0744   21122199.5944
      3239.3444       2524.1644         47.0004         34.7504
 -22927830.45649 -17859193.92948  19350042.2704   19350037.5204
       266.6724        207.7964         51.5004         42.7504
  12813756.11649   9972737.57146  23313964.2464   23313962.2814
     -1881.5784      -1466.1654         39.2504         21.7504
  -8677151.98549  -6753593.10747  22729689.3324   22729688.1804
      3368.5474       2624.8424         43.5004         26.7504
 01  7  3  2 51 29.9960000  0  8G 1G28G 4G20G13G22G25G27
 -19158859.44349 -14921874.84548  19385862.5514   19385857.6914
      1631.3914       1271.2134         54.5004         45.5004
  -4857236.25849  -3761715.05446  22960260.6374   22960260.5594
      4562.8284       3555.4504         38.7504         22.0004
  -5722874.31849  -4443943.00946  23097224.4734   23097224.0514
       825.2034        643.0154         42.5004         22.2504
 -11965829.95549  -9315630.41248  19417478.4414   19417473.9814
      -948.2034       -738.8604         54.0004         43.7504
 -18474362.35849 -14378215.38447  21103720.9574   21103716.3284
      3235.7974       2521.4004         47.5004         34.2504
 -22935496.92249 -17865167.78948  19348583.6914   19348578.8954
       244.3914        190.4344         51.5004         43.0004
  12870198.12249  10016718.32746  23324704.5824   23324702.9774
     -1881.4534      -1466.0674         38.0004         22.7504
  -8778118.68749  -6832268.38847  22710475.4264   22710474.6414
      3362.4534       2620.0934         41.5004         26.0004
 01  7  3  2 51 59.9960000  0  8G 1G28G 4G20G13G22G25G27
 -19207688.20249 -14959923.21748  19376570.7074   19376566.4494
      1623.7344       1265.2484         54.0004         45.7504
  -4994089.77249  -3868353.95246  22934219.0124   22934217.6214
      4560.5474       3553.6734         41.0004         22.7504
  -5747378.12349  -4463036.85346  23092561.1684   23092558.9614
       808.1564        629.7324         41.2504         21.2504
 -11937119.61349  -9293258.75248  19422941.7384   19422937.0784
      -966.0784       -752.7884         54.0004         44.0004
 -18571390.71349 -14453821.84547  21085256.8324   21085252.4734
      3232.5474       2518.8684         47.5004         34.0004
 -22942497.71649 -17870622.95648  19347251.3324   19347246.8714
       222.2194        173.1574         51.7504         42.5004
  12926632.34449  10060692.99346  23335443.8324   23335442.4844
     -1881.0314      -1465.7394         41.2504         22.7504
  -8878905.44749  -6910803.42047  22691296.4414   22691295.8444
      3356.4694       2615.4304         43.2504         26.0004
 01  7  3  2 52 29.9960000  0  8G 1G28G 4G20G13G22G25G27
 -19256287.57449 -14997792.85248  19367322.3164   19367318.0634
      1616.1884       1259.3674         53.0004         45.5004
  -5130879.40249  -3974943.02846  22908188.0204   22908187.0514
      4558.6254       3552.1754         39.7504         22.5004
  -5771372.03249  -4481733.41246  23087995.8954   23087993.2384
       791.3594        616.6444         41.0004         20.2504
 -11907875.80149  -9270471.40448  19428506.9494   19428501.8674
      -983.6254       -766.4614         53.5004         44.0004
 -18668320.59449 -14529351.59647  21066811.8094   21066807.5124
      3229.3914       2516.4084         47.5004         34.7504
 -22948836.22849 -17875562.05048  19346044.9184   19346040.0664
       200.3594        156.1244         51.7504         42.5004
  12983055.61849  10104659.13946  23346181.4494   23346178.8634
     -1880.4694      -1465.3004         40.0004         21.2504
  -8979514.25249  -6989199.75147  22672151.8794   22672150.0124
      3350.6884       2610.9254         44.0004         26.2504
 01  7  3  2 52 59.9960000  0  8G 1G28G 4G20G13G22G25G27
 -19304653.47049 -15035480.54648  19358118.7314   19358114.2234
      1608.3134       1253.2314         54.2504         45.5004
  -5267599.68749  -4081478.10446  22882169.4964   22882170.0394
      4556.2504       3550.3254         38.5004         21.5004
  -5794853.80949  -4500030.97446  23083526.8634   23083525.5824
       774.2504        603.3124         40.2504         22.0004
 -11878096.76749  -9247266.99648  19434173.6214   19434168.6564
     -1001.5784       -780.4504         54.0004         43.7504
 -18765148.06449 -14604801.54847  21048386.3164   21048381.7934
      3225.8914       2513.6814         47.5004         34.5004
 -22954509.70349 -17879982.93848  19344965.3324   19344960.7384
       178.0314        138.7264         51.0004         42.5004
  13039470.62149  10148618.85346  23356916.8404   23356913.8754
     -1880.2664      -1465.1424         41.5004         21.7504
  -9079941.81949  -7067454.89046  22653039.8954   22653038.5164
      3344.5634       2606.1534         42.2504         25.5004
 01  7  3  2 53 29.9950000  0  8G 1G28G 4G20G13G22G25G27
 -19352780.26849 -15072981.93248  19348960.7574   19348955.9644
      1600.1884       1246.8994         53.7504         45.5004
  -5404240.41949  -4187951.20046  22856167.8824   22856168.1674
      4553.3284       3548.0484         39.7504         22.2504
  -5817821.12049  -4517927.59046  23079155.9834   23079155.4444
       756.9064        589.7974         40.7504         22.5004
 -11847782.29949  -9223645.37648  19439942.4294   19439937.4684
     -1019.5624       -794.4644         53.7504         43.7504
 -18861866.08349 -14680166.19347  21029981.5624   21029976.9764
      3222.0944       2510.7224         47.0004         34.2504
 -22959515.68049 -17883883.70248  19344012.9524   19344008.1404
       155.6254        121.2664         51.5004         42.5004
  13095877.54949  10192572.19646  23367651.2964   23367648.9954
     -1880.2504      -1465.1304         39.5004         22.0004
  -9180181.65649  -7145563.75747  22633965.5384   22633963.6444
      3338.2344       2601.2224         43.0004         26.5004
 01  7  3  2 53 59.9950000  0  8G 1G28G 4G20G13G22G25G27
 -19400665.51849 -15110295.10648  19339848.3274   19339844.1594
      1592.3134       1240.7634         53.0004         45.5004
  -5540803.51149  -4294363.78246  22830182.2574   22830180.0234
      4550.8284       3546.1004         39.5004         21.5004
  -5840271.33049  -4535421.27546  23074883.6014   23074883.2374
       740.0164        576.6364         41.5004         21.7504
 -11816926.94849  -9199602.27948  19445813.9444   19445809.2884
     -1037.2814       -808.2714         54.0004         43.5004
 -18958475.18749 -14755445.96147  21011597.2184   21011593.0814
      3218.7034       2508.0804         48.7504         35.0004
 -22963850.94149 -17887261.82348  19343187.6714   19343182.8354
       133.6094        104.1114         51.5004         42.7504
  13152284.11649  10236525.36146  23378384.0774   23378382.9604
     -1879.9844      -1464.9234         39.5004         22.7504
  -9280235.71749  -7223527.83647  22614927.1014   22614923.6204
      3332.2664       2596.5714         44.2504         25.7504
 01  7  3  2 54 29.9950000  0  8G 1G28G 4G20G13G22G25G27
 -19448315.17049 -15147424.70348  19330780.7964   19330776.2184
      1584.3444       1234.5544         54.0004         45.7504
  -5677290.37349  -4400716.99246  22804209.8194   22804207.2964
      4548.1724       3544.0304         40.5004         22.2504
  -5862213.27649  -4552518.92346  23070709.6714   23070708.3274
       722.9384        563.3284         42.5004         22.7504
 -11785542.20849  -9175146.68348  19451786.2654   19451780.8514
     -1054.9694       -822.0544         53.2504         43.5004
 -19054979.87249 -14830644.37947  20993232.8904   20993228.6204
      3215.0784       2505.2564         48.0004         35.0004
 -22967525.27449 -17890124.94048  19342488.4444   19342484.0304
       111.4534         86.8474         52.5004         42.0004
  13208679.04349  10280469.40446  23389117.7104   23389114.8944
     -1879.6564      -1464.6674         38.5004         23.7504
  -9380108.77549  -7301350.88447  22595921.0694   22595918.8984
      3326.0784       2591.7494         43.7504         26.5004
 01  7  3  2 54 59.9950000  0  8G 1G28G 4G20G13G22G25G27
 -19495722.95049 -15184365.82348  19321759.4054   19321754.8944
      1576.1884       1228.1984         54.0004         46.0004
  -5813693.53249  -4507004.92946  22778250.8584   22778250.8824
      4545.2974       3541.7904         37.5004         20.7504
  -5883642.71749  -4569217.18946  23066630.7414   23066630.6014
       705.6414        549.8504         43.0004         23.7504
 -11753624.42749  -9150275.72048  19457860.0694   19457855.0584
     -1072.8914       -836.0194         53.0004         43.5004
 -19151374.33649 -14905756.90447  20974889.5234   20974885.0074
      3211.1254       2502.1754         49.0004         35.5004
 -22970534.53449 -17892469.81148  19341916.2654   19341911.1324
        89.0944         69.4244         51.7504         42.2504
  13265067.13149  10324408.09246  23399846.0464   23399844.5034
     -1879.5784      -1464.6064         39.2504         21.0004
  -9479795.58349  -7379028.78147  22576950.2804   22576948.7454
      3319.7504       2586.8184         43.5004         26.2504
